<?xml version="1.0" encoding="UTF-8" standalone="no" ?>
<gpx xmlns="http://www.topografix.com/GPX/1/1" xmlns:xsi="http://www.w3.org/2001/XMLSchema-instance" xsi:schemaLocation="http://www.topografix.com/GPX/1/1 http://www.topografix.com/GPX/1/1/gpx.xsd" version="1.1" creator="VisuGPX - https://www.visugpx.com">
  <metadata>
    <name>Parcours vélo</name>
    <desc><![CDATA[boucle de 24km ]]></desc>
  </metadata>
  <trk>
    <name><![CDATA[07/04/2015 17:06]]></name>
    <desc><![CDATA[]]></desc>
    <trkseg>
      <trkpt lat="45.53198" lon="2.6868">
        <ele>992.1</ele>
        <time>2015-04-07T15:06:25.676Z</time>
      </trkpt>
      <trkpt lat="45.53203" lon="2.68689">
        <ele>1001.4</ele>
        <time>2015-04-07T15:07:08.020Z</time>
      </trkpt>
      <trkpt lat="45.53207" lon="2.68693">
        <ele>1001.1</ele>
        <time>2015-04-07T15:07:09.016Z</time>
      </trkpt>
      <trkpt lat="45.53209" lon="2.68699">
        <ele>1000.9</ele>
        <time>2015-04-07T15:07:10.019Z</time>
      </trkpt>
      <trkpt lat="45.53213" lon="2.68705">
        <ele>1000.9</ele>
        <time>2015-04-07T15:07:11.020Z</time>
      </trkpt>
      <trkpt lat="45.53215" lon="2.68715">
        <ele>1000.3</ele>
        <time>2015-04-07T15:07:12.026Z</time>
      </trkpt>
      <trkpt lat="45.53218" lon="2.68722">
        <ele>999.8</ele>
        <time>2015-04-07T15:07:13.012Z</time>
      </trkpt>
      <trkpt lat="45.5322" lon="2.68729">
        <ele>999.6</ele>
        <time>2015-04-07T15:07:14.031Z</time>
      </trkpt>
      <trkpt lat="45.53223" lon="2.68734">
        <ele>1000.2</ele>
        <time>2015-04-07T15:07:15.037Z</time>
      </trkpt>
      <trkpt lat="45.53226" lon="2.68744">
        <ele>1000.3</ele>
        <time>2015-04-07T15:07:17.027Z</time>
      </trkpt>
      <trkpt lat="45.53226" lon="2.6875">
        <ele>1000.3</ele>
        <time>2015-04-07T15:07:18.019Z</time>
      </trkpt>
      <trkpt lat="45.53224" lon="2.68761">
        <ele>1000.2</ele>
        <time>2015-04-07T15:07:20.020Z</time>
      </trkpt>
      <trkpt lat="45.5322" lon="2.68767">
        <ele>1000.9</ele>
        <time>2015-04-07T15:07:21.034Z</time>
      </trkpt>
      <trkpt lat="45.53215" lon="2.68774">
        <ele>1001.2</ele>
        <time>2015-04-07T15:07:22.027Z</time>
      </trkpt>
      <trkpt lat="45.53209" lon="2.68782">
        <ele>1001.3</ele>
        <time>2015-04-07T15:07:23.026Z</time>
      </trkpt>
      <trkpt lat="45.53202" lon="2.6879">
        <ele>1001.9</ele>
        <time>2015-04-07T15:07:24.027Z</time>
      </trkpt>
      <trkpt lat="45.53194" lon="2.688">
        <ele>1002.6</ele>
        <time>2015-04-07T15:07:25.070Z</time>
      </trkpt>
      <trkpt lat="45.53185" lon="2.68812">
        <ele>1003.1</ele>
        <time>2015-04-07T15:07:26.035Z</time>
      </trkpt>
      <trkpt lat="45.53175" lon="2.68824">
        <ele>1003</ele>
        <time>2015-04-07T15:07:27.025Z</time>
      </trkpt>
      <trkpt lat="45.53166" lon="2.68838">
        <ele>1003.6</ele>
        <time>2015-04-07T15:07:28.028Z</time>
      </trkpt>
      <trkpt lat="45.53156" lon="2.6885">
        <ele>1004</ele>
        <time>2015-04-07T15:07:29.042Z</time>
      </trkpt>
      <trkpt lat="45.53146" lon="2.68864">
        <ele>1004.3</ele>
        <time>2015-04-07T15:07:30.091Z</time>
      </trkpt>
      <trkpt lat="45.53136" lon="2.68879">
        <ele>1004.5</ele>
        <time>2015-04-07T15:07:31.010Z</time>
      </trkpt>
      <trkpt lat="45.53129" lon="2.68898">
        <ele>1004.2</ele>
        <time>2015-04-07T15:07:32.027Z</time>
      </trkpt>
      <trkpt lat="45.53123" lon="2.68918">
        <ele>1003.9</ele>
        <time>2015-04-07T15:07:33.029Z</time>
      </trkpt>
      <trkpt lat="45.5312" lon="2.6894">
        <ele>1004</ele>
        <time>2015-04-07T15:07:34.024Z</time>
      </trkpt>
      <trkpt lat="45.53116" lon="2.68967">
        <ele>1003.7</ele>
        <time>2015-04-07T15:07:35.023Z</time>
      </trkpt>
      <trkpt lat="45.53112" lon="2.68995">
        <ele>1003.4</ele>
        <time>2015-04-07T15:07:36.024Z</time>
      </trkpt>
      <trkpt lat="45.53108" lon="2.69022">
        <ele>1002.6</ele>
        <time>2015-04-07T15:07:37.027Z</time>
      </trkpt>
      <trkpt lat="45.53106" lon="2.6905">
        <ele>1001.3</ele>
        <time>2015-04-07T15:07:38.017Z</time>
      </trkpt>
      <trkpt lat="45.53104" lon="2.69077">
        <ele>999.8</ele>
        <time>2015-04-07T15:07:39.024Z</time>
      </trkpt>
      <trkpt lat="45.53104" lon="2.69102">
        <ele>999</ele>
        <time>2015-04-07T15:07:40.034Z</time>
      </trkpt>
      <trkpt lat="45.53104" lon="2.69127">
        <ele>998.3</ele>
        <time>2015-04-07T15:07:41.041Z</time>
      </trkpt>
      <trkpt lat="45.53107" lon="2.69155">
        <ele>997.5</ele>
        <time>2015-04-07T15:07:42.026Z</time>
      </trkpt>
      <trkpt lat="45.53111" lon="2.69185">
        <ele>996.8</ele>
        <time>2015-04-07T15:07:43.027Z</time>
      </trkpt>
      <trkpt lat="45.53115" lon="2.69214">
        <ele>996.3</ele>
        <time>2015-04-07T15:07:44.045Z</time>
      </trkpt>
      <trkpt lat="45.53119" lon="2.69242">
        <ele>995.6</ele>
        <time>2015-04-07T15:07:45.032Z</time>
      </trkpt>
      <trkpt lat="45.53123" lon="2.69267">
        <ele>994.7</ele>
        <time>2015-04-07T15:07:46.039Z</time>
      </trkpt>
      <trkpt lat="45.53128" lon="2.69291">
        <ele>994.1</ele>
        <time>2015-04-07T15:07:47.033Z</time>
      </trkpt>
      <trkpt lat="45.53132" lon="2.69317">
        <ele>993.7</ele>
        <time>2015-04-07T15:07:48.024Z</time>
      </trkpt>
      <trkpt lat="45.53137" lon="2.69342">
        <ele>993.5</ele>
        <time>2015-04-07T15:07:49.030Z</time>
      </trkpt>
      <trkpt lat="45.53139" lon="2.69369">
        <ele>993.3</ele>
        <time>2015-04-07T15:07:50.049Z</time>
      </trkpt>
      <trkpt lat="45.5314" lon="2.69395">
        <ele>993.3</ele>
        <time>2015-04-07T15:07:51.052Z</time>
      </trkpt>
      <trkpt lat="45.5314" lon="2.69423">
        <ele>993.4</ele>
        <time>2015-04-07T15:07:52.027Z</time>
      </trkpt>
      <trkpt lat="45.53137" lon="2.69452">
        <ele>993.9</ele>
        <time>2015-04-07T15:07:53.034Z</time>
      </trkpt>
      <trkpt lat="45.53134" lon="2.69481">
        <ele>994.2</ele>
        <time>2015-04-07T15:07:54.033Z</time>
      </trkpt>
      <trkpt lat="45.53131" lon="2.69509">
        <ele>993.6</ele>
        <time>2015-04-07T15:07:55.027Z</time>
      </trkpt>
      <trkpt lat="45.53128" lon="2.69536">
        <ele>993.6</ele>
        <time>2015-04-07T15:07:56.056Z</time>
      </trkpt>
      <trkpt lat="45.53126" lon="2.69563">
        <ele>993.9</ele>
        <time>2015-04-07T15:07:57.034Z</time>
      </trkpt>
      <trkpt lat="45.53123" lon="2.69591">
        <ele>994.4</ele>
        <time>2015-04-07T15:07:58.028Z</time>
      </trkpt>
      <trkpt lat="45.53121" lon="2.69619">
        <ele>995.2</ele>
        <time>2015-04-07T15:07:59.045Z</time>
      </trkpt>
      <trkpt lat="45.53118" lon="2.69646">
        <ele>996.5</ele>
        <time>2015-04-07T15:08:00.030Z</time>
      </trkpt>
      <trkpt lat="45.53115" lon="2.69673">
        <ele>997.9</ele>
        <time>2015-04-07T15:08:01.027Z</time>
      </trkpt>
      <trkpt lat="45.53113" lon="2.69702">
        <ele>998.6</ele>
        <time>2015-04-07T15:08:02.017Z</time>
      </trkpt>
      <trkpt lat="45.5311" lon="2.69731">
        <ele>998.8</ele>
        <time>2015-04-07T15:08:03.037Z</time>
      </trkpt>
      <trkpt lat="45.53105" lon="2.69756">
        <ele>998.8</ele>
        <time>2015-04-07T15:08:04.039Z</time>
      </trkpt>
      <trkpt lat="45.53098" lon="2.6978">
        <ele>998.5</ele>
        <time>2015-04-07T15:08:05.029Z</time>
      </trkpt>
      <trkpt lat="45.53089" lon="2.69803">
        <ele>998.4</ele>
        <time>2015-04-07T15:08:06.019Z</time>
      </trkpt>
      <trkpt lat="45.53079" lon="2.69824">
        <ele>998.5</ele>
        <time>2015-04-07T15:08:07.018Z</time>
      </trkpt>
      <trkpt lat="45.53067" lon="2.69843">
        <ele>998.1</ele>
        <time>2015-04-07T15:08:08.018Z</time>
      </trkpt>
      <trkpt lat="45.53054" lon="2.69861">
        <ele>997.3</ele>
        <time>2015-04-07T15:08:09.028Z</time>
      </trkpt>
      <trkpt lat="45.53041" lon="2.69879">
        <ele>996.8</ele>
        <time>2015-04-07T15:08:10.078Z</time>
      </trkpt>
      <trkpt lat="45.53025" lon="2.69893">
        <ele>996.9</ele>
        <time>2015-04-07T15:08:11.023Z</time>
      </trkpt>
      <trkpt lat="45.53008" lon="2.69904">
        <ele>997</ele>
        <time>2015-04-07T15:08:12.015Z</time>
      </trkpt>
      <trkpt lat="45.52992" lon="2.69914">
        <ele>997</ele>
        <time>2015-04-07T15:08:13.026Z</time>
      </trkpt>
      <trkpt lat="45.52974" lon="2.69923">
        <ele>997.1</ele>
        <time>2015-04-07T15:08:14.021Z</time>
      </trkpt>
      <trkpt lat="45.52957" lon="2.69933">
        <ele>997.1</ele>
        <time>2015-04-07T15:08:15.020Z</time>
      </trkpt>
      <trkpt lat="45.5294" lon="2.69941">
        <ele>997</ele>
        <time>2015-04-07T15:08:16.011Z</time>
      </trkpt>
      <trkpt lat="45.52921" lon="2.6995">
        <ele>996.2</ele>
        <time>2015-04-07T15:08:17.024Z</time>
      </trkpt>
      <trkpt lat="45.52903" lon="2.69957">
        <ele>995.4</ele>
        <time>2015-04-07T15:08:18.028Z</time>
      </trkpt>
      <trkpt lat="45.52885" lon="2.69961">
        <ele>994.4</ele>
        <time>2015-04-07T15:08:19.017Z</time>
      </trkpt>
      <trkpt lat="45.52867" lon="2.69964">
        <ele>993.6</ele>
        <time>2015-04-07T15:08:20.028Z</time>
      </trkpt>
      <trkpt lat="45.52851" lon="2.69967">
        <ele>992.8</ele>
        <time>2015-04-07T15:08:21.027Z</time>
      </trkpt>
      <trkpt lat="45.52835" lon="2.69969">
        <ele>992.1</ele>
        <time>2015-04-07T15:08:22.022Z</time>
      </trkpt>
      <trkpt lat="45.52821" lon="2.69971">
        <ele>991.6</ele>
        <time>2015-04-07T15:08:23.020Z</time>
      </trkpt>
      <trkpt lat="45.52808" lon="2.69974">
        <ele>990.9</ele>
        <time>2015-04-07T15:08:24.024Z</time>
      </trkpt>
      <trkpt lat="45.52798" lon="2.69976">
        <ele>990.4</ele>
        <time>2015-04-07T15:08:25.020Z</time>
      </trkpt>
      <trkpt lat="45.52788" lon="2.69978">
        <ele>990.3</ele>
        <time>2015-04-07T15:08:26.020Z</time>
      </trkpt>
      <trkpt lat="45.52779" lon="2.69974">
        <ele>990.2</ele>
        <time>2015-04-07T15:08:27.016Z</time>
      </trkpt>
      <trkpt lat="45.52775" lon="2.69966">
        <ele>990.6</ele>
        <time>2015-04-07T15:08:28.016Z</time>
      </trkpt>
      <trkpt lat="45.52774" lon="2.69955">
        <ele>990.7</ele>
        <time>2015-04-07T15:08:29.023Z</time>
      </trkpt>
      <trkpt lat="45.52774" lon="2.69943">
        <ele>990.3</ele>
        <time>2015-04-07T15:08:30.027Z</time>
      </trkpt>
      <trkpt lat="45.52776" lon="2.69929">
        <ele>989.7</ele>
        <time>2015-04-07T15:08:31.026Z</time>
      </trkpt>
      <trkpt lat="45.52779" lon="2.69915">
        <ele>989.4</ele>
        <time>2015-04-07T15:08:32.038Z</time>
      </trkpt>
      <trkpt lat="45.52781" lon="2.699">
        <ele>989.1</ele>
        <time>2015-04-07T15:08:33.022Z</time>
      </trkpt>
      <trkpt lat="45.52783" lon="2.69884">
        <ele>988.8</ele>
        <time>2015-04-07T15:08:34.025Z</time>
      </trkpt>
      <trkpt lat="45.52783" lon="2.69868">
        <ele>988.5</ele>
        <time>2015-04-07T15:08:35.019Z</time>
      </trkpt>
      <trkpt lat="45.5278" lon="2.69851">
        <ele>988.4</ele>
        <time>2015-04-07T15:08:36.027Z</time>
      </trkpt>
      <trkpt lat="45.52777" lon="2.69835">
        <ele>988.3</ele>
        <time>2015-04-07T15:08:37.024Z</time>
      </trkpt>
      <trkpt lat="45.52771" lon="2.6982">
        <ele>988.3</ele>
        <time>2015-04-07T15:08:38.025Z</time>
      </trkpt>
      <trkpt lat="45.52764" lon="2.69805">
        <ele>988.3</ele>
        <time>2015-04-07T15:08:39.025Z</time>
      </trkpt>
      <trkpt lat="45.52752" lon="2.698">
        <ele>988</ele>
        <time>2015-04-07T15:08:40.017Z</time>
      </trkpt>
      <trkpt lat="45.52738" lon="2.69798">
        <ele>987.9</ele>
        <time>2015-04-07T15:08:41.025Z</time>
      </trkpt>
      <trkpt lat="45.52725" lon="2.69799">
        <ele>988</ele>
        <time>2015-04-07T15:08:42.038Z</time>
      </trkpt>
      <trkpt lat="45.52712" lon="2.69806">
        <ele>988.6</ele>
        <time>2015-04-07T15:08:43.048Z</time>
      </trkpt>
      <trkpt lat="45.527" lon="2.69813">
        <ele>989.3</ele>
        <time>2015-04-07T15:08:44.035Z</time>
      </trkpt>
      <trkpt lat="45.52688" lon="2.69826">
        <ele>989.8</ele>
        <time>2015-04-07T15:08:45.055Z</time>
      </trkpt>
      <trkpt lat="45.52678" lon="2.69838">
        <ele>990.4</ele>
        <time>2015-04-07T15:08:46.021Z</time>
      </trkpt>
      <trkpt lat="45.52666" lon="2.69851">
        <ele>990.9</ele>
        <time>2015-04-07T15:08:47.020Z</time>
      </trkpt>
      <trkpt lat="45.52654" lon="2.69865">
        <ele>991.3</ele>
        <time>2015-04-07T15:08:48.047Z</time>
      </trkpt>
      <trkpt lat="45.52641" lon="2.69878">
        <ele>992.2</ele>
        <time>2015-04-07T15:08:49.018Z</time>
      </trkpt>
      <trkpt lat="45.52628" lon="2.69889">
        <ele>993.8</ele>
        <time>2015-04-07T15:08:50.057Z</time>
      </trkpt>
      <trkpt lat="45.52616" lon="2.69898">
        <ele>995.2</ele>
        <time>2015-04-07T15:08:51.035Z</time>
      </trkpt>
      <trkpt lat="45.52602" lon="2.69907">
        <ele>996.9</ele>
        <time>2015-04-07T15:08:52.045Z</time>
      </trkpt>
      <trkpt lat="45.52587" lon="2.69915">
        <ele>998.9</ele>
        <time>2015-04-07T15:08:53.035Z</time>
      </trkpt>
      <trkpt lat="45.52574" lon="2.69923">
        <ele>1000.6</ele>
        <time>2015-04-07T15:08:54.046Z</time>
      </trkpt>
      <trkpt lat="45.5256" lon="2.6993">
        <ele>1002</ele>
        <time>2015-04-07T15:08:55.025Z</time>
      </trkpt>
      <trkpt lat="45.52547" lon="2.69938">
        <ele>1003.5</ele>
        <time>2015-04-07T15:08:56.047Z</time>
      </trkpt>
      <trkpt lat="45.52534" lon="2.69951">
        <ele>1005</ele>
        <time>2015-04-07T15:08:57.028Z</time>
      </trkpt>
      <trkpt lat="45.52522" lon="2.69964">
        <ele>1006.6</ele>
        <time>2015-04-07T15:08:58.042Z</time>
      </trkpt>
      <trkpt lat="45.52511" lon="2.69976">
        <ele>1008.3</ele>
        <time>2015-04-07T15:08:59.030Z</time>
      </trkpt>
      <trkpt lat="45.525" lon="2.69988">
        <ele>1010.1</ele>
        <time>2015-04-07T15:09:00.029Z</time>
      </trkpt>
      <trkpt lat="45.52491" lon="2.69999">
        <ele>1011.8</ele>
        <time>2015-04-07T15:09:01.028Z</time>
      </trkpt>
      <trkpt lat="45.52481" lon="2.70004">
        <ele>1013.4</ele>
        <time>2015-04-07T15:09:02.027Z</time>
      </trkpt>
      <trkpt lat="45.52472" lon="2.70004">
        <ele>1014.5</ele>
        <time>2015-04-07T15:09:03.028Z</time>
      </trkpt>
      <trkpt lat="45.52463" lon="2.69999">
        <ele>1015.4</ele>
        <time>2015-04-07T15:09:04.034Z</time>
      </trkpt>
      <trkpt lat="45.52453" lon="2.6999">
        <ele>1015.6</ele>
        <time>2015-04-07T15:09:05.031Z</time>
      </trkpt>
      <trkpt lat="45.52446" lon="2.69979">
        <ele>1016.1</ele>
        <time>2015-04-07T15:09:06.031Z</time>
      </trkpt>
      <trkpt lat="45.52438" lon="2.69967">
        <ele>1016.6</ele>
        <time>2015-04-07T15:09:07.035Z</time>
      </trkpt>
      <trkpt lat="45.52431" lon="2.69954">
        <ele>1017.4</ele>
        <time>2015-04-07T15:09:08.032Z</time>
      </trkpt>
      <trkpt lat="45.52425" lon="2.69941">
        <ele>1018.1</ele>
        <time>2015-04-07T15:09:09.029Z</time>
      </trkpt>
      <trkpt lat="45.52417" lon="2.6993">
        <ele>1018.8</ele>
        <time>2015-04-07T15:09:10.028Z</time>
      </trkpt>
      <trkpt lat="45.52409" lon="2.69923">
        <ele>1019.4</ele>
        <time>2015-04-07T15:09:11.032Z</time>
      </trkpt>
      <trkpt lat="45.52398" lon="2.69917">
        <ele>1020</ele>
        <time>2015-04-07T15:09:12.033Z</time>
      </trkpt>
      <trkpt lat="45.52386" lon="2.69911">
        <ele>1020.6</ele>
        <time>2015-04-07T15:09:13.027Z</time>
      </trkpt>
      <trkpt lat="45.52373" lon="2.69905">
        <ele>1021.4</ele>
        <time>2015-04-07T15:09:14.028Z</time>
      </trkpt>
      <trkpt lat="45.52361" lon="2.699">
        <ele>1022.3</ele>
        <time>2015-04-07T15:09:15.032Z</time>
      </trkpt>
      <trkpt lat="45.52348" lon="2.69894">
        <ele>1023.2</ele>
        <time>2015-04-07T15:09:16.025Z</time>
      </trkpt>
      <trkpt lat="45.52336" lon="2.69889">
        <ele>1024.1</ele>
        <time>2015-04-07T15:09:17.033Z</time>
      </trkpt>
      <trkpt lat="45.52323" lon="2.69885">
        <ele>1024.9</ele>
        <time>2015-04-07T15:09:18.033Z</time>
      </trkpt>
      <trkpt lat="45.5231" lon="2.6988">
        <ele>1025.6</ele>
        <time>2015-04-07T15:09:19.036Z</time>
      </trkpt>
      <trkpt lat="45.52297" lon="2.69874">
        <ele>1026.4</ele>
        <time>2015-04-07T15:09:20.021Z</time>
      </trkpt>
      <trkpt lat="45.52285" lon="2.69867">
        <ele>1026.7</ele>
        <time>2015-04-07T15:09:21.040Z</time>
      </trkpt>
      <trkpt lat="45.52271" lon="2.69861">
        <ele>1027</ele>
        <time>2015-04-07T15:09:22.030Z</time>
      </trkpt>
      <trkpt lat="45.52259" lon="2.69854">
        <ele>1027.1</ele>
        <time>2015-04-07T15:09:23.034Z</time>
      </trkpt>
      <trkpt lat="45.52248" lon="2.69849">
        <ele>1027.2</ele>
        <time>2015-04-07T15:09:24.044Z</time>
      </trkpt>
      <trkpt lat="45.52237" lon="2.69846">
        <ele>1027.3</ele>
        <time>2015-04-07T15:09:25.038Z</time>
      </trkpt>
      <trkpt lat="45.52226" lon="2.69843">
        <ele>1027.8</ele>
        <time>2015-04-07T15:09:26.027Z</time>
      </trkpt>
      <trkpt lat="45.52214" lon="2.6984">
        <ele>1028.6</ele>
        <time>2015-04-07T15:09:27.026Z</time>
      </trkpt>
      <trkpt lat="45.52203" lon="2.69837">
        <ele>1029.5</ele>
        <time>2015-04-07T15:09:28.027Z</time>
      </trkpt>
      <trkpt lat="45.52194" lon="2.69831">
        <ele>1030.3</ele>
        <time>2015-04-07T15:09:29.028Z</time>
      </trkpt>
      <trkpt lat="45.52184" lon="2.69824">
        <ele>1030.8</ele>
        <time>2015-04-07T15:09:30.034Z</time>
      </trkpt>
      <trkpt lat="45.52179" lon="2.69809">
        <ele>1031.3</ele>
        <time>2015-04-07T15:09:31.028Z</time>
      </trkpt>
      <trkpt lat="45.52175" lon="2.69793">
        <ele>1031.9</ele>
        <time>2015-04-07T15:09:32.034Z</time>
      </trkpt>
      <trkpt lat="45.52169" lon="2.69777">
        <ele>1032.8</ele>
        <time>2015-04-07T15:09:33.025Z</time>
      </trkpt>
      <trkpt lat="45.52161" lon="2.69764">
        <ele>1033.9</ele>
        <time>2015-04-07T15:09:34.022Z</time>
      </trkpt>
      <trkpt lat="45.52153" lon="2.69752">
        <ele>1034.8</ele>
        <time>2015-04-07T15:09:35.017Z</time>
      </trkpt>
      <trkpt lat="45.52147" lon="2.69742">
        <ele>1035.1</ele>
        <time>2015-04-07T15:09:36.018Z</time>
      </trkpt>
      <trkpt lat="45.5214" lon="2.69733">
        <ele>1035</ele>
        <time>2015-04-07T15:09:37.032Z</time>
      </trkpt>
      <trkpt lat="45.52133" lon="2.69723">
        <ele>1034.7</ele>
        <time>2015-04-07T15:09:38.052Z</time>
      </trkpt>
      <trkpt lat="45.52126" lon="2.69714">
        <ele>1034.6</ele>
        <time>2015-04-07T15:09:39.038Z</time>
      </trkpt>
      <trkpt lat="45.52119" lon="2.69705">
        <ele>1034.4</ele>
        <time>2015-04-07T15:09:40.032Z</time>
      </trkpt>
      <trkpt lat="45.5211" lon="2.697">
        <ele>1034.5</ele>
        <time>2015-04-07T15:09:41.037Z</time>
      </trkpt>
      <trkpt lat="45.52101" lon="2.69698">
        <ele>1034.6</ele>
        <time>2015-04-07T15:09:42.038Z</time>
      </trkpt>
      <trkpt lat="45.52093" lon="2.69701">
        <ele>1035.1</ele>
        <time>2015-04-07T15:09:43.040Z</time>
      </trkpt>
      <trkpt lat="45.52085" lon="2.69705">
        <ele>1035.4</ele>
        <time>2015-04-07T15:09:44.038Z</time>
      </trkpt>
      <trkpt lat="45.52081" lon="2.69715">
        <ele>1035.4</ele>
        <time>2015-04-07T15:09:45.031Z</time>
      </trkpt>
      <trkpt lat="45.52077" lon="2.69726">
        <ele>1035.5</ele>
        <time>2015-04-07T15:09:46.040Z</time>
      </trkpt>
      <trkpt lat="45.52075" lon="2.69741">
        <ele>1035.4</ele>
        <time>2015-04-07T15:09:47.044Z</time>
      </trkpt>
      <trkpt lat="45.52074" lon="2.69758">
        <ele>1035.1</ele>
        <time>2015-04-07T15:09:48.031Z</time>
      </trkpt>
      <trkpt lat="45.52072" lon="2.69775">
        <ele>1034.9</ele>
        <time>2015-04-07T15:09:49.038Z</time>
      </trkpt>
      <trkpt lat="45.5207" lon="2.69793">
        <ele>1035</ele>
        <time>2015-04-07T15:09:50.037Z</time>
      </trkpt>
      <trkpt lat="45.52068" lon="2.69811">
        <ele>1034.5</ele>
        <time>2015-04-07T15:09:51.047Z</time>
      </trkpt>
      <trkpt lat="45.52066" lon="2.69827">
        <ele>1034</ele>
        <time>2015-04-07T15:09:52.048Z</time>
      </trkpt>
      <trkpt lat="45.52064" lon="2.69844">
        <ele>1033.5</ele>
        <time>2015-04-07T15:09:53.053Z</time>
      </trkpt>
      <trkpt lat="45.52061" lon="2.6986">
        <ele>1032.8</ele>
        <time>2015-04-07T15:09:54.049Z</time>
      </trkpt>
      <trkpt lat="45.52059" lon="2.69877">
        <ele>1032.4</ele>
        <time>2015-04-07T15:09:55.039Z</time>
      </trkpt>
      <trkpt lat="45.52058" lon="2.69893">
        <ele>1032.4</ele>
        <time>2015-04-07T15:09:56.025Z</time>
      </trkpt>
      <trkpt lat="45.52056" lon="2.6991">
        <ele>1032.5</ele>
        <time>2015-04-07T15:09:57.045Z</time>
      </trkpt>
      <trkpt lat="45.52055" lon="2.69924">
        <ele>1032.4</ele>
        <time>2015-04-07T15:09:58.052Z</time>
      </trkpt>
      <trkpt lat="45.52052" lon="2.69937">
        <ele>1031.3</ele>
        <time>2015-04-07T15:09:59.037Z</time>
      </trkpt>
      <trkpt lat="45.52049" lon="2.69948">
        <ele>1030.1</ele>
        <time>2015-04-07T15:10:00.039Z</time>
      </trkpt>
      <trkpt lat="45.52044" lon="2.69957">
        <ele>1029.5</ele>
        <time>2015-04-07T15:10:01.031Z</time>
      </trkpt>
      <trkpt lat="45.52038" lon="2.69966">
        <ele>1028.7</ele>
        <time>2015-04-07T15:10:02.049Z</time>
      </trkpt>
      <trkpt lat="45.5203" lon="2.6997">
        <ele>1027.8</ele>
        <time>2015-04-07T15:10:03.034Z</time>
      </trkpt>
      <trkpt lat="45.52022" lon="2.6997">
        <ele>1026.9</ele>
        <time>2015-04-07T15:10:04.036Z</time>
      </trkpt>
      <trkpt lat="45.52013" lon="2.69965">
        <ele>1026.1</ele>
        <time>2015-04-07T15:10:05.031Z</time>
      </trkpt>
      <trkpt lat="45.52004" lon="2.69959">
        <ele>1024.9</ele>
        <time>2015-04-07T15:10:06.031Z</time>
      </trkpt>
      <trkpt lat="45.51995" lon="2.69953">
        <ele>1023.6</ele>
        <time>2015-04-07T15:10:07.028Z</time>
      </trkpt>
      <trkpt lat="45.51985" lon="2.69953">
        <ele>1022.2</ele>
        <time>2015-04-07T15:10:08.027Z</time>
      </trkpt>
      <trkpt lat="45.51975" lon="2.69953">
        <ele>1020.3</ele>
        <time>2015-04-07T15:10:09.028Z</time>
      </trkpt>
      <trkpt lat="45.51964" lon="2.69953">
        <ele>1018.6</ele>
        <time>2015-04-07T15:10:10.032Z</time>
      </trkpt>
      <trkpt lat="45.51953" lon="2.69954">
        <ele>1017</ele>
        <time>2015-04-07T15:10:11.026Z</time>
      </trkpt>
      <trkpt lat="45.51943" lon="2.69956">
        <ele>1015.8</ele>
        <time>2015-04-07T15:10:12.026Z</time>
      </trkpt>
      <trkpt lat="45.51934" lon="2.69963">
        <ele>1015.6</ele>
        <time>2015-04-07T15:10:13.035Z</time>
      </trkpt>
      <trkpt lat="45.51924" lon="2.69971">
        <ele>1015</ele>
        <time>2015-04-07T15:10:14.032Z</time>
      </trkpt>
      <trkpt lat="45.51916" lon="2.69979">
        <ele>1015.1</ele>
        <time>2015-04-07T15:10:15.040Z</time>
      </trkpt>
      <trkpt lat="45.51907" lon="2.69988">
        <ele>1015.3</ele>
        <time>2015-04-07T15:10:16.028Z</time>
      </trkpt>
      <trkpt lat="45.51901" lon="2.7">
        <ele>1015.8</ele>
        <time>2015-04-07T15:10:17.038Z</time>
      </trkpt>
      <trkpt lat="45.51894" lon="2.70013">
        <ele>1016.5</ele>
        <time>2015-04-07T15:10:18.045Z</time>
      </trkpt>
      <trkpt lat="45.51887" lon="2.70027">
        <ele>1016.7</ele>
        <time>2015-04-07T15:10:19.033Z</time>
      </trkpt>
      <trkpt lat="45.51878" lon="2.7004">
        <ele>1016.6</ele>
        <time>2015-04-07T15:10:20.055Z</time>
      </trkpt>
      <trkpt lat="45.5187" lon="2.70054">
        <ele>1015.9</ele>
        <time>2015-04-07T15:10:21.032Z</time>
      </trkpt>
      <trkpt lat="45.51862" lon="2.70066">
        <ele>1015.5</ele>
        <time>2015-04-07T15:10:22.025Z</time>
      </trkpt>
      <trkpt lat="45.51855" lon="2.70079">
        <ele>1015.2</ele>
        <time>2015-04-07T15:10:23.030Z</time>
      </trkpt>
      <trkpt lat="45.51846" lon="2.70092">
        <ele>1015.1</ele>
        <time>2015-04-07T15:10:24.023Z</time>
      </trkpt>
      <trkpt lat="45.51837" lon="2.70106">
        <ele>1015.1</ele>
        <time>2015-04-07T15:10:25.029Z</time>
      </trkpt>
      <trkpt lat="45.51828" lon="2.70118">
        <ele>1015</ele>
        <time>2015-04-07T15:10:26.032Z</time>
      </trkpt>
      <trkpt lat="45.51818" lon="2.70128">
        <ele>1014.8</ele>
        <time>2015-04-07T15:10:27.022Z</time>
      </trkpt>
      <trkpt lat="45.51808" lon="2.7014">
        <ele>1014.9</ele>
        <time>2015-04-07T15:10:28.027Z</time>
      </trkpt>
      <trkpt lat="45.51799" lon="2.70153">
        <ele>1014.9</ele>
        <time>2015-04-07T15:10:29.019Z</time>
      </trkpt>
      <trkpt lat="45.5179" lon="2.70166">
        <ele>1015</ele>
        <time>2015-04-07T15:10:30.031Z</time>
      </trkpt>
      <trkpt lat="45.51781" lon="2.70177">
        <ele>1014.6</ele>
        <time>2015-04-07T15:10:31.029Z</time>
      </trkpt>
      <trkpt lat="45.51774" lon="2.70187">
        <ele>1014.1</ele>
        <time>2015-04-07T15:10:32.034Z</time>
      </trkpt>
      <trkpt lat="45.51766" lon="2.70196">
        <ele>1013.6</ele>
        <time>2015-04-07T15:10:33.016Z</time>
      </trkpt>
      <trkpt lat="45.51758" lon="2.70205">
        <ele>1013</ele>
        <time>2015-04-07T15:10:34.018Z</time>
      </trkpt>
      <trkpt lat="45.51749" lon="2.70208">
        <ele>1012.1</ele>
        <time>2015-04-07T15:10:35.020Z</time>
      </trkpt>
      <trkpt lat="45.51739" lon="2.7021">
        <ele>1011.1</ele>
        <time>2015-04-07T15:10:36.030Z</time>
      </trkpt>
      <trkpt lat="45.51732" lon="2.70207">
        <ele>1009.9</ele>
        <time>2015-04-07T15:10:37.023Z</time>
      </trkpt>
      <trkpt lat="45.51724" lon="2.702">
        <ele>1008.3</ele>
        <time>2015-04-07T15:10:38.040Z</time>
      </trkpt>
      <trkpt lat="45.51719" lon="2.70189">
        <ele>1006.8</ele>
        <time>2015-04-07T15:10:39.029Z</time>
      </trkpt>
      <trkpt lat="45.51714" lon="2.70177">
        <ele>1005.8</ele>
        <time>2015-04-07T15:10:40.031Z</time>
      </trkpt>
      <trkpt lat="45.51711" lon="2.70167">
        <ele>1005.1</ele>
        <time>2015-04-07T15:10:41.051Z</time>
      </trkpt>
      <trkpt lat="45.51714" lon="2.70154">
        <ele>1004.5</ele>
        <time>2015-04-07T15:10:42.045Z</time>
      </trkpt>
      <trkpt lat="45.51717" lon="2.7014">
        <ele>1003.4</ele>
        <time>2015-04-07T15:10:43.041Z</time>
      </trkpt>
      <trkpt lat="45.51721" lon="2.70124">
        <ele>1002.8</ele>
        <time>2015-04-07T15:10:44.036Z</time>
      </trkpt>
      <trkpt lat="45.51726" lon="2.70108">
        <ele>1001.5</ele>
        <time>2015-04-07T15:10:45.031Z</time>
      </trkpt>
      <trkpt lat="45.51731" lon="2.70092">
        <ele>1000</ele>
        <time>2015-04-07T15:10:46.042Z</time>
      </trkpt>
      <trkpt lat="45.51735" lon="2.70077">
        <ele>998.9</ele>
        <time>2015-04-07T15:10:47.046Z</time>
      </trkpt>
      <trkpt lat="45.51735" lon="2.70061">
        <ele>998</ele>
        <time>2015-04-07T15:10:48.033Z</time>
      </trkpt>
      <trkpt lat="45.51734" lon="2.70043">
        <ele>996.9</ele>
        <time>2015-04-07T15:10:49.036Z</time>
      </trkpt>
      <trkpt lat="45.51731" lon="2.70027">
        <ele>996.1</ele>
        <time>2015-04-07T15:10:50.039Z</time>
      </trkpt>
      <trkpt lat="45.51728" lon="2.7001">
        <ele>995.6</ele>
        <time>2015-04-07T15:10:51.031Z</time>
      </trkpt>
      <trkpt lat="45.51723" lon="2.69995">
        <ele>996</ele>
        <time>2015-04-07T15:10:52.011Z</time>
      </trkpt>
      <trkpt lat="45.51714" lon="2.69983">
        <ele>996.4</ele>
        <time>2015-04-07T15:10:53.035Z</time>
      </trkpt>
      <trkpt lat="45.51704" lon="2.69972">
        <ele>996</ele>
        <time>2015-04-07T15:10:54.030Z</time>
      </trkpt>
      <trkpt lat="45.51695" lon="2.69963">
        <ele>995.6</ele>
        <time>2015-04-07T15:10:55.037Z</time>
      </trkpt>
      <trkpt lat="45.51683" lon="2.69952">
        <ele>995.6</ele>
        <time>2015-04-07T15:10:56.031Z</time>
      </trkpt>
      <trkpt lat="45.51673" lon="2.69944">
        <ele>995.9</ele>
        <time>2015-04-07T15:10:57.039Z</time>
      </trkpt>
      <trkpt lat="45.51665" lon="2.69936">
        <ele>996.3</ele>
        <time>2015-04-07T15:10:58.035Z</time>
      </trkpt>
      <trkpt lat="45.5166" lon="2.69922">
        <ele>996.3</ele>
        <time>2015-04-07T15:10:59.046Z</time>
      </trkpt>
      <trkpt lat="45.51656" lon="2.6991">
        <ele>995.7</ele>
        <time>2015-04-07T15:11:00.037Z</time>
      </trkpt>
      <trkpt lat="45.51657" lon="2.69897">
        <ele>994.7</ele>
        <time>2015-04-07T15:11:01.044Z</time>
      </trkpt>
      <trkpt lat="45.51659" lon="2.69883">
        <ele>993.6</ele>
        <time>2015-04-07T15:11:02.027Z</time>
      </trkpt>
      <trkpt lat="45.51665" lon="2.6987">
        <ele>992.8</ele>
        <time>2015-04-07T15:11:03.041Z</time>
      </trkpt>
      <trkpt lat="45.51671" lon="2.69857">
        <ele>992.2</ele>
        <time>2015-04-07T15:11:04.031Z</time>
      </trkpt>
      <trkpt lat="45.51679" lon="2.69843">
        <ele>992.2</ele>
        <time>2015-04-07T15:11:05.031Z</time>
      </trkpt>
      <trkpt lat="45.51687" lon="2.69831">
        <ele>992.3</ele>
        <time>2015-04-07T15:11:06.019Z</time>
      </trkpt>
      <trkpt lat="45.5169" lon="2.69818">
        <ele>992</ele>
        <time>2015-04-07T15:11:07.061Z</time>
      </trkpt>
      <trkpt lat="45.51688" lon="2.69803">
        <ele>991.9</ele>
        <time>2015-04-07T15:11:08.039Z</time>
      </trkpt>
      <trkpt lat="45.51684" lon="2.69792">
        <ele>991.8</ele>
        <time>2015-04-07T15:11:09.044Z</time>
      </trkpt>
      <trkpt lat="45.51675" lon="2.69783">
        <ele>991.7</ele>
        <time>2015-04-07T15:11:10.028Z</time>
      </trkpt>
      <trkpt lat="45.51666" lon="2.69778">
        <ele>991.9</ele>
        <time>2015-04-07T15:11:11.030Z</time>
      </trkpt>
      <trkpt lat="45.51657" lon="2.69774">
        <ele>991.9</ele>
        <time>2015-04-07T15:11:12.028Z</time>
      </trkpt>
      <trkpt lat="45.51648" lon="2.69772">
        <ele>991.9</ele>
        <time>2015-04-07T15:11:13.035Z</time>
      </trkpt>
      <trkpt lat="45.51637" lon="2.69767">
        <ele>991.5</ele>
        <time>2015-04-07T15:11:14.028Z</time>
      </trkpt>
      <trkpt lat="45.51629" lon="2.69757">
        <ele>991.1</ele>
        <time>2015-04-07T15:11:15.031Z</time>
      </trkpt>
      <trkpt lat="45.51627" lon="2.69743">
        <ele>991</ele>
        <time>2015-04-07T15:11:16.049Z</time>
      </trkpt>
      <trkpt lat="45.51628" lon="2.69729">
        <ele>990.8</ele>
        <time>2015-04-07T15:11:17.028Z</time>
      </trkpt>
      <trkpt lat="45.51632" lon="2.69715">
        <ele>990.7</ele>
        <time>2015-04-07T15:11:18.029Z</time>
      </trkpt>
      <trkpt lat="45.51636" lon="2.69702">
        <ele>990.7</ele>
        <time>2015-04-07T15:11:19.031Z</time>
      </trkpt>
      <trkpt lat="45.51637" lon="2.69689">
        <ele>990.3</ele>
        <time>2015-04-07T15:11:20.037Z</time>
      </trkpt>
      <trkpt lat="45.51634" lon="2.69675">
        <ele>990</ele>
        <time>2015-04-07T15:11:21.027Z</time>
      </trkpt>
      <trkpt lat="45.5163" lon="2.69661">
        <ele>989.7</ele>
        <time>2015-04-07T15:11:22.025Z</time>
      </trkpt>
      <trkpt lat="45.51621" lon="2.69648">
        <ele>989.3</ele>
        <time>2015-04-07T15:11:23.039Z</time>
      </trkpt>
      <trkpt lat="45.51612" lon="2.69636">
        <ele>989.3</ele>
        <time>2015-04-07T15:11:24.030Z</time>
      </trkpt>
      <trkpt lat="45.51603" lon="2.69626">
        <ele>989.8</ele>
        <time>2015-04-07T15:11:25.028Z</time>
      </trkpt>
      <trkpt lat="45.51592" lon="2.69619">
        <ele>990.2</ele>
        <time>2015-04-07T15:11:26.043Z</time>
      </trkpt>
      <trkpt lat="45.5158" lon="2.69618">
        <ele>990.6</ele>
        <time>2015-04-07T15:11:27.039Z</time>
      </trkpt>
      <trkpt lat="45.51569" lon="2.6962">
        <ele>991</ele>
        <time>2015-04-07T15:11:28.033Z</time>
      </trkpt>
      <trkpt lat="45.51557" lon="2.69625">
        <ele>991.2</ele>
        <time>2015-04-07T15:11:29.030Z</time>
      </trkpt>
      <trkpt lat="45.51545" lon="2.69631">
        <ele>991.3</ele>
        <time>2015-04-07T15:11:30.040Z</time>
      </trkpt>
      <trkpt lat="45.51532" lon="2.69637">
        <ele>991.7</ele>
        <time>2015-04-07T15:11:31.020Z</time>
      </trkpt>
      <trkpt lat="45.51519" lon="2.69644">
        <ele>992.3</ele>
        <time>2015-04-07T15:11:32.018Z</time>
      </trkpt>
      <trkpt lat="45.51507" lon="2.69649">
        <ele>992.9</ele>
        <time>2015-04-07T15:11:33.024Z</time>
      </trkpt>
      <trkpt lat="45.51494" lon="2.69654">
        <ele>993.7</ele>
        <time>2015-04-07T15:11:34.023Z</time>
      </trkpt>
      <trkpt lat="45.51482" lon="2.69657">
        <ele>994.8</ele>
        <time>2015-04-07T15:11:35.028Z</time>
      </trkpt>
      <trkpt lat="45.51469" lon="2.69653">
        <ele>996.1</ele>
        <time>2015-04-07T15:11:36.028Z</time>
      </trkpt>
      <trkpt lat="45.51458" lon="2.69649">
        <ele>997.2</ele>
        <time>2015-04-07T15:11:37.040Z</time>
      </trkpt>
      <trkpt lat="45.51446" lon="2.69645">
        <ele>998.2</ele>
        <time>2015-04-07T15:11:38.038Z</time>
      </trkpt>
      <trkpt lat="45.51433" lon="2.69644">
        <ele>999.3</ele>
        <time>2015-04-07T15:11:39.030Z</time>
      </trkpt>
      <trkpt lat="45.51422" lon="2.69645">
        <ele>999.9</ele>
        <time>2015-04-07T15:11:40.035Z</time>
      </trkpt>
      <trkpt lat="45.5141" lon="2.69647">
        <ele>1000.7</ele>
        <time>2015-04-07T15:11:41.029Z</time>
      </trkpt>
      <trkpt lat="45.51398" lon="2.6965">
        <ele>1001.7</ele>
        <time>2015-04-07T15:11:42.036Z</time>
      </trkpt>
      <trkpt lat="45.51386" lon="2.69652">
        <ele>1002.5</ele>
        <time>2015-04-07T15:11:43.029Z</time>
      </trkpt>
      <trkpt lat="45.51375" lon="2.69655">
        <ele>1003.2</ele>
        <time>2015-04-07T15:11:44.037Z</time>
      </trkpt>
      <trkpt lat="45.51364" lon="2.69658">
        <ele>1003.9</ele>
        <time>2015-04-07T15:11:45.027Z</time>
      </trkpt>
      <trkpt lat="45.51354" lon="2.69664">
        <ele>1004.6</ele>
        <time>2015-04-07T15:11:46.027Z</time>
      </trkpt>
      <trkpt lat="45.51346" lon="2.69674">
        <ele>1005</ele>
        <time>2015-04-07T15:11:47.027Z</time>
      </trkpt>
      <trkpt lat="45.51338" lon="2.69683">
        <ele>1004.8</ele>
        <time>2015-04-07T15:11:48.033Z</time>
      </trkpt>
      <trkpt lat="45.5133" lon="2.69693">
        <ele>1004.8</ele>
        <time>2015-04-07T15:11:49.027Z</time>
      </trkpt>
      <trkpt lat="45.51321" lon="2.69702">
        <ele>1004.7</ele>
        <time>2015-04-07T15:11:50.033Z</time>
      </trkpt>
      <trkpt lat="45.51313" lon="2.69711">
        <ele>1005.3</ele>
        <time>2015-04-07T15:11:51.037Z</time>
      </trkpt>
      <trkpt lat="45.51307" lon="2.69722">
        <ele>1005.5</ele>
        <time>2015-04-07T15:11:52.028Z</time>
      </trkpt>
      <trkpt lat="45.513" lon="2.69732">
        <ele>1006.6</ele>
        <time>2015-04-07T15:11:53.036Z</time>
      </trkpt>
      <trkpt lat="45.51292" lon="2.69738">
        <ele>1007.2</ele>
        <time>2015-04-07T15:11:54.034Z</time>
      </trkpt>
      <trkpt lat="45.51283" lon="2.69742">
        <ele>1007.6</ele>
        <time>2015-04-07T15:11:55.031Z</time>
      </trkpt>
      <trkpt lat="45.51274" lon="2.69741">
        <ele>1008.1</ele>
        <time>2015-04-07T15:11:56.035Z</time>
      </trkpt>
      <trkpt lat="45.51267" lon="2.69737">
        <ele>1008.5</ele>
        <time>2015-04-07T15:11:57.036Z</time>
      </trkpt>
      <trkpt lat="45.5126" lon="2.69728">
        <ele>1008.6</ele>
        <time>2015-04-07T15:11:58.028Z</time>
      </trkpt>
      <trkpt lat="45.51253" lon="2.69716">
        <ele>1008.2</ele>
        <time>2015-04-07T15:11:59.028Z</time>
      </trkpt>
      <trkpt lat="45.51247" lon="2.69703">
        <ele>1008.6</ele>
        <time>2015-04-07T15:12:00.037Z</time>
      </trkpt>
      <trkpt lat="45.5124" lon="2.69689">
        <ele>1009</ele>
        <time>2015-04-07T15:12:01.033Z</time>
      </trkpt>
      <trkpt lat="45.51234" lon="2.69678">
        <ele>1009.1</ele>
        <time>2015-04-07T15:12:02.036Z</time>
      </trkpt>
      <trkpt lat="45.51224" lon="2.69673">
        <ele>1009.3</ele>
        <time>2015-04-07T15:12:03.046Z</time>
      </trkpt>
      <trkpt lat="45.51216" lon="2.69672">
        <ele>1009.9</ele>
        <time>2015-04-07T15:12:04.031Z</time>
      </trkpt>
      <trkpt lat="45.51206" lon="2.69671">
        <ele>1010.9</ele>
        <time>2015-04-07T15:12:05.030Z</time>
      </trkpt>
      <trkpt lat="45.51198" lon="2.69671">
        <ele>1012.1</ele>
        <time>2015-04-07T15:12:06.031Z</time>
      </trkpt>
      <trkpt lat="45.51192" lon="2.69666">
        <ele>1013</ele>
        <time>2015-04-07T15:12:07.029Z</time>
      </trkpt>
      <trkpt lat="45.51187" lon="2.69658">
        <ele>1014</ele>
        <time>2015-04-07T15:12:08.028Z</time>
      </trkpt>
      <trkpt lat="45.51183" lon="2.69648">
        <ele>1014.8</ele>
        <time>2015-04-07T15:12:09.023Z</time>
      </trkpt>
      <trkpt lat="45.51182" lon="2.69637">
        <ele>1014.8</ele>
        <time>2015-04-07T15:12:10.029Z</time>
      </trkpt>
      <trkpt lat="45.51184" lon="2.69628">
        <ele>1014.7</ele>
        <time>2015-04-07T15:12:11.033Z</time>
      </trkpt>
      <trkpt lat="45.51189" lon="2.6962">
        <ele>1014.9</ele>
        <time>2015-04-07T15:12:12.027Z</time>
      </trkpt>
      <trkpt lat="45.51195" lon="2.69611">
        <ele>1014.7</ele>
        <time>2015-04-07T15:12:13.040Z</time>
      </trkpt>
      <trkpt lat="45.51201" lon="2.69602">
        <ele>1014.5</ele>
        <time>2015-04-07T15:12:14.032Z</time>
      </trkpt>
      <trkpt lat="45.51209" lon="2.69593">
        <ele>1015.1</ele>
        <time>2015-04-07T15:12:15.034Z</time>
      </trkpt>
      <trkpt lat="45.51219" lon="2.69583">
        <ele>1016.5</ele>
        <time>2015-04-07T15:12:16.027Z</time>
      </trkpt>
      <trkpt lat="45.51228" lon="2.69574">
        <ele>1018.5</ele>
        <time>2015-04-07T15:12:17.032Z</time>
      </trkpt>
      <trkpt lat="45.51236" lon="2.69565">
        <ele>1020.7</ele>
        <time>2015-04-07T15:12:18.037Z</time>
      </trkpt>
      <trkpt lat="45.51243" lon="2.69553">
        <ele>1021.8</ele>
        <time>2015-04-07T15:12:19.034Z</time>
      </trkpt>
      <trkpt lat="45.51246" lon="2.69541">
        <ele>1021.5</ele>
        <time>2015-04-07T15:12:20.033Z</time>
      </trkpt>
      <trkpt lat="45.51246" lon="2.69529">
        <ele>1021.2</ele>
        <time>2015-04-07T15:12:21.033Z</time>
      </trkpt>
      <trkpt lat="45.51242" lon="2.69517">
        <ele>1021</ele>
        <time>2015-04-07T15:12:22.034Z</time>
      </trkpt>
      <trkpt lat="45.51236" lon="2.69507">
        <ele>1021.1</ele>
        <time>2015-04-07T15:12:23.029Z</time>
      </trkpt>
      <trkpt lat="45.51229" lon="2.69496">
        <ele>1021.3</ele>
        <time>2015-04-07T15:12:24.031Z</time>
      </trkpt>
      <trkpt lat="45.51221" lon="2.69486">
        <ele>1021.6</ele>
        <time>2015-04-07T15:12:25.035Z</time>
      </trkpt>
      <trkpt lat="45.51212" lon="2.69476">
        <ele>1022</ele>
        <time>2015-04-07T15:12:26.030Z</time>
      </trkpt>
      <trkpt lat="45.51204" lon="2.69467">
        <ele>1022.4</ele>
        <time>2015-04-07T15:12:27.031Z</time>
      </trkpt>
      <trkpt lat="45.51194" lon="2.69458">
        <ele>1022.8</ele>
        <time>2015-04-07T15:12:28.042Z</time>
      </trkpt>
      <trkpt lat="45.51185" lon="2.69448">
        <ele>1023.1</ele>
        <time>2015-04-07T15:12:29.029Z</time>
      </trkpt>
      <trkpt lat="45.51175" lon="2.69438">
        <ele>1023.4</ele>
        <time>2015-04-07T15:12:30.024Z</time>
      </trkpt>
      <trkpt lat="45.51164" lon="2.69427">
        <ele>1023.9</ele>
        <time>2015-04-07T15:12:31.024Z</time>
      </trkpt>
      <trkpt lat="45.51153" lon="2.69417">
        <ele>1024.7</ele>
        <time>2015-04-07T15:12:32.024Z</time>
      </trkpt>
      <trkpt lat="45.51142" lon="2.69406">
        <ele>1025.8</ele>
        <time>2015-04-07T15:12:33.021Z</time>
      </trkpt>
      <trkpt lat="45.51132" lon="2.69395">
        <ele>1027.2</ele>
        <time>2015-04-07T15:12:34.018Z</time>
      </trkpt>
      <trkpt lat="45.51123" lon="2.69384">
        <ele>1029</ele>
        <time>2015-04-07T15:12:35.042Z</time>
      </trkpt>
      <trkpt lat="45.51116" lon="2.6937">
        <ele>1030.7</ele>
        <time>2015-04-07T15:12:36.042Z</time>
      </trkpt>
      <trkpt lat="45.5111" lon="2.69356">
        <ele>1032.5</ele>
        <time>2015-04-07T15:12:37.031Z</time>
      </trkpt>
      <trkpt lat="45.51103" lon="2.69341">
        <ele>1034.3</ele>
        <time>2015-04-07T15:12:38.038Z</time>
      </trkpt>
      <trkpt lat="45.51096" lon="2.69331">
        <ele>1035.4</ele>
        <time>2015-04-07T15:12:39.039Z</time>
      </trkpt>
      <trkpt lat="45.51087" lon="2.69321">
        <ele>1036.3</ele>
        <time>2015-04-07T15:12:40.036Z</time>
      </trkpt>
      <trkpt lat="45.51078" lon="2.69316">
        <ele>1037.2</ele>
        <time>2015-04-07T15:12:41.038Z</time>
      </trkpt>
      <trkpt lat="45.51069" lon="2.69311">
        <ele>1038</ele>
        <time>2015-04-07T15:12:42.028Z</time>
      </trkpt>
      <trkpt lat="45.51059" lon="2.69305">
        <ele>1038.7</ele>
        <time>2015-04-07T15:12:43.028Z</time>
      </trkpt>
      <trkpt lat="45.5105" lon="2.69299">
        <ele>1039.3</ele>
        <time>2015-04-07T15:12:44.028Z</time>
      </trkpt>
      <trkpt lat="45.51042" lon="2.69293">
        <ele>1039.5</ele>
        <time>2015-04-07T15:12:45.028Z</time>
      </trkpt>
      <trkpt lat="45.51033" lon="2.69288">
        <ele>1039.6</ele>
        <time>2015-04-07T15:12:46.034Z</time>
      </trkpt>
      <trkpt lat="45.51023" lon="2.69287">
        <ele>1039.6</ele>
        <time>2015-04-07T15:12:47.042Z</time>
      </trkpt>
      <trkpt lat="45.51014" lon="2.69291">
        <ele>1039.8</ele>
        <time>2015-04-07T15:12:48.036Z</time>
      </trkpt>
      <trkpt lat="45.51005" lon="2.69296">
        <ele>1039.6</ele>
        <time>2015-04-07T15:12:49.035Z</time>
      </trkpt>
      <trkpt lat="45.50998" lon="2.69304">
        <ele>1040.1</ele>
        <time>2015-04-07T15:12:50.032Z</time>
      </trkpt>
      <trkpt lat="45.5099" lon="2.69309">
        <ele>1040.5</ele>
        <time>2015-04-07T15:12:51.037Z</time>
      </trkpt>
      <trkpt lat="45.50981" lon="2.69311">
        <ele>1041</ele>
        <time>2015-04-07T15:12:52.043Z</time>
      </trkpt>
      <trkpt lat="45.50971" lon="2.6931">
        <ele>1041.7</ele>
        <time>2015-04-07T15:12:53.041Z</time>
      </trkpt>
      <trkpt lat="45.50962" lon="2.69307">
        <ele>1042.9</ele>
        <time>2015-04-07T15:12:54.036Z</time>
      </trkpt>
      <trkpt lat="45.50954" lon="2.69303">
        <ele>1043.9</ele>
        <time>2015-04-07T15:12:55.033Z</time>
      </trkpt>
      <trkpt lat="45.50944" lon="2.69299">
        <ele>1044.8</ele>
        <time>2015-04-07T15:12:56.041Z</time>
      </trkpt>
      <trkpt lat="45.50934" lon="2.69296">
        <ele>1045.6</ele>
        <time>2015-04-07T15:12:57.035Z</time>
      </trkpt>
      <trkpt lat="45.50924" lon="2.69296">
        <ele>1046.6</ele>
        <time>2015-04-07T15:12:58.023Z</time>
      </trkpt>
      <trkpt lat="45.50915" lon="2.693">
        <ele>1047.4</ele>
        <time>2015-04-07T15:12:59.031Z</time>
      </trkpt>
      <trkpt lat="45.50904" lon="2.69305">
        <ele>1048.1</ele>
        <time>2015-04-07T15:13:00.030Z</time>
      </trkpt>
      <trkpt lat="45.50893" lon="2.6931">
        <ele>1048.5</ele>
        <time>2015-04-07T15:13:01.030Z</time>
      </trkpt>
      <trkpt lat="45.50882" lon="2.69316">
        <ele>1048.9</ele>
        <time>2015-04-07T15:13:02.026Z</time>
      </trkpt>
      <trkpt lat="45.50871" lon="2.69323">
        <ele>1049.3</ele>
        <time>2015-04-07T15:13:03.052Z</time>
      </trkpt>
      <trkpt lat="45.50862" lon="2.69331">
        <ele>1049.4</ele>
        <time>2015-04-07T15:13:04.037Z</time>
      </trkpt>
      <trkpt lat="45.50853" lon="2.6934">
        <ele>1049.5</ele>
        <time>2015-04-07T15:13:05.031Z</time>
      </trkpt>
      <trkpt lat="45.50845" lon="2.69352">
        <ele>1049.6</ele>
        <time>2015-04-07T15:13:06.038Z</time>
      </trkpt>
      <trkpt lat="45.50838" lon="2.69365">
        <ele>1049.8</ele>
        <time>2015-04-07T15:13:07.033Z</time>
      </trkpt>
      <trkpt lat="45.5083" lon="2.69378">
        <ele>1050</ele>
        <time>2015-04-07T15:13:08.046Z</time>
      </trkpt>
      <trkpt lat="45.50823" lon="2.69393">
        <ele>1050.1</ele>
        <time>2015-04-07T15:13:09.021Z</time>
      </trkpt>
      <trkpt lat="45.50818" lon="2.69409">
        <ele>1050.6</ele>
        <time>2015-04-07T15:13:10.030Z</time>
      </trkpt>
      <trkpt lat="45.50814" lon="2.69426">
        <ele>1050.6</ele>
        <time>2015-04-07T15:13:11.032Z</time>
      </trkpt>
      <trkpt lat="45.50809" lon="2.69444">
        <ele>1050.8</ele>
        <time>2015-04-07T15:13:12.039Z</time>
      </trkpt>
      <trkpt lat="45.50804" lon="2.69459">
        <ele>1051</ele>
        <time>2015-04-07T15:13:13.034Z</time>
      </trkpt>
      <trkpt lat="45.50799" lon="2.69474">
        <ele>1050.8</ele>
        <time>2015-04-07T15:13:14.027Z</time>
      </trkpt>
      <trkpt lat="45.50794" lon="2.69487">
        <ele>1051.4</ele>
        <time>2015-04-07T15:13:15.037Z</time>
      </trkpt>
      <trkpt lat="45.50789" lon="2.69499">
        <ele>1051.9</ele>
        <time>2015-04-07T15:13:16.045Z</time>
      </trkpt>
      <trkpt lat="45.5078" lon="2.69507">
        <ele>1052.4</ele>
        <time>2015-04-07T15:13:17.044Z</time>
      </trkpt>
      <trkpt lat="45.5077" lon="2.69512">
        <ele>1052.4</ele>
        <time>2015-04-07T15:13:18.039Z</time>
      </trkpt>
      <trkpt lat="45.5076" lon="2.69514">
        <ele>1052.1</ele>
        <time>2015-04-07T15:13:19.027Z</time>
      </trkpt>
      <trkpt lat="45.5075" lon="2.69514">
        <ele>1051.8</ele>
        <time>2015-04-07T15:13:20.044Z</time>
      </trkpt>
      <trkpt lat="45.50741" lon="2.69508">
        <ele>1051.6</ele>
        <time>2015-04-07T15:13:21.030Z</time>
      </trkpt>
      <trkpt lat="45.5073" lon="2.695">
        <ele>1051.5</ele>
        <time>2015-04-07T15:13:22.029Z</time>
      </trkpt>
      <trkpt lat="45.5072" lon="2.69492">
        <ele>1051.2</ele>
        <time>2015-04-07T15:13:23.039Z</time>
      </trkpt>
      <trkpt lat="45.50709" lon="2.69484">
        <ele>1050.9</ele>
        <time>2015-04-07T15:13:24.034Z</time>
      </trkpt>
      <trkpt lat="45.50698" lon="2.69475">
        <ele>1051</ele>
        <time>2015-04-07T15:13:25.036Z</time>
      </trkpt>
      <trkpt lat="45.50686" lon="2.69467">
        <ele>1051.1</ele>
        <time>2015-04-07T15:13:26.030Z</time>
      </trkpt>
      <trkpt lat="45.50676" lon="2.69458">
        <ele>1051.2</ele>
        <time>2015-04-07T15:13:27.038Z</time>
      </trkpt>
      <trkpt lat="45.50667" lon="2.69444">
        <ele>1051.3</ele>
        <time>2015-04-07T15:13:28.030Z</time>
      </trkpt>
      <trkpt lat="45.50657" lon="2.69429">
        <ele>1051.7</ele>
        <time>2015-04-07T15:13:29.031Z</time>
      </trkpt>
      <trkpt lat="45.50648" lon="2.69414">
        <ele>1052.2</ele>
        <time>2015-04-07T15:13:30.031Z</time>
      </trkpt>
      <trkpt lat="45.50639" lon="2.69398">
        <ele>1052.3</ele>
        <time>2015-04-07T15:13:31.019Z</time>
      </trkpt>
      <trkpt lat="45.5063" lon="2.69382">
        <ele>1052.8</ele>
        <time>2015-04-07T15:13:32.030Z</time>
      </trkpt>
      <trkpt lat="45.50622" lon="2.69368">
        <ele>1053.4</ele>
        <time>2015-04-07T15:13:33.032Z</time>
      </trkpt>
      <trkpt lat="45.50613" lon="2.69359">
        <ele>1054.2</ele>
        <time>2015-04-07T15:13:34.028Z</time>
      </trkpt>
      <trkpt lat="45.50604" lon="2.69353">
        <ele>1054.8</ele>
        <time>2015-04-07T15:13:35.028Z</time>
      </trkpt>
      <trkpt lat="45.50595" lon="2.69351">
        <ele>1055.2</ele>
        <time>2015-04-07T15:13:36.034Z</time>
      </trkpt>
      <trkpt lat="45.50586" lon="2.69353">
        <ele>1055.9</ele>
        <time>2015-04-07T15:13:37.038Z</time>
      </trkpt>
      <trkpt lat="45.50577" lon="2.6936">
        <ele>1056.5</ele>
        <time>2015-04-07T15:13:38.043Z</time>
      </trkpt>
      <trkpt lat="45.50568" lon="2.69368">
        <ele>1057.6</ele>
        <time>2015-04-07T15:13:39.033Z</time>
      </trkpt>
      <trkpt lat="45.50559" lon="2.69378">
        <ele>1058.6</ele>
        <time>2015-04-07T15:13:40.030Z</time>
      </trkpt>
      <trkpt lat="45.5055" lon="2.69388">
        <ele>1059.7</ele>
        <time>2015-04-07T15:13:41.027Z</time>
      </trkpt>
      <trkpt lat="45.50542" lon="2.69398">
        <ele>1060.8</ele>
        <time>2015-04-07T15:13:42.034Z</time>
      </trkpt>
      <trkpt lat="45.50534" lon="2.69408">
        <ele>1061.5</ele>
        <time>2015-04-07T15:13:43.040Z</time>
      </trkpt>
      <trkpt lat="45.50527" lon="2.69419">
        <ele>1061.9</ele>
        <time>2015-04-07T15:13:44.033Z</time>
      </trkpt>
      <trkpt lat="45.50519" lon="2.6943">
        <ele>1062.3</ele>
        <time>2015-04-07T15:13:45.032Z</time>
      </trkpt>
      <trkpt lat="45.50508" lon="2.69435">
        <ele>1062.8</ele>
        <time>2015-04-07T15:13:46.026Z</time>
      </trkpt>
      <trkpt lat="45.50498" lon="2.69436">
        <ele>1063.2</ele>
        <time>2015-04-07T15:13:47.036Z</time>
      </trkpt>
      <trkpt lat="45.50488" lon="2.69434">
        <ele>1062.7</ele>
        <time>2015-04-07T15:13:48.033Z</time>
      </trkpt>
      <trkpt lat="45.50481" lon="2.69423">
        <ele>1062.4</ele>
        <time>2015-04-07T15:13:49.040Z</time>
      </trkpt>
      <trkpt lat="45.50476" lon="2.69409">
        <ele>1062.1</ele>
        <time>2015-04-07T15:13:50.041Z</time>
      </trkpt>
      <trkpt lat="45.50471" lon="2.69395">
        <ele>1061.8</ele>
        <time>2015-04-07T15:13:51.037Z</time>
      </trkpt>
      <trkpt lat="45.50468" lon="2.6938">
        <ele>1060.9</ele>
        <time>2015-04-07T15:13:52.037Z</time>
      </trkpt>
      <trkpt lat="45.50468" lon="2.69361">
        <ele>1060</ele>
        <time>2015-04-07T15:13:53.040Z</time>
      </trkpt>
      <trkpt lat="45.50467" lon="2.6934">
        <ele>1059.2</ele>
        <time>2015-04-07T15:13:54.029Z</time>
      </trkpt>
      <trkpt lat="45.50467" lon="2.69323">
        <ele>1058.8</ele>
        <time>2015-04-07T15:13:55.041Z</time>
      </trkpt>
      <trkpt lat="45.50466" lon="2.69305">
        <ele>1058.2</ele>
        <time>2015-04-07T15:13:56.046Z</time>
      </trkpt>
      <trkpt lat="45.50465" lon="2.69289">
        <ele>1057.3</ele>
        <time>2015-04-07T15:13:57.056Z</time>
      </trkpt>
      <trkpt lat="45.50463" lon="2.69271">
        <ele>1056.5</ele>
        <time>2015-04-07T15:13:58.052Z</time>
      </trkpt>
      <trkpt lat="45.5046" lon="2.69252">
        <ele>1055.3</ele>
        <time>2015-04-07T15:13:59.039Z</time>
      </trkpt>
      <trkpt lat="45.50456" lon="2.69233">
        <ele>1054.5</ele>
        <time>2015-04-07T15:14:00.038Z</time>
      </trkpt>
      <trkpt lat="45.50452" lon="2.69215">
        <ele>1053.6</ele>
        <time>2015-04-07T15:14:01.039Z</time>
      </trkpt>
      <trkpt lat="45.50447" lon="2.69197">
        <ele>1052.3</ele>
        <time>2015-04-07T15:14:02.031Z</time>
      </trkpt>
      <trkpt lat="45.50441" lon="2.69177">
        <ele>1050.9</ele>
        <time>2015-04-07T15:14:03.038Z</time>
      </trkpt>
      <trkpt lat="45.50435" lon="2.69159">
        <ele>1049.3</ele>
        <time>2015-04-07T15:14:04.039Z</time>
      </trkpt>
      <trkpt lat="45.50429" lon="2.69141">
        <ele>1048</ele>
        <time>2015-04-07T15:14:05.030Z</time>
      </trkpt>
      <trkpt lat="45.50422" lon="2.69123">
        <ele>1046.9</ele>
        <time>2015-04-07T15:14:06.033Z</time>
      </trkpt>
      <trkpt lat="45.50414" lon="2.69105">
        <ele>1046.4</ele>
        <time>2015-04-07T15:14:07.030Z</time>
      </trkpt>
      <trkpt lat="45.50405" lon="2.69086">
        <ele>1046.1</ele>
        <time>2015-04-07T15:14:08.037Z</time>
      </trkpt>
      <trkpt lat="45.50396" lon="2.69068">
        <ele>1046.2</ele>
        <time>2015-04-07T15:14:09.046Z</time>
      </trkpt>
      <trkpt lat="45.50387" lon="2.69052">
        <ele>1046.1</ele>
        <time>2015-04-07T15:14:10.030Z</time>
      </trkpt>
      <trkpt lat="45.50379" lon="2.69037">
        <ele>1045.8</ele>
        <time>2015-04-07T15:14:11.030Z</time>
      </trkpt>
      <trkpt lat="45.5037" lon="2.6902">
        <ele>1045.5</ele>
        <time>2015-04-07T15:14:12.045Z</time>
      </trkpt>
      <trkpt lat="45.50362" lon="2.69007">
        <ele>1044.7</ele>
        <time>2015-04-07T15:14:13.039Z</time>
      </trkpt>
      <trkpt lat="45.50355" lon="2.68994">
        <ele>1043.8</ele>
        <time>2015-04-07T15:14:14.028Z</time>
      </trkpt>
      <trkpt lat="45.50348" lon="2.6898">
        <ele>1043</ele>
        <time>2015-04-07T15:14:15.040Z</time>
      </trkpt>
      <trkpt lat="45.5034" lon="2.68967">
        <ele>1042.4</ele>
        <time>2015-04-07T15:14:16.027Z</time>
      </trkpt>
      <trkpt lat="45.50333" lon="2.68953">
        <ele>1041.8</ele>
        <time>2015-04-07T15:14:17.046Z</time>
      </trkpt>
      <trkpt lat="45.50323" lon="2.68944">
        <ele>1040.9</ele>
        <time>2015-04-07T15:14:18.044Z</time>
      </trkpt>
      <trkpt lat="45.50312" lon="2.68938">
        <ele>1040.1</ele>
        <time>2015-04-07T15:14:19.028Z</time>
      </trkpt>
      <trkpt lat="45.50301" lon="2.68934">
        <ele>1039.3</ele>
        <time>2015-04-07T15:14:20.028Z</time>
      </trkpt>
      <trkpt lat="45.50289" lon="2.68934">
        <ele>1039.1</ele>
        <time>2015-04-07T15:14:21.039Z</time>
      </trkpt>
      <trkpt lat="45.50277" lon="2.68934">
        <ele>1039.3</ele>
        <time>2015-04-07T15:14:22.056Z</time>
      </trkpt>
      <trkpt lat="45.50267" lon="2.68937">
        <ele>1039.3</ele>
        <time>2015-04-07T15:14:23.034Z</time>
      </trkpt>
      <trkpt lat="45.50257" lon="2.68944">
        <ele>1039.9</ele>
        <time>2015-04-07T15:14:24.030Z</time>
      </trkpt>
      <trkpt lat="45.50249" lon="2.68955">
        <ele>1040.3</ele>
        <time>2015-04-07T15:14:25.044Z</time>
      </trkpt>
      <trkpt lat="45.50242" lon="2.68966">
        <ele>1041</ele>
        <time>2015-04-07T15:14:26.030Z</time>
      </trkpt>
      <trkpt lat="45.50236" lon="2.68977">
        <ele>1041.3</ele>
        <time>2015-04-07T15:14:27.036Z</time>
      </trkpt>
      <trkpt lat="45.50231" lon="2.68989">
        <ele>1041.6</ele>
        <time>2015-04-07T15:14:28.024Z</time>
      </trkpt>
      <trkpt lat="45.50226" lon="2.69002">
        <ele>1041.4</ele>
        <time>2015-04-07T15:14:29.033Z</time>
      </trkpt>
      <trkpt lat="45.50219" lon="2.69015">
        <ele>1041.5</ele>
        <time>2015-04-07T15:14:30.019Z</time>
      </trkpt>
      <trkpt lat="45.50209" lon="2.69026">
        <ele>1042.4</ele>
        <time>2015-04-07T15:14:31.026Z</time>
      </trkpt>
      <trkpt lat="45.502" lon="2.69035">
        <ele>1043.2</ele>
        <time>2015-04-07T15:14:32.019Z</time>
      </trkpt>
      <trkpt lat="45.50191" lon="2.69045">
        <ele>1044</ele>
        <time>2015-04-07T15:14:33.026Z</time>
      </trkpt>
      <trkpt lat="45.50181" lon="2.69055">
        <ele>1045</ele>
        <time>2015-04-07T15:14:34.029Z</time>
      </trkpt>
      <trkpt lat="45.50173" lon="2.69065">
        <ele>1046.2</ele>
        <time>2015-04-07T15:14:35.035Z</time>
      </trkpt>
      <trkpt lat="45.50166" lon="2.69073">
        <ele>1047.2</ele>
        <time>2015-04-07T15:14:36.034Z</time>
      </trkpt>
      <trkpt lat="45.5016" lon="2.69081">
        <ele>1048</ele>
        <time>2015-04-07T15:14:37.041Z</time>
      </trkpt>
      <trkpt lat="45.50153" lon="2.6909">
        <ele>1049.1</ele>
        <time>2015-04-07T15:14:38.034Z</time>
      </trkpt>
      <trkpt lat="45.50146" lon="2.69099">
        <ele>1049.8</ele>
        <time>2015-04-07T15:14:39.035Z</time>
      </trkpt>
      <trkpt lat="45.50139" lon="2.69107">
        <ele>1049.8</ele>
        <time>2015-04-07T15:14:40.022Z</time>
      </trkpt>
      <trkpt lat="45.50133" lon="2.69116">
        <ele>1050.1</ele>
        <time>2015-04-07T15:14:41.033Z</time>
      </trkpt>
      <trkpt lat="45.50126" lon="2.69125">
        <ele>1050.4</ele>
        <time>2015-04-07T15:14:42.030Z</time>
      </trkpt>
      <trkpt lat="45.50118" lon="2.69135">
        <ele>1050.9</ele>
        <time>2015-04-07T15:14:43.038Z</time>
      </trkpt>
      <trkpt lat="45.50109" lon="2.6914">
        <ele>1051.6</ele>
        <time>2015-04-07T15:14:44.036Z</time>
      </trkpt>
      <trkpt lat="45.50097" lon="2.69146">
        <ele>1052.1</ele>
        <time>2015-04-07T15:14:45.037Z</time>
      </trkpt>
      <trkpt lat="45.50085" lon="2.69152">
        <ele>1052.4</ele>
        <time>2015-04-07T15:14:46.030Z</time>
      </trkpt>
      <trkpt lat="45.50074" lon="2.6916">
        <ele>1052.8</ele>
        <time>2015-04-07T15:14:47.052Z</time>
      </trkpt>
      <trkpt lat="45.50063" lon="2.69172">
        <ele>1053.1</ele>
        <time>2015-04-07T15:14:48.030Z</time>
      </trkpt>
      <trkpt lat="45.50052" lon="2.69184">
        <ele>1053.4</ele>
        <time>2015-04-07T15:14:49.033Z</time>
      </trkpt>
      <trkpt lat="45.50041" lon="2.69196">
        <ele>1053.8</ele>
        <time>2015-04-07T15:14:50.035Z</time>
      </trkpt>
      <trkpt lat="45.50031" lon="2.69207">
        <ele>1054.9</ele>
        <time>2015-04-07T15:14:51.041Z</time>
      </trkpt>
      <trkpt lat="45.5002" lon="2.69219">
        <ele>1055.8</ele>
        <time>2015-04-07T15:14:52.055Z</time>
      </trkpt>
      <trkpt lat="45.50009" lon="2.69231">
        <ele>1056.9</ele>
        <time>2015-04-07T15:14:53.052Z</time>
      </trkpt>
      <trkpt lat="45.49999" lon="2.69242">
        <ele>1058.5</ele>
        <time>2015-04-07T15:14:54.026Z</time>
      </trkpt>
      <trkpt lat="45.49988" lon="2.69255">
        <ele>1060.1</ele>
        <time>2015-04-07T15:14:55.037Z</time>
      </trkpt>
      <trkpt lat="45.49977" lon="2.69267">
        <ele>1061.5</ele>
        <time>2015-04-07T15:14:56.031Z</time>
      </trkpt>
      <trkpt lat="45.49966" lon="2.69278">
        <ele>1063</ele>
        <time>2015-04-07T15:14:57.033Z</time>
      </trkpt>
      <trkpt lat="45.49957" lon="2.69289">
        <ele>1064.4</ele>
        <time>2015-04-07T15:14:58.026Z</time>
      </trkpt>
      <trkpt lat="45.49947" lon="2.69298">
        <ele>1065.1</ele>
        <time>2015-04-07T15:14:59.037Z</time>
      </trkpt>
      <trkpt lat="45.49938" lon="2.69304">
        <ele>1065.6</ele>
        <time>2015-04-07T15:15:00.041Z</time>
      </trkpt>
      <trkpt lat="45.49929" lon="2.69305">
        <ele>1065.5</ele>
        <time>2015-04-07T15:15:01.038Z</time>
      </trkpt>
      <trkpt lat="45.49921" lon="2.69303">
        <ele>1065.4</ele>
        <time>2015-04-07T15:15:02.028Z</time>
      </trkpt>
      <trkpt lat="45.49912" lon="2.69296">
        <ele>1065.2</ele>
        <time>2015-04-07T15:15:03.043Z</time>
      </trkpt>
      <trkpt lat="45.49906" lon="2.69287">
        <ele>1064.9</ele>
        <time>2015-04-07T15:15:04.027Z</time>
      </trkpt>
      <trkpt lat="45.49904" lon="2.69278">
        <ele>1064.5</ele>
        <time>2015-04-07T15:15:05.044Z</time>
      </trkpt>
      <trkpt lat="45.49899" lon="2.69265">
        <ele>1064.1</ele>
        <time>2015-04-07T15:15:06.046Z</time>
      </trkpt>
      <trkpt lat="45.49894" lon="2.69255">
        <ele>1063.7</ele>
        <time>2015-04-07T15:15:07.037Z</time>
      </trkpt>
      <trkpt lat="45.49885" lon="2.69246">
        <ele>1063.8</ele>
        <time>2015-04-07T15:15:08.035Z</time>
      </trkpt>
      <trkpt lat="45.49876" lon="2.69241">
        <ele>1064.1</ele>
        <time>2015-04-07T15:15:09.036Z</time>
      </trkpt>
      <trkpt lat="45.49867" lon="2.6924">
        <ele>1064.3</ele>
        <time>2015-04-07T15:15:10.028Z</time>
      </trkpt>
      <trkpt lat="45.49858" lon="2.69244">
        <ele>1064.3</ele>
        <time>2015-04-07T15:15:11.031Z</time>
      </trkpt>
      <trkpt lat="45.49848" lon="2.69247">
        <ele>1064.5</ele>
        <time>2015-04-07T15:15:12.033Z</time>
      </trkpt>
      <trkpt lat="45.49839" lon="2.69248">
        <ele>1064.7</ele>
        <time>2015-04-07T15:15:13.041Z</time>
      </trkpt>
      <trkpt lat="45.4983" lon="2.69248">
        <ele>1065.1</ele>
        <time>2015-04-07T15:15:14.038Z</time>
      </trkpt>
      <trkpt lat="45.49821" lon="2.69243">
        <ele>1066.3</ele>
        <time>2015-04-07T15:15:15.029Z</time>
      </trkpt>
      <trkpt lat="45.49811" lon="2.69235">
        <ele>1067.1</ele>
        <time>2015-04-07T15:15:16.050Z</time>
      </trkpt>
      <trkpt lat="45.49803" lon="2.69227">
        <ele>1068.1</ele>
        <time>2015-04-07T15:15:17.049Z</time>
      </trkpt>
      <trkpt lat="45.49794" lon="2.6922">
        <ele>1068.9</ele>
        <time>2015-04-07T15:15:18.057Z</time>
      </trkpt>
      <trkpt lat="45.49785" lon="2.69219">
        <ele>1069.9</ele>
        <time>2015-04-07T15:15:19.028Z</time>
      </trkpt>
      <trkpt lat="45.49777" lon="2.69223">
        <ele>1070.6</ele>
        <time>2015-04-07T15:15:20.044Z</time>
      </trkpt>
      <trkpt lat="45.49769" lon="2.69232">
        <ele>1071</ele>
        <time>2015-04-07T15:15:21.035Z</time>
      </trkpt>
      <trkpt lat="45.49765" lon="2.69243">
        <ele>1071.1</ele>
        <time>2015-04-07T15:15:22.036Z</time>
      </trkpt>
      <trkpt lat="45.49761" lon="2.69254">
        <ele>1071</ele>
        <time>2015-04-07T15:15:23.035Z</time>
      </trkpt>
      <trkpt lat="45.49756" lon="2.69267">
        <ele>1071.1</ele>
        <time>2015-04-07T15:15:24.030Z</time>
      </trkpt>
      <trkpt lat="45.49751" lon="2.69279">
        <ele>1071.8</ele>
        <time>2015-04-07T15:15:25.038Z</time>
      </trkpt>
      <trkpt lat="45.49744" lon="2.69287">
        <ele>1072.7</ele>
        <time>2015-04-07T15:15:26.040Z</time>
      </trkpt>
      <trkpt lat="45.49736" lon="2.69296">
        <ele>1073.7</ele>
        <time>2015-04-07T15:15:27.036Z</time>
      </trkpt>
      <trkpt lat="45.49727" lon="2.69301">
        <ele>1074.6</ele>
        <time>2015-04-07T15:15:28.031Z</time>
      </trkpt>
      <trkpt lat="45.49717" lon="2.69306">
        <ele>1075</ele>
        <time>2015-04-07T15:15:29.021Z</time>
      </trkpt>
      <trkpt lat="45.49706" lon="2.6931">
        <ele>1076.2</ele>
        <time>2015-04-07T15:15:30.018Z</time>
      </trkpt>
      <trkpt lat="45.49695" lon="2.69312">
        <ele>1077.2</ele>
        <time>2015-04-07T15:15:31.024Z</time>
      </trkpt>
      <trkpt lat="45.49683" lon="2.69314">
        <ele>1078.3</ele>
        <time>2015-04-07T15:15:32.021Z</time>
      </trkpt>
      <trkpt lat="45.49671" lon="2.69316">
        <ele>1079.6</ele>
        <time>2015-04-07T15:15:33.029Z</time>
      </trkpt>
      <trkpt lat="45.49658" lon="2.69317">
        <ele>1080.9</ele>
        <time>2015-04-07T15:15:34.028Z</time>
      </trkpt>
      <trkpt lat="45.49646" lon="2.69319">
        <ele>1081.7</ele>
        <time>2015-04-07T15:15:35.040Z</time>
      </trkpt>
      <trkpt lat="45.49634" lon="2.6932">
        <ele>1082.7</ele>
        <time>2015-04-07T15:15:36.053Z</time>
      </trkpt>
      <trkpt lat="45.49621" lon="2.69321">
        <ele>1083.4</ele>
        <time>2015-04-07T15:15:37.037Z</time>
      </trkpt>
      <trkpt lat="45.49608" lon="2.69322">
        <ele>1084.6</ele>
        <time>2015-04-07T15:15:38.045Z</time>
      </trkpt>
      <trkpt lat="45.49594" lon="2.69324">
        <ele>1086.2</ele>
        <time>2015-04-07T15:15:39.039Z</time>
      </trkpt>
      <trkpt lat="45.49582" lon="2.69325">
        <ele>1087.9</ele>
        <time>2015-04-07T15:15:40.047Z</time>
      </trkpt>
      <trkpt lat="45.4957" lon="2.69328">
        <ele>1089.3</ele>
        <time>2015-04-07T15:15:41.038Z</time>
      </trkpt>
      <trkpt lat="45.49561" lon="2.69335">
        <ele>1090.5</ele>
        <time>2015-04-07T15:15:42.037Z</time>
      </trkpt>
      <trkpt lat="45.49551" lon="2.69343">
        <ele>1091.4</ele>
        <time>2015-04-07T15:15:43.036Z</time>
      </trkpt>
      <trkpt lat="45.49544" lon="2.69354">
        <ele>1092</ele>
        <time>2015-04-07T15:15:44.028Z</time>
      </trkpt>
      <trkpt lat="45.49538" lon="2.69369">
        <ele>1092.5</ele>
        <time>2015-04-07T15:15:45.036Z</time>
      </trkpt>
      <trkpt lat="45.49534" lon="2.69385">
        <ele>1093.2</ele>
        <time>2015-04-07T15:15:46.037Z</time>
      </trkpt>
      <trkpt lat="45.49532" lon="2.69401">
        <ele>1093.6</ele>
        <time>2015-04-07T15:15:47.035Z</time>
      </trkpt>
      <trkpt lat="45.49531" lon="2.69418">
        <ele>1094.6</ele>
        <time>2015-04-07T15:15:48.031Z</time>
      </trkpt>
      <trkpt lat="45.4953" lon="2.69434">
        <ele>1095.7</ele>
        <time>2015-04-07T15:15:49.025Z</time>
      </trkpt>
      <trkpt lat="45.49529" lon="2.6945">
        <ele>1096.5</ele>
        <time>2015-04-07T15:15:50.036Z</time>
      </trkpt>
      <trkpt lat="45.49529" lon="2.69468">
        <ele>1097.2</ele>
        <time>2015-04-07T15:15:51.044Z</time>
      </trkpt>
      <trkpt lat="45.49529" lon="2.69485">
        <ele>1097.8</ele>
        <time>2015-04-07T15:15:52.025Z</time>
      </trkpt>
      <trkpt lat="45.4953" lon="2.695">
        <ele>1098.4</ele>
        <time>2015-04-07T15:15:53.018Z</time>
      </trkpt>
      <trkpt lat="45.4953" lon="2.69515">
        <ele>1098.5</ele>
        <time>2015-04-07T15:15:54.021Z</time>
      </trkpt>
      <trkpt lat="45.49527" lon="2.69528">
        <ele>1098.7</ele>
        <time>2015-04-07T15:15:55.021Z</time>
      </trkpt>
      <trkpt lat="45.4952" lon="2.69539">
        <ele>1098.9</ele>
        <time>2015-04-07T15:15:56.017Z</time>
      </trkpt>
      <trkpt lat="45.49513" lon="2.69549">
        <ele>1099.4</ele>
        <time>2015-04-07T15:15:57.034Z</time>
      </trkpt>
      <trkpt lat="45.49505" lon="2.69555">
        <ele>1100.3</ele>
        <time>2015-04-07T15:15:58.018Z</time>
      </trkpt>
      <trkpt lat="45.49496" lon="2.69561">
        <ele>1101.6</ele>
        <time>2015-04-07T15:15:59.013Z</time>
      </trkpt>
      <trkpt lat="45.49486" lon="2.69568">
        <ele>1102.8</ele>
        <time>2015-04-07T15:16:00.027Z</time>
      </trkpt>
      <trkpt lat="45.49474" lon="2.69574">
        <ele>1103.4</ele>
        <time>2015-04-07T15:16:01.041Z</time>
      </trkpt>
      <trkpt lat="45.49463" lon="2.69576">
        <ele>1103.9</ele>
        <time>2015-04-07T15:16:02.048Z</time>
      </trkpt>
      <trkpt lat="45.49451" lon="2.69576">
        <ele>1104.7</ele>
        <time>2015-04-07T15:16:03.034Z</time>
      </trkpt>
      <trkpt lat="45.49437" lon="2.69575">
        <ele>1105.3</ele>
        <time>2015-04-07T15:16:04.027Z</time>
      </trkpt>
      <trkpt lat="45.49424" lon="2.69574">
        <ele>1105.8</ele>
        <time>2015-04-07T15:16:05.026Z</time>
      </trkpt>
      <trkpt lat="45.49411" lon="2.69572">
        <ele>1106.2</ele>
        <time>2015-04-07T15:16:06.035Z</time>
      </trkpt>
      <trkpt lat="45.49398" lon="2.6957">
        <ele>1106.3</ele>
        <time>2015-04-07T15:16:07.013Z</time>
      </trkpt>
      <trkpt lat="45.49385" lon="2.69567">
        <ele>1106.1</ele>
        <time>2015-04-07T15:16:08.013Z</time>
      </trkpt>
      <trkpt lat="45.49372" lon="2.69564">
        <ele>1105.2</ele>
        <time>2015-04-07T15:16:09.019Z</time>
      </trkpt>
      <trkpt lat="45.4936" lon="2.69561">
        <ele>1104.6</ele>
        <time>2015-04-07T15:16:10.041Z</time>
      </trkpt>
      <trkpt lat="45.49349" lon="2.69551">
        <ele>1103.8</ele>
        <time>2015-04-07T15:16:11.044Z</time>
      </trkpt>
      <trkpt lat="45.49339" lon="2.69541">
        <ele>1103.3</ele>
        <time>2015-04-07T15:16:12.047Z</time>
      </trkpt>
      <trkpt lat="45.49328" lon="2.69525">
        <ele>1102.7</ele>
        <time>2015-04-07T15:16:13.045Z</time>
      </trkpt>
      <trkpt lat="45.4932" lon="2.6951">
        <ele>1102.5</ele>
        <time>2015-04-07T15:16:14.033Z</time>
      </trkpt>
      <trkpt lat="45.4931" lon="2.69495">
        <ele>1102.6</ele>
        <time>2015-04-07T15:16:15.048Z</time>
      </trkpt>
      <trkpt lat="45.49301" lon="2.6948">
        <ele>1102.8</ele>
        <time>2015-04-07T15:16:16.046Z</time>
      </trkpt>
      <trkpt lat="45.49292" lon="2.69464">
        <ele>1102.9</ele>
        <time>2015-04-07T15:16:17.019Z</time>
      </trkpt>
      <trkpt lat="45.49283" lon="2.69451">
        <ele>1103.1</ele>
        <time>2015-04-07T15:16:18.023Z</time>
      </trkpt>
      <trkpt lat="45.49273" lon="2.69438">
        <ele>1103.2</ele>
        <time>2015-04-07T15:16:19.015Z</time>
      </trkpt>
      <trkpt lat="45.49263" lon="2.69425">
        <ele>1103</ele>
        <time>2015-04-07T15:16:20.030Z</time>
      </trkpt>
      <trkpt lat="45.49255" lon="2.69412">
        <ele>1102.9</ele>
        <time>2015-04-07T15:16:21.042Z</time>
      </trkpt>
      <trkpt lat="45.49249" lon="2.694">
        <ele>1102.8</ele>
        <time>2015-04-07T15:16:22.030Z</time>
      </trkpt>
      <trkpt lat="45.49247" lon="2.69386">
        <ele>1102.7</ele>
        <time>2015-04-07T15:16:23.037Z</time>
      </trkpt>
      <trkpt lat="45.49246" lon="2.69372">
        <ele>1102.5</ele>
        <time>2015-04-07T15:16:24.028Z</time>
      </trkpt>
      <trkpt lat="45.49247" lon="2.69358">
        <ele>1101.9</ele>
        <time>2015-04-07T15:16:25.025Z</time>
      </trkpt>
      <trkpt lat="45.49249" lon="2.69343">
        <ele>1101.4</ele>
        <time>2015-04-07T15:16:26.031Z</time>
      </trkpt>
      <trkpt lat="45.4925" lon="2.69328">
        <ele>1100.8</ele>
        <time>2015-04-07T15:16:27.023Z</time>
      </trkpt>
      <trkpt lat="45.49251" lon="2.69311">
        <ele>1100.6</ele>
        <time>2015-04-07T15:16:28.027Z</time>
      </trkpt>
      <trkpt lat="45.49249" lon="2.69297">
        <ele>1100.2</ele>
        <time>2015-04-07T15:16:29.019Z</time>
      </trkpt>
      <trkpt lat="45.49246" lon="2.69282">
        <ele>1099.7</ele>
        <time>2015-04-07T15:16:30.024Z</time>
      </trkpt>
      <trkpt lat="45.49239" lon="2.69271">
        <ele>1099.4</ele>
        <time>2015-04-07T15:16:31.017Z</time>
      </trkpt>
      <trkpt lat="45.49232" lon="2.69259">
        <ele>1099.1</ele>
        <time>2015-04-07T15:16:32.040Z</time>
      </trkpt>
      <trkpt lat="45.49222" lon="2.69249">
        <ele>1098.8</ele>
        <time>2015-04-07T15:16:33.017Z</time>
      </trkpt>
      <trkpt lat="45.4921" lon="2.6924">
        <ele>1098.7</ele>
        <time>2015-04-07T15:16:34.036Z</time>
      </trkpt>
      <trkpt lat="45.49197" lon="2.69236">
        <ele>1098.4</ele>
        <time>2015-04-07T15:16:35.045Z</time>
      </trkpt>
      <trkpt lat="45.49185" lon="2.69233">
        <ele>1098.3</ele>
        <time>2015-04-07T15:16:36.043Z</time>
      </trkpt>
      <trkpt lat="45.49172" lon="2.69232">
        <ele>1098.5</ele>
        <time>2015-04-07T15:16:37.024Z</time>
      </trkpt>
      <trkpt lat="45.49159" lon="2.69231">
        <ele>1098.8</ele>
        <time>2015-04-07T15:16:38.045Z</time>
      </trkpt>
      <trkpt lat="45.49146" lon="2.6923">
        <ele>1099.1</ele>
        <time>2015-04-07T15:16:39.031Z</time>
      </trkpt>
      <trkpt lat="45.49134" lon="2.6923">
        <ele>1099.7</ele>
        <time>2015-04-07T15:16:40.048Z</time>
      </trkpt>
      <trkpt lat="45.49121" lon="2.6923">
        <ele>1100.4</ele>
        <time>2015-04-07T15:16:41.020Z</time>
      </trkpt>
      <trkpt lat="45.49108" lon="2.69229">
        <ele>1101.2</ele>
        <time>2015-04-07T15:16:42.036Z</time>
      </trkpt>
      <trkpt lat="45.49096" lon="2.69224">
        <ele>1101.9</ele>
        <time>2015-04-07T15:16:43.032Z</time>
      </trkpt>
      <trkpt lat="45.49084" lon="2.69216">
        <ele>1102.9</ele>
        <time>2015-04-07T15:16:44.056Z</time>
      </trkpt>
      <trkpt lat="45.49073" lon="2.69206">
        <ele>1103.8</ele>
        <time>2015-04-07T15:16:45.035Z</time>
      </trkpt>
      <trkpt lat="45.49064" lon="2.69194">
        <ele>1104.6</ele>
        <time>2015-04-07T15:16:46.042Z</time>
      </trkpt>
      <trkpt lat="45.49055" lon="2.69181">
        <ele>1105</ele>
        <time>2015-04-07T15:16:47.046Z</time>
      </trkpt>
      <trkpt lat="45.49046" lon="2.6917">
        <ele>1105.5</ele>
        <time>2015-04-07T15:16:48.027Z</time>
      </trkpt>
      <trkpt lat="45.49034" lon="2.6916">
        <ele>1105.9</ele>
        <time>2015-04-07T15:16:49.041Z</time>
      </trkpt>
      <trkpt lat="45.49025" lon="2.69154">
        <ele>1105.5</ele>
        <time>2015-04-07T15:16:50.051Z</time>
      </trkpt>
      <trkpt lat="45.49015" lon="2.69148">
        <ele>1104.7</ele>
        <time>2015-04-07T15:16:51.034Z</time>
      </trkpt>
      <trkpt lat="45.49004" lon="2.69142">
        <ele>1104.7</ele>
        <time>2015-04-07T15:16:52.030Z</time>
      </trkpt>
      <trkpt lat="45.48992" lon="2.69134">
        <ele>1105</ele>
        <time>2015-04-07T15:16:53.048Z</time>
      </trkpt>
      <trkpt lat="45.4898" lon="2.69125">
        <ele>1105.5</ele>
        <time>2015-04-07T15:16:54.038Z</time>
      </trkpt>
      <trkpt lat="45.4897" lon="2.69116">
        <ele>1105.9</ele>
        <time>2015-04-07T15:16:55.035Z</time>
      </trkpt>
      <trkpt lat="45.4896" lon="2.69105">
        <ele>1106.4</ele>
        <time>2015-04-07T15:16:56.038Z</time>
      </trkpt>
      <trkpt lat="45.48951" lon="2.69094">
        <ele>1106.5</ele>
        <time>2015-04-07T15:16:57.047Z</time>
      </trkpt>
      <trkpt lat="45.48941" lon="2.69084">
        <ele>1106.4</ele>
        <time>2015-04-07T15:16:58.038Z</time>
      </trkpt>
      <trkpt lat="45.48932" lon="2.69074">
        <ele>1106.4</ele>
        <time>2015-04-07T15:16:59.035Z</time>
      </trkpt>
      <trkpt lat="45.48922" lon="2.69065">
        <ele>1106.6</ele>
        <time>2015-04-07T15:17:00.035Z</time>
      </trkpt>
      <trkpt lat="45.48911" lon="2.69058">
        <ele>1107</ele>
        <time>2015-04-07T15:17:01.044Z</time>
      </trkpt>
      <trkpt lat="45.489" lon="2.69052">
        <ele>1107.6</ele>
        <time>2015-04-07T15:17:02.039Z</time>
      </trkpt>
      <trkpt lat="45.48889" lon="2.69051">
        <ele>1107.5</ele>
        <time>2015-04-07T15:17:03.037Z</time>
      </trkpt>
      <trkpt lat="45.48878" lon="2.69054">
        <ele>1107.2</ele>
        <time>2015-04-07T15:17:04.035Z</time>
      </trkpt>
      <trkpt lat="45.48868" lon="2.69057">
        <ele>1106.8</ele>
        <time>2015-04-07T15:17:05.039Z</time>
      </trkpt>
      <trkpt lat="45.48856" lon="2.69062">
        <ele>1106.8</ele>
        <time>2015-04-07T15:17:06.047Z</time>
      </trkpt>
      <trkpt lat="45.48845" lon="2.69066">
        <ele>1106.6</ele>
        <time>2015-04-07T15:17:07.044Z</time>
      </trkpt>
      <trkpt lat="45.48835" lon="2.69064">
        <ele>1106.3</ele>
        <time>2015-04-07T15:17:08.028Z</time>
      </trkpt>
      <trkpt lat="45.48824" lon="2.69061">
        <ele>1105.8</ele>
        <time>2015-04-07T15:17:09.039Z</time>
      </trkpt>
      <trkpt lat="45.48812" lon="2.69057">
        <ele>1105.5</ele>
        <time>2015-04-07T15:17:10.052Z</time>
      </trkpt>
      <trkpt lat="45.48801" lon="2.69053">
        <ele>1105.1</ele>
        <time>2015-04-07T15:17:11.036Z</time>
      </trkpt>
      <trkpt lat="45.4879" lon="2.69049">
        <ele>1104.8</ele>
        <time>2015-04-07T15:17:12.038Z</time>
      </trkpt>
      <trkpt lat="45.48779" lon="2.69045">
        <ele>1104.5</ele>
        <time>2015-04-07T15:17:13.037Z</time>
      </trkpt>
      <trkpt lat="45.48767" lon="2.69042">
        <ele>1104.7</ele>
        <time>2015-04-07T15:17:14.047Z</time>
      </trkpt>
      <trkpt lat="45.48756" lon="2.69045">
        <ele>1104.5</ele>
        <time>2015-04-07T15:17:15.030Z</time>
      </trkpt>
      <trkpt lat="45.48743" lon="2.69049">
        <ele>1104.3</ele>
        <time>2015-04-07T15:17:16.037Z</time>
      </trkpt>
      <trkpt lat="45.48732" lon="2.69053">
        <ele>1103.9</ele>
        <time>2015-04-07T15:17:17.052Z</time>
      </trkpt>
      <trkpt lat="45.4872" lon="2.69058">
        <ele>1103.6</ele>
        <time>2015-04-07T15:17:18.036Z</time>
      </trkpt>
      <trkpt lat="45.48709" lon="2.69064">
        <ele>1102.8</ele>
        <time>2015-04-07T15:17:19.041Z</time>
      </trkpt>
      <trkpt lat="45.48697" lon="2.69069">
        <ele>1101.8</ele>
        <time>2015-04-07T15:17:20.053Z</time>
      </trkpt>
      <trkpt lat="45.48684" lon="2.69074">
        <ele>1100.9</ele>
        <time>2015-04-07T15:17:21.032Z</time>
      </trkpt>
      <trkpt lat="45.48673" lon="2.6908">
        <ele>1100.1</ele>
        <time>2015-04-07T15:17:22.042Z</time>
      </trkpt>
      <trkpt lat="45.48664" lon="2.69089">
        <ele>1099.3</ele>
        <time>2015-04-07T15:17:23.037Z</time>
      </trkpt>
      <trkpt lat="45.48657" lon="2.69098">
        <ele>1098.5</ele>
        <time>2015-04-07T15:17:24.038Z</time>
      </trkpt>
      <trkpt lat="45.48649" lon="2.69107">
        <ele>1098</ele>
        <time>2015-04-07T15:17:25.027Z</time>
      </trkpt>
      <trkpt lat="45.48639" lon="2.69113">
        <ele>1097.5</ele>
        <time>2015-04-07T15:17:26.038Z</time>
      </trkpt>
      <trkpt lat="45.4863" lon="2.69113">
        <ele>1097</ele>
        <time>2015-04-07T15:17:27.022Z</time>
      </trkpt>
      <trkpt lat="45.48619" lon="2.69109">
        <ele>1096.4</ele>
        <time>2015-04-07T15:17:28.022Z</time>
      </trkpt>
      <trkpt lat="45.48608" lon="2.69105">
        <ele>1096</ele>
        <time>2015-04-07T15:17:29.021Z</time>
      </trkpt>
      <trkpt lat="45.48598" lon="2.69102">
        <ele>1095.3</ele>
        <time>2015-04-07T15:17:30.021Z</time>
      </trkpt>
      <trkpt lat="45.48586" lon="2.691">
        <ele>1094.5</ele>
        <time>2015-04-07T15:17:31.039Z</time>
      </trkpt>
      <trkpt lat="45.48574" lon="2.69098">
        <ele>1093.6</ele>
        <time>2015-04-07T15:17:32.038Z</time>
      </trkpt>
      <trkpt lat="45.48561" lon="2.69096">
        <ele>1092.9</ele>
        <time>2015-04-07T15:17:33.040Z</time>
      </trkpt>
      <trkpt lat="45.48548" lon="2.69094">
        <ele>1092.5</ele>
        <time>2015-04-07T15:17:34.042Z</time>
      </trkpt>
      <trkpt lat="45.48535" lon="2.69093">
        <ele>1092.2</ele>
        <time>2015-04-07T15:17:35.039Z</time>
      </trkpt>
      <trkpt lat="45.48523" lon="2.69093">
        <ele>1091.9</ele>
        <time>2015-04-07T15:17:36.055Z</time>
      </trkpt>
      <trkpt lat="45.4851" lon="2.69095">
        <ele>1091.6</ele>
        <time>2015-04-07T15:17:37.049Z</time>
      </trkpt>
      <trkpt lat="45.48498" lon="2.69096">
        <ele>1091.7</ele>
        <time>2015-04-07T15:17:38.031Z</time>
      </trkpt>
      <trkpt lat="45.48488" lon="2.69096">
        <ele>1092</ele>
        <time>2015-04-07T15:17:39.038Z</time>
      </trkpt>
      <trkpt lat="45.48478" lon="2.6909">
        <ele>1091.9</ele>
        <time>2015-04-07T15:17:40.029Z</time>
      </trkpt>
      <trkpt lat="45.48469" lon="2.69081">
        <ele>1091.8</ele>
        <time>2015-04-07T15:17:41.038Z</time>
      </trkpt>
      <trkpt lat="45.48462" lon="2.69072">
        <ele>1091.3</ele>
        <time>2015-04-07T15:17:42.039Z</time>
      </trkpt>
      <trkpt lat="45.48455" lon="2.6906">
        <ele>1090.7</ele>
        <time>2015-04-07T15:17:43.041Z</time>
      </trkpt>
      <trkpt lat="45.48447" lon="2.6905">
        <ele>1090.5</ele>
        <time>2015-04-07T15:17:44.047Z</time>
      </trkpt>
      <trkpt lat="45.48439" lon="2.69037">
        <ele>1090</ele>
        <time>2015-04-07T15:17:45.029Z</time>
      </trkpt>
      <trkpt lat="45.48433" lon="2.69022">
        <ele>1090</ele>
        <time>2015-04-07T15:17:46.041Z</time>
      </trkpt>
      <trkpt lat="45.48429" lon="2.69005">
        <ele>1090.1</ele>
        <time>2015-04-07T15:17:47.043Z</time>
      </trkpt>
      <trkpt lat="45.48426" lon="2.68987">
        <ele>1089.5</ele>
        <time>2015-04-07T15:17:48.040Z</time>
      </trkpt>
      <trkpt lat="45.48423" lon="2.6897">
        <ele>1089.3</ele>
        <time>2015-04-07T15:17:49.043Z</time>
      </trkpt>
      <trkpt lat="45.48418" lon="2.68953">
        <ele>1089.3</ele>
        <time>2015-04-07T15:17:50.038Z</time>
      </trkpt>
      <trkpt lat="45.48411" lon="2.68939">
        <ele>1089.1</ele>
        <time>2015-04-07T15:17:51.036Z</time>
      </trkpt>
      <trkpt lat="45.48404" lon="2.68926">
        <ele>1089.2</ele>
        <time>2015-04-07T15:17:52.044Z</time>
      </trkpt>
      <trkpt lat="45.48393" lon="2.68919">
        <ele>1089.2</ele>
        <time>2015-04-07T15:17:53.042Z</time>
      </trkpt>
      <trkpt lat="45.48382" lon="2.68916">
        <ele>1089.1</ele>
        <time>2015-04-07T15:17:54.034Z</time>
      </trkpt>
      <trkpt lat="45.48372" lon="2.68913">
        <ele>1088.9</ele>
        <time>2015-04-07T15:17:55.035Z</time>
      </trkpt>
      <trkpt lat="45.48362" lon="2.68911">
        <ele>1088.5</ele>
        <time>2015-04-07T15:17:56.029Z</time>
      </trkpt>
      <trkpt lat="45.48352" lon="2.68905">
        <ele>1088.3</ele>
        <time>2015-04-07T15:17:57.035Z</time>
      </trkpt>
      <trkpt lat="45.48343" lon="2.68895">
        <ele>1088.1</ele>
        <time>2015-04-07T15:17:58.037Z</time>
      </trkpt>
      <trkpt lat="45.48338" lon="2.68882">
        <ele>1087.4</ele>
        <time>2015-04-07T15:17:59.034Z</time>
      </trkpt>
      <trkpt lat="45.48332" lon="2.68867">
        <ele>1086.8</ele>
        <time>2015-04-07T15:18:00.044Z</time>
      </trkpt>
      <trkpt lat="45.48326" lon="2.68852">
        <ele>1086.1</ele>
        <time>2015-04-07T15:18:01.031Z</time>
      </trkpt>
      <trkpt lat="45.4832" lon="2.68837">
        <ele>1085.5</ele>
        <time>2015-04-07T15:18:02.037Z</time>
      </trkpt>
      <trkpt lat="45.48314" lon="2.68824">
        <ele>1084.6</ele>
        <time>2015-04-07T15:18:03.042Z</time>
      </trkpt>
      <trkpt lat="45.48307" lon="2.6881">
        <ele>1083.6</ele>
        <time>2015-04-07T15:18:04.043Z</time>
      </trkpt>
      <trkpt lat="45.48299" lon="2.68795">
        <ele>1082.9</ele>
        <time>2015-04-07T15:18:05.036Z</time>
      </trkpt>
      <trkpt lat="45.48291" lon="2.6878">
        <ele>1082.3</ele>
        <time>2015-04-07T15:18:06.035Z</time>
      </trkpt>
      <trkpt lat="45.48282" lon="2.68764">
        <ele>1081.8</ele>
        <time>2015-04-07T15:18:07.038Z</time>
      </trkpt>
      <trkpt lat="45.48274" lon="2.68749">
        <ele>1081.6</ele>
        <time>2015-04-07T15:18:08.036Z</time>
      </trkpt>
      <trkpt lat="45.48268" lon="2.68731">
        <ele>1081.7</ele>
        <time>2015-04-07T15:18:09.054Z</time>
      </trkpt>
      <trkpt lat="45.48264" lon="2.68714">
        <ele>1081.5</ele>
        <time>2015-04-07T15:18:10.043Z</time>
      </trkpt>
      <trkpt lat="45.4826" lon="2.68697">
        <ele>1081.4</ele>
        <time>2015-04-07T15:18:11.035Z</time>
      </trkpt>
      <trkpt lat="45.48258" lon="2.68678">
        <ele>1081.1</ele>
        <time>2015-04-07T15:18:12.037Z</time>
      </trkpt>
      <trkpt lat="45.48255" lon="2.68659">
        <ele>1080.7</ele>
        <time>2015-04-07T15:18:13.037Z</time>
      </trkpt>
      <trkpt lat="45.48252" lon="2.68641">
        <ele>1080.3</ele>
        <time>2015-04-07T15:18:14.036Z</time>
      </trkpt>
      <trkpt lat="45.48249" lon="2.68622">
        <ele>1079.9</ele>
        <time>2015-04-07T15:18:15.037Z</time>
      </trkpt>
      <trkpt lat="45.48245" lon="2.68604">
        <ele>1079.3</ele>
        <time>2015-04-07T15:18:16.044Z</time>
      </trkpt>
      <trkpt lat="45.48241" lon="2.68587">
        <ele>1078.7</ele>
        <time>2015-04-07T15:18:17.038Z</time>
      </trkpt>
      <trkpt lat="45.48237" lon="2.68572">
        <ele>1078.1</ele>
        <time>2015-04-07T15:18:18.047Z</time>
      </trkpt>
      <trkpt lat="45.48233" lon="2.68555">
        <ele>1077.6</ele>
        <time>2015-04-07T15:18:19.037Z</time>
      </trkpt>
      <trkpt lat="45.48228" lon="2.68539">
        <ele>1076.9</ele>
        <time>2015-04-07T15:18:20.046Z</time>
      </trkpt>
      <trkpt lat="45.48223" lon="2.68523">
        <ele>1076.4</ele>
        <time>2015-04-07T15:18:21.042Z</time>
      </trkpt>
      <trkpt lat="45.48217" lon="2.68512">
        <ele>1076</ele>
        <time>2015-04-07T15:18:22.039Z</time>
      </trkpt>
      <trkpt lat="45.4821" lon="2.685">
        <ele>1075.4</ele>
        <time>2015-04-07T15:18:23.041Z</time>
      </trkpt>
      <trkpt lat="45.48199" lon="2.68494">
        <ele>1074.9</ele>
        <time>2015-04-07T15:18:24.046Z</time>
      </trkpt>
      <trkpt lat="45.48187" lon="2.68492">
        <ele>1074.6</ele>
        <time>2015-04-07T15:18:25.039Z</time>
      </trkpt>
      <trkpt lat="45.48176" lon="2.68491">
        <ele>1074.4</ele>
        <time>2015-04-07T15:18:26.022Z</time>
      </trkpt>
      <trkpt lat="45.48163" lon="2.6849">
        <ele>1074.1</ele>
        <time>2015-04-07T15:18:27.021Z</time>
      </trkpt>
      <trkpt lat="45.48151" lon="2.68489">
        <ele>1073.9</ele>
        <time>2015-04-07T15:18:28.019Z</time>
      </trkpt>
      <trkpt lat="45.48138" lon="2.68488">
        <ele>1073.7</ele>
        <time>2015-04-07T15:18:29.033Z</time>
      </trkpt>
      <trkpt lat="45.48126" lon="2.68486">
        <ele>1073.5</ele>
        <time>2015-04-07T15:18:30.036Z</time>
      </trkpt>
      <trkpt lat="45.48115" lon="2.68485">
        <ele>1073.2</ele>
        <time>2015-04-07T15:18:31.048Z</time>
      </trkpt>
      <trkpt lat="45.48104" lon="2.68483">
        <ele>1073.1</ele>
        <time>2015-04-07T15:18:32.028Z</time>
      </trkpt>
      <trkpt lat="45.48093" lon="2.68481">
        <ele>1073</ele>
        <time>2015-04-07T15:18:33.040Z</time>
      </trkpt>
      <trkpt lat="45.48081" lon="2.68478">
        <ele>1072.6</ele>
        <time>2015-04-07T15:18:34.040Z</time>
      </trkpt>
      <trkpt lat="45.4807" lon="2.68475">
        <ele>1072.1</ele>
        <time>2015-04-07T15:18:35.038Z</time>
      </trkpt>
      <trkpt lat="45.48059" lon="2.68472">
        <ele>1071.3</ele>
        <time>2015-04-07T15:18:36.040Z</time>
      </trkpt>
      <trkpt lat="45.48047" lon="2.68468">
        <ele>1070.3</ele>
        <time>2015-04-07T15:18:37.037Z</time>
      </trkpt>
      <trkpt lat="45.48036" lon="2.68463">
        <ele>1069.2</ele>
        <time>2015-04-07T15:18:38.041Z</time>
      </trkpt>
      <trkpt lat="45.48024" lon="2.68458">
        <ele>1068.6</ele>
        <time>2015-04-07T15:18:39.038Z</time>
      </trkpt>
      <trkpt lat="45.48013" lon="2.68449">
        <ele>1067.9</ele>
        <time>2015-04-07T15:18:40.023Z</time>
      </trkpt>
      <trkpt lat="45.48003" lon="2.68441">
        <ele>1067.4</ele>
        <time>2015-04-07T15:18:41.043Z</time>
      </trkpt>
      <trkpt lat="45.47995" lon="2.68429">
        <ele>1066.4</ele>
        <time>2015-04-07T15:18:42.039Z</time>
      </trkpt>
      <trkpt lat="45.47987" lon="2.68417">
        <ele>1065.5</ele>
        <time>2015-04-07T15:18:43.045Z</time>
      </trkpt>
      <trkpt lat="45.47979" lon="2.68405">
        <ele>1064.7</ele>
        <time>2015-04-07T15:18:44.052Z</time>
      </trkpt>
      <trkpt lat="45.47968" lon="2.68397">
        <ele>1063.7</ele>
        <time>2015-04-07T15:18:45.045Z</time>
      </trkpt>
      <trkpt lat="45.47956" lon="2.68394">
        <ele>1063.1</ele>
        <time>2015-04-07T15:18:46.042Z</time>
      </trkpt>
      <trkpt lat="45.47945" lon="2.68391">
        <ele>1061.7</ele>
        <time>2015-04-07T15:18:47.035Z</time>
      </trkpt>
      <trkpt lat="45.47932" lon="2.68395">
        <ele>1060.6</ele>
        <time>2015-04-07T15:18:48.063Z</time>
      </trkpt>
      <trkpt lat="45.47919" lon="2.684">
        <ele>1059.7</ele>
        <time>2015-04-07T15:18:49.044Z</time>
      </trkpt>
      <trkpt lat="45.47906" lon="2.68406">
        <ele>1059</ele>
        <time>2015-04-07T15:18:50.044Z</time>
      </trkpt>
      <trkpt lat="45.47893" lon="2.68412">
        <ele>1058.5</ele>
        <time>2015-04-07T15:18:51.038Z</time>
      </trkpt>
      <trkpt lat="45.47878" lon="2.68418">
        <ele>1058.4</ele>
        <time>2015-04-07T15:18:52.037Z</time>
      </trkpt>
      <trkpt lat="45.47864" lon="2.68424">
        <ele>1058.3</ele>
        <time>2015-04-07T15:18:53.043Z</time>
      </trkpt>
      <trkpt lat="45.4785" lon="2.68428">
        <ele>1058.3</ele>
        <time>2015-04-07T15:18:54.038Z</time>
      </trkpt>
      <trkpt lat="45.47836" lon="2.68432">
        <ele>1058.2</ele>
        <time>2015-04-07T15:18:55.047Z</time>
      </trkpt>
      <trkpt lat="45.47823" lon="2.68434">
        <ele>1058.2</ele>
        <time>2015-04-07T15:18:56.045Z</time>
      </trkpt>
      <trkpt lat="45.47809" lon="2.68435">
        <ele>1058.1</ele>
        <time>2015-04-07T15:18:57.043Z</time>
      </trkpt>
      <trkpt lat="45.47796" lon="2.68435">
        <ele>1058.2</ele>
        <time>2015-04-07T15:18:58.036Z</time>
      </trkpt>
      <trkpt lat="45.47783" lon="2.68434">
        <ele>1058.3</ele>
        <time>2015-04-07T15:18:59.031Z</time>
      </trkpt>
      <trkpt lat="45.4777" lon="2.68433">
        <ele>1058.2</ele>
        <time>2015-04-07T15:19:00.035Z</time>
      </trkpt>
      <trkpt lat="45.47756" lon="2.68432">
        <ele>1057.9</ele>
        <time>2015-04-07T15:19:01.046Z</time>
      </trkpt>
      <trkpt lat="45.47742" lon="2.68431">
        <ele>1057.6</ele>
        <time>2015-04-07T15:19:02.035Z</time>
      </trkpt>
      <trkpt lat="45.47729" lon="2.6843">
        <ele>1057.1</ele>
        <time>2015-04-07T15:19:03.039Z</time>
      </trkpt>
      <trkpt lat="45.47716" lon="2.68434">
        <ele>1056.4</ele>
        <time>2015-04-07T15:19:04.038Z</time>
      </trkpt>
      <trkpt lat="45.47703" lon="2.68439">
        <ele>1055.7</ele>
        <time>2015-04-07T15:19:05.033Z</time>
      </trkpt>
      <trkpt lat="45.4769" lon="2.68445">
        <ele>1055.3</ele>
        <time>2015-04-07T15:19:06.037Z</time>
      </trkpt>
      <trkpt lat="45.4768" lon="2.68452">
        <ele>1055.1</ele>
        <time>2015-04-07T15:19:07.037Z</time>
      </trkpt>
      <trkpt lat="45.47669" lon="2.6846">
        <ele>1054.9</ele>
        <time>2015-04-07T15:19:08.043Z</time>
      </trkpt>
      <trkpt lat="45.47661" lon="2.68472">
        <ele>1054.8</ele>
        <time>2015-04-07T15:19:09.045Z</time>
      </trkpt>
      <trkpt lat="45.47652" lon="2.68485">
        <ele>1054.9</ele>
        <time>2015-04-07T15:19:10.038Z</time>
      </trkpt>
      <trkpt lat="45.47643" lon="2.68497">
        <ele>1055.1</ele>
        <time>2015-04-07T15:19:11.050Z</time>
      </trkpt>
      <trkpt lat="45.47634" lon="2.68506">
        <ele>1055</ele>
        <time>2015-04-07T15:19:12.045Z</time>
      </trkpt>
      <trkpt lat="45.47622" lon="2.68515">
        <ele>1054.6</ele>
        <time>2015-04-07T15:19:13.036Z</time>
      </trkpt>
      <trkpt lat="45.47612" lon="2.68523">
        <ele>1053.3</ele>
        <time>2015-04-07T15:19:14.033Z</time>
      </trkpt>
      <trkpt lat="45.47601" lon="2.68531">
        <ele>1052.7</ele>
        <time>2015-04-07T15:19:15.037Z</time>
      </trkpt>
      <trkpt lat="45.47589" lon="2.68541">
        <ele>1052.1</ele>
        <time>2015-04-07T15:19:16.036Z</time>
      </trkpt>
      <trkpt lat="45.47581" lon="2.68553">
        <ele>1050.6</ele>
        <time>2015-04-07T15:19:17.034Z</time>
      </trkpt>
      <trkpt lat="45.47573" lon="2.68566">
        <ele>1049</ele>
        <time>2015-04-07T15:19:18.039Z</time>
      </trkpt>
      <trkpt lat="45.47567" lon="2.68582">
        <ele>1048.3</ele>
        <time>2015-04-07T15:19:19.034Z</time>
      </trkpt>
      <trkpt lat="45.47562" lon="2.68597">
        <ele>1047.8</ele>
        <time>2015-04-07T15:19:20.044Z</time>
      </trkpt>
      <trkpt lat="45.47557" lon="2.68611">
        <ele>1047.5</ele>
        <time>2015-04-07T15:19:21.029Z</time>
      </trkpt>
      <trkpt lat="45.47553" lon="2.68625">
        <ele>1047.1</ele>
        <time>2015-04-07T15:19:22.019Z</time>
      </trkpt>
      <trkpt lat="45.47549" lon="2.68639">
        <ele>1047.1</ele>
        <time>2015-04-07T15:19:23.027Z</time>
      </trkpt>
      <trkpt lat="45.47544" lon="2.68653">
        <ele>1046.9</ele>
        <time>2015-04-07T15:19:24.043Z</time>
      </trkpt>
      <trkpt lat="45.4754" lon="2.68668">
        <ele>1046.8</ele>
        <time>2015-04-07T15:19:25.028Z</time>
      </trkpt>
      <trkpt lat="45.47535" lon="2.68683">
        <ele>1046.9</ele>
        <time>2015-04-07T15:19:26.023Z</time>
      </trkpt>
      <trkpt lat="45.47531" lon="2.68697">
        <ele>1046.7</ele>
        <time>2015-04-07T15:19:27.028Z</time>
      </trkpt>
      <trkpt lat="45.47527" lon="2.68711">
        <ele>1046.4</ele>
        <time>2015-04-07T15:19:28.023Z</time>
      </trkpt>
      <trkpt lat="45.47523" lon="2.68725">
        <ele>1045.9</ele>
        <time>2015-04-07T15:19:29.026Z</time>
      </trkpt>
      <trkpt lat="45.47518" lon="2.6874">
        <ele>1045.3</ele>
        <time>2015-04-07T15:19:30.022Z</time>
      </trkpt>
      <trkpt lat="45.47513" lon="2.68753">
        <ele>1044.8</ele>
        <time>2015-04-07T15:19:31.029Z</time>
      </trkpt>
      <trkpt lat="45.47508" lon="2.68766">
        <ele>1044.4</ele>
        <time>2015-04-07T15:19:32.022Z</time>
      </trkpt>
      <trkpt lat="45.47503" lon="2.68779">
        <ele>1044.1</ele>
        <time>2015-04-07T15:19:33.028Z</time>
      </trkpt>
      <trkpt lat="45.47497" lon="2.68793">
        <ele>1043.9</ele>
        <time>2015-04-07T15:19:34.024Z</time>
      </trkpt>
      <trkpt lat="45.47491" lon="2.68807">
        <ele>1043.7</ele>
        <time>2015-04-07T15:19:35.020Z</time>
      </trkpt>
      <trkpt lat="45.47485" lon="2.68821">
        <ele>1043.1</ele>
        <time>2015-04-07T15:19:36.025Z</time>
      </trkpt>
      <trkpt lat="45.4748" lon="2.68833">
        <ele>1042.4</ele>
        <time>2015-04-07T15:19:37.021Z</time>
      </trkpt>
      <trkpt lat="45.47474" lon="2.68847">
        <ele>1041.8</ele>
        <time>2015-04-07T15:19:38.028Z</time>
      </trkpt>
      <trkpt lat="45.47468" lon="2.6886">
        <ele>1041.2</ele>
        <time>2015-04-07T15:19:39.026Z</time>
      </trkpt>
      <trkpt lat="45.47459" lon="2.68871">
        <ele>1041.1</ele>
        <time>2015-04-07T15:19:40.043Z</time>
      </trkpt>
      <trkpt lat="45.47449" lon="2.68882">
        <ele>1040.1</ele>
        <time>2015-04-07T15:19:41.027Z</time>
      </trkpt>
      <trkpt lat="45.47439" lon="2.68891">
        <ele>1039.8</ele>
        <time>2015-04-07T15:19:42.024Z</time>
      </trkpt>
      <trkpt lat="45.47428" lon="2.689">
        <ele>1039.1</ele>
        <time>2015-04-07T15:19:43.029Z</time>
      </trkpt>
      <trkpt lat="45.47416" lon="2.6891">
        <ele>1038.3</ele>
        <time>2015-04-07T15:19:44.047Z</time>
      </trkpt>
      <trkpt lat="45.47403" lon="2.68919">
        <ele>1037.5</ele>
        <time>2015-04-07T15:19:45.019Z</time>
      </trkpt>
      <trkpt lat="45.4739" lon="2.68924">
        <ele>1036.9</ele>
        <time>2015-04-07T15:19:46.023Z</time>
      </trkpt>
      <trkpt lat="45.47378" lon="2.68928">
        <ele>1036.7</ele>
        <time>2015-04-07T15:19:47.034Z</time>
      </trkpt>
      <trkpt lat="45.47366" lon="2.68927">
        <ele>1036.1</ele>
        <time>2015-04-07T15:19:48.024Z</time>
      </trkpt>
      <trkpt lat="45.47354" lon="2.68925">
        <ele>1036</ele>
        <time>2015-04-07T15:19:49.013Z</time>
      </trkpt>
      <trkpt lat="45.47344" lon="2.68917">
        <ele>1036.2</ele>
        <time>2015-04-07T15:19:50.015Z</time>
      </trkpt>
      <trkpt lat="45.47334" lon="2.68905">
        <ele>1036</ele>
        <time>2015-04-07T15:19:51.027Z</time>
      </trkpt>
      <trkpt lat="45.47327" lon="2.68889">
        <ele>1035.7</ele>
        <time>2015-04-07T15:19:52.024Z</time>
      </trkpt>
      <trkpt lat="45.4732" lon="2.68874">
        <ele>1035.3</ele>
        <time>2015-04-07T15:19:53.023Z</time>
      </trkpt>
      <trkpt lat="45.47313" lon="2.68858">
        <ele>1034.9</ele>
        <time>2015-04-07T15:19:54.018Z</time>
      </trkpt>
      <trkpt lat="45.47304" lon="2.68844">
        <ele>1035</ele>
        <time>2015-04-07T15:19:55.037Z</time>
      </trkpt>
      <trkpt lat="45.47292" lon="2.68833">
        <ele>1034.7</ele>
        <time>2015-04-07T15:19:56.035Z</time>
      </trkpt>
      <trkpt lat="45.47282" lon="2.68823">
        <ele>1034.2</ele>
        <time>2015-04-07T15:19:57.038Z</time>
      </trkpt>
      <trkpt lat="45.4727" lon="2.68814">
        <ele>1033.9</ele>
        <time>2015-04-07T15:19:58.044Z</time>
      </trkpt>
      <trkpt lat="45.47259" lon="2.68804">
        <ele>1033.4</ele>
        <time>2015-04-07T15:19:59.016Z</time>
      </trkpt>
      <trkpt lat="45.47247" lon="2.68793">
        <ele>1033.1</ele>
        <time>2015-04-07T15:20:00.012Z</time>
      </trkpt>
      <trkpt lat="45.47236" lon="2.68781">
        <ele>1032.7</ele>
        <time>2015-04-07T15:20:01.018Z</time>
      </trkpt>
      <trkpt lat="45.47227" lon="2.68767">
        <ele>1031.8</ele>
        <time>2015-04-07T15:20:02.031Z</time>
      </trkpt>
      <trkpt lat="45.47219" lon="2.68754">
        <ele>1030.9</ele>
        <time>2015-04-07T15:20:03.029Z</time>
      </trkpt>
      <trkpt lat="45.47211" lon="2.68741">
        <ele>1030.3</ele>
        <time>2015-04-07T15:20:04.027Z</time>
      </trkpt>
      <trkpt lat="45.47201" lon="2.68726">
        <ele>1029.6</ele>
        <time>2015-04-07T15:20:05.047Z</time>
      </trkpt>
      <trkpt lat="45.47191" lon="2.6871">
        <ele>1028.6</ele>
        <time>2015-04-07T15:20:06.017Z</time>
      </trkpt>
      <trkpt lat="45.47181" lon="2.68695">
        <ele>1027.6</ele>
        <time>2015-04-07T15:20:07.039Z</time>
      </trkpt>
      <trkpt lat="45.47172" lon="2.68681">
        <ele>1026.9</ele>
        <time>2015-04-07T15:20:08.047Z</time>
      </trkpt>
      <trkpt lat="45.47159" lon="2.68673">
        <ele>1026.1</ele>
        <time>2015-04-07T15:20:09.038Z</time>
      </trkpt>
      <trkpt lat="45.47147" lon="2.6867">
        <ele>1025.8</ele>
        <time>2015-04-07T15:20:10.031Z</time>
      </trkpt>
      <trkpt lat="45.47134" lon="2.68669">
        <ele>1025.6</ele>
        <time>2015-04-07T15:20:11.015Z</time>
      </trkpt>
      <trkpt lat="45.47121" lon="2.68671">
        <ele>1025.5</ele>
        <time>2015-04-07T15:20:12.034Z</time>
      </trkpt>
      <trkpt lat="45.47108" lon="2.68674">
        <ele>1025.4</ele>
        <time>2015-04-07T15:20:13.030Z</time>
      </trkpt>
      <trkpt lat="45.47094" lon="2.68677">
        <ele>1025.1</ele>
        <time>2015-04-07T15:20:14.030Z</time>
      </trkpt>
      <trkpt lat="45.47081" lon="2.6868">
        <ele>1024.4</ele>
        <time>2015-04-07T15:20:15.054Z</time>
      </trkpt>
      <trkpt lat="45.47068" lon="2.68684">
        <ele>1024.3</ele>
        <time>2015-04-07T15:20:16.015Z</time>
      </trkpt>
      <trkpt lat="45.47054" lon="2.68688">
        <ele>1023.7</ele>
        <time>2015-04-07T15:20:17.044Z</time>
      </trkpt>
      <trkpt lat="45.47042" lon="2.68693">
        <ele>1023</ele>
        <time>2015-04-07T15:20:18.037Z</time>
      </trkpt>
      <trkpt lat="45.47031" lon="2.68698">
        <ele>1022.2</ele>
        <time>2015-04-07T15:20:19.051Z</time>
      </trkpt>
      <trkpt lat="45.47022" lon="2.68702">
        <ele>1021.3</ele>
        <time>2015-04-07T15:20:20.033Z</time>
      </trkpt>
      <trkpt lat="45.47016" lon="2.68712">
        <ele>1020.1</ele>
        <time>2015-04-07T15:20:21.019Z</time>
      </trkpt>
      <trkpt lat="45.47009" lon="2.68724">
        <ele>1019.3</ele>
        <time>2015-04-07T15:20:22.029Z</time>
      </trkpt>
      <trkpt lat="45.47002" lon="2.68735">
        <ele>1018.7</ele>
        <time>2015-04-07T15:20:23.031Z</time>
      </trkpt>
      <trkpt lat="45.46996" lon="2.68746">
        <ele>1018.4</ele>
        <time>2015-04-07T15:20:24.030Z</time>
      </trkpt>
      <trkpt lat="45.4699" lon="2.68756">
        <ele>1017.6</ele>
        <time>2015-04-07T15:20:25.031Z</time>
      </trkpt>
      <trkpt lat="45.46983" lon="2.68766">
        <ele>1017.3</ele>
        <time>2015-04-07T15:20:26.039Z</time>
      </trkpt>
      <trkpt lat="45.46974" lon="2.68775">
        <ele>1017.5</ele>
        <time>2015-04-07T15:20:27.036Z</time>
      </trkpt>
      <trkpt lat="45.46964" lon="2.68779">
        <ele>1018.1</ele>
        <time>2015-04-07T15:20:28.044Z</time>
      </trkpt>
      <trkpt lat="45.46957" lon="2.68779">
        <ele>1017.7</ele>
        <time>2015-04-07T15:20:29.027Z</time>
      </trkpt>
      <trkpt lat="45.46949" lon="2.68775">
        <ele>1016.9</ele>
        <time>2015-04-07T15:20:30.031Z</time>
      </trkpt>
      <trkpt lat="45.46943" lon="2.68769">
        <ele>1016</ele>
        <time>2015-04-07T15:20:31.034Z</time>
      </trkpt>
      <trkpt lat="45.46937" lon="2.68755">
        <ele>1015.4</ele>
        <time>2015-04-07T15:20:32.039Z</time>
      </trkpt>
      <trkpt lat="45.46933" lon="2.68741">
        <ele>1014.8</ele>
        <time>2015-04-07T15:20:33.033Z</time>
      </trkpt>
      <trkpt lat="45.46929" lon="2.68724">
        <ele>1014.4</ele>
        <time>2015-04-07T15:20:34.039Z</time>
      </trkpt>
      <trkpt lat="45.46924" lon="2.68708">
        <ele>1014.1</ele>
        <time>2015-04-07T15:20:35.036Z</time>
      </trkpt>
      <trkpt lat="45.46917" lon="2.68693">
        <ele>1013.6</ele>
        <time>2015-04-07T15:20:36.057Z</time>
      </trkpt>
      <trkpt lat="45.46908" lon="2.68677">
        <ele>1013</ele>
        <time>2015-04-07T15:20:37.043Z</time>
      </trkpt>
      <trkpt lat="45.46895" lon="2.68667">
        <ele>1012.3</ele>
        <time>2015-04-07T15:20:38.033Z</time>
      </trkpt>
      <trkpt lat="45.46883" lon="2.68658">
        <ele>1011.7</ele>
        <time>2015-04-07T15:20:39.036Z</time>
      </trkpt>
      <trkpt lat="45.4687" lon="2.68649">
        <ele>1011.4</ele>
        <time>2015-04-07T15:20:40.027Z</time>
      </trkpt>
      <trkpt lat="45.46856" lon="2.68639">
        <ele>1011.4</ele>
        <time>2015-04-07T15:20:41.040Z</time>
      </trkpt>
      <trkpt lat="45.46843" lon="2.6863">
        <ele>1011.6</ele>
        <time>2015-04-07T15:20:42.025Z</time>
      </trkpt>
      <trkpt lat="45.46829" lon="2.68621">
        <ele>1011.8</ele>
        <time>2015-04-07T15:20:43.039Z</time>
      </trkpt>
      <trkpt lat="45.46816" lon="2.68611">
        <ele>1012.2</ele>
        <time>2015-04-07T15:20:44.022Z</time>
      </trkpt>
      <trkpt lat="45.46804" lon="2.68604">
        <ele>1012</ele>
        <time>2015-04-07T15:20:45.026Z</time>
      </trkpt>
      <trkpt lat="45.46792" lon="2.68596">
        <ele>1011.6</ele>
        <time>2015-04-07T15:20:46.040Z</time>
      </trkpt>
      <trkpt lat="45.4678" lon="2.68587">
        <ele>1010.8</ele>
        <time>2015-04-07T15:20:47.055Z</time>
      </trkpt>
      <trkpt lat="45.46768" lon="2.68579">
        <ele>1009.8</ele>
        <time>2015-04-07T15:20:48.034Z</time>
      </trkpt>
      <trkpt lat="45.46755" lon="2.68569">
        <ele>1009.3</ele>
        <time>2015-04-07T15:20:49.044Z</time>
      </trkpt>
      <trkpt lat="45.46742" lon="2.6856">
        <ele>1009</ele>
        <time>2015-04-07T15:20:50.034Z</time>
      </trkpt>
      <trkpt lat="45.46731" lon="2.68552">
        <ele>1009.2</ele>
        <time>2015-04-07T15:20:51.033Z</time>
      </trkpt>
      <trkpt lat="45.46724" lon="2.68547">
        <ele>1008.5</ele>
        <time>2015-04-07T15:20:52.031Z</time>
      </trkpt>
      <trkpt lat="45.46715" lon="2.68541">
        <ele>1008</ele>
        <time>2015-04-07T15:20:53.030Z</time>
      </trkpt>
      <trkpt lat="45.46708" lon="2.68535">
        <ele>1007.9</ele>
        <time>2015-04-07T15:20:54.033Z</time>
      </trkpt>
      <trkpt lat="45.46703" lon="2.6853">
        <ele>1007.5</ele>
        <time>2015-04-07T15:20:55.029Z</time>
      </trkpt>
      <trkpt lat="45.467" lon="2.68521">
        <ele>1007.2</ele>
        <time>2015-04-07T15:20:57.030Z</time>
      </trkpt>
      <trkpt lat="45.467" lon="2.68515">
        <ele>1007.1</ele>
        <time>2015-04-07T15:20:58.028Z</time>
      </trkpt>
      <trkpt lat="45.46702" lon="2.68507">
        <ele>1006.9</ele>
        <time>2015-04-07T15:20:59.029Z</time>
      </trkpt>
      <trkpt lat="45.46706" lon="2.68503">
        <ele>1006.5</ele>
        <time>2015-04-07T15:21:00.037Z</time>
      </trkpt>
      <trkpt lat="45.46712" lon="2.68494">
        <ele>1006.1</ele>
        <time>2015-04-07T15:21:01.032Z</time>
      </trkpt>
      <trkpt lat="45.4672" lon="2.68485">
        <ele>1006</ele>
        <time>2015-04-07T15:21:02.018Z</time>
      </trkpt>
      <trkpt lat="45.46727" lon="2.68479">
        <ele>1006.2</ele>
        <time>2015-04-07T15:21:03.020Z</time>
      </trkpt>
      <trkpt lat="45.46736" lon="2.68471">
        <ele>1006.6</ele>
        <time>2015-04-07T15:21:04.023Z</time>
      </trkpt>
      <trkpt lat="45.46746" lon="2.68461">
        <ele>1007</ele>
        <time>2015-04-07T15:21:05.051Z</time>
      </trkpt>
      <trkpt lat="45.46756" lon="2.68451">
        <ele>1007.3</ele>
        <time>2015-04-07T15:21:06.021Z</time>
      </trkpt>
      <trkpt lat="45.46768" lon="2.6844">
        <ele>1007.6</ele>
        <time>2015-04-07T15:21:07.027Z</time>
      </trkpt>
      <trkpt lat="45.46781" lon="2.68428">
        <ele>1007.8</ele>
        <time>2015-04-07T15:21:08.032Z</time>
      </trkpt>
      <trkpt lat="45.46793" lon="2.68417">
        <ele>1008</ele>
        <time>2015-04-07T15:21:09.039Z</time>
      </trkpt>
      <trkpt lat="45.46806" lon="2.68404">
        <ele>1008</ele>
        <time>2015-04-07T15:21:10.018Z</time>
      </trkpt>
      <trkpt lat="45.46818" lon="2.68389">
        <ele>1008.1</ele>
        <time>2015-04-07T15:21:11.037Z</time>
      </trkpt>
      <trkpt lat="45.4683" lon="2.68372">
        <ele>1008.1</ele>
        <time>2015-04-07T15:21:12.038Z</time>
      </trkpt>
      <trkpt lat="45.46842" lon="2.68353">
        <ele>1007.9</ele>
        <time>2015-04-07T15:21:13.038Z</time>
      </trkpt>
      <trkpt lat="45.46853" lon="2.68333">
        <ele>1007.8</ele>
        <time>2015-04-07T15:21:14.038Z</time>
      </trkpt>
      <trkpt lat="45.46864" lon="2.68313">
        <ele>1007.9</ele>
        <time>2015-04-07T15:21:15.035Z</time>
      </trkpt>
      <trkpt lat="45.46874" lon="2.68291">
        <ele>1008</ele>
        <time>2015-04-07T15:21:16.030Z</time>
      </trkpt>
      <trkpt lat="45.46884" lon="2.68269">
        <ele>1008.4</ele>
        <time>2015-04-07T15:21:17.032Z</time>
      </trkpt>
      <trkpt lat="45.46894" lon="2.68247">
        <ele>1008.8</ele>
        <time>2015-04-07T15:21:18.024Z</time>
      </trkpt>
      <trkpt lat="45.46904" lon="2.68226">
        <ele>1009.3</ele>
        <time>2015-04-07T15:21:19.046Z</time>
      </trkpt>
      <trkpt lat="45.46914" lon="2.68204">
        <ele>1009.4</ele>
        <time>2015-04-07T15:21:20.031Z</time>
      </trkpt>
      <trkpt lat="45.46924" lon="2.68184">
        <ele>1009.9</ele>
        <time>2015-04-07T15:21:21.037Z</time>
      </trkpt>
      <trkpt lat="45.46934" lon="2.68164">
        <ele>1010.4</ele>
        <time>2015-04-07T15:21:22.033Z</time>
      </trkpt>
      <trkpt lat="45.46944" lon="2.68146">
        <ele>1010.9</ele>
        <time>2015-04-07T15:21:23.044Z</time>
      </trkpt>
      <trkpt lat="45.46954" lon="2.68127">
        <ele>1011.6</ele>
        <time>2015-04-07T15:21:24.032Z</time>
      </trkpt>
      <trkpt lat="45.46965" lon="2.68107">
        <ele>1011.2</ele>
        <time>2015-04-07T15:21:25.027Z</time>
      </trkpt>
      <trkpt lat="45.46975" lon="2.68086">
        <ele>1010.7</ele>
        <time>2015-04-07T15:21:26.030Z</time>
      </trkpt>
      <trkpt lat="45.46983" lon="2.68066">
        <ele>1010.5</ele>
        <time>2015-04-07T15:21:27.034Z</time>
      </trkpt>
      <trkpt lat="45.46991" lon="2.68045">
        <ele>1009.9</ele>
        <time>2015-04-07T15:21:28.032Z</time>
      </trkpt>
      <trkpt lat="45.46999" lon="2.68022">
        <ele>1009.4</ele>
        <time>2015-04-07T15:21:29.028Z</time>
      </trkpt>
      <trkpt lat="45.47006" lon="2.67999">
        <ele>1008.8</ele>
        <time>2015-04-07T15:21:30.039Z</time>
      </trkpt>
      <trkpt lat="45.47013" lon="2.67975">
        <ele>1008.1</ele>
        <time>2015-04-07T15:21:31.041Z</time>
      </trkpt>
      <trkpt lat="45.4702" lon="2.67951">
        <ele>1007.4</ele>
        <time>2015-04-07T15:21:32.033Z</time>
      </trkpt>
      <trkpt lat="45.47026" lon="2.67928">
        <ele>1007</ele>
        <time>2015-04-07T15:21:33.035Z</time>
      </trkpt>
      <trkpt lat="45.47033" lon="2.67905">
        <ele>1006.7</ele>
        <time>2015-04-07T15:21:34.041Z</time>
      </trkpt>
      <trkpt lat="45.4704" lon="2.67883">
        <ele>1006.4</ele>
        <time>2015-04-07T15:21:35.035Z</time>
      </trkpt>
      <trkpt lat="45.47047" lon="2.6786">
        <ele>1005.9</ele>
        <time>2015-04-07T15:21:36.043Z</time>
      </trkpt>
      <trkpt lat="45.47053" lon="2.67838">
        <ele>1005.2</ele>
        <time>2015-04-07T15:21:37.058Z</time>
      </trkpt>
      <trkpt lat="45.47058" lon="2.67819">
        <ele>1004.4</ele>
        <time>2015-04-07T15:21:38.043Z</time>
      </trkpt>
      <trkpt lat="45.47064" lon="2.678">
        <ele>1003.5</ele>
        <time>2015-04-07T15:21:39.038Z</time>
      </trkpt>
      <trkpt lat="45.47068" lon="2.67783">
        <ele>1002.7</ele>
        <time>2015-04-07T15:21:40.036Z</time>
      </trkpt>
      <trkpt lat="45.47072" lon="2.67768">
        <ele>1002.3</ele>
        <time>2015-04-07T15:21:41.027Z</time>
      </trkpt>
      <trkpt lat="45.4708" lon="2.67757">
        <ele>1002.2</ele>
        <time>2015-04-07T15:21:42.022Z</time>
      </trkpt>
      <trkpt lat="45.4709" lon="2.67749">
        <ele>1002.3</ele>
        <time>2015-04-07T15:21:43.019Z</time>
      </trkpt>
      <trkpt lat="45.47101" lon="2.67746">
        <ele>1002.3</ele>
        <time>2015-04-07T15:21:44.024Z</time>
      </trkpt>
      <trkpt lat="45.47112" lon="2.67742">
        <ele>1002.1</ele>
        <time>2015-04-07T15:21:45.032Z</time>
      </trkpt>
      <trkpt lat="45.47124" lon="2.67738">
        <ele>1001.8</ele>
        <time>2015-04-07T15:21:46.040Z</time>
      </trkpt>
      <trkpt lat="45.47137" lon="2.67734">
        <ele>1001.8</ele>
        <time>2015-04-07T15:21:47.037Z</time>
      </trkpt>
      <trkpt lat="45.47151" lon="2.6773">
        <ele>1001.9</ele>
        <time>2015-04-07T15:21:48.025Z</time>
      </trkpt>
      <trkpt lat="45.47166" lon="2.67726">
        <ele>1002.2</ele>
        <time>2015-04-07T15:21:49.038Z</time>
      </trkpt>
      <trkpt lat="45.4718" lon="2.67723">
        <ele>1002.1</ele>
        <time>2015-04-07T15:21:50.034Z</time>
      </trkpt>
      <trkpt lat="45.47196" lon="2.67721">
        <ele>1001.9</ele>
        <time>2015-04-07T15:21:51.033Z</time>
      </trkpt>
      <trkpt lat="45.47213" lon="2.6772">
        <ele>1001.8</ele>
        <time>2015-04-07T15:21:52.034Z</time>
      </trkpt>
      <trkpt lat="45.47229" lon="2.67721">
        <ele>1001.9</ele>
        <time>2015-04-07T15:21:53.022Z</time>
      </trkpt>
      <trkpt lat="45.47245" lon="2.67722">
        <ele>1002</ele>
        <time>2015-04-07T15:21:54.037Z</time>
      </trkpt>
      <trkpt lat="45.47261" lon="2.67723">
        <ele>1002.2</ele>
        <time>2015-04-07T15:21:55.035Z</time>
      </trkpt>
      <trkpt lat="45.47276" lon="2.67726">
        <ele>1002.5</ele>
        <time>2015-04-07T15:21:56.034Z</time>
      </trkpt>
      <trkpt lat="45.4729" lon="2.67729">
        <ele>1002.8</ele>
        <time>2015-04-07T15:21:57.033Z</time>
      </trkpt>
      <trkpt lat="45.47303" lon="2.67732">
        <ele>1002.8</ele>
        <time>2015-04-07T15:21:58.036Z</time>
      </trkpt>
      <trkpt lat="45.47316" lon="2.67733">
        <ele>1002.6</ele>
        <time>2015-04-07T15:21:59.049Z</time>
      </trkpt>
      <trkpt lat="45.47327" lon="2.67728">
        <ele>1002.3</ele>
        <time>2015-04-07T15:22:00.034Z</time>
      </trkpt>
      <trkpt lat="45.47339" lon="2.67721">
        <ele>1002.2</ele>
        <time>2015-04-07T15:22:01.024Z</time>
      </trkpt>
      <trkpt lat="45.47351" lon="2.67712">
        <ele>1002.1</ele>
        <time>2015-04-07T15:22:02.024Z</time>
      </trkpt>
      <trkpt lat="45.47364" lon="2.67702">
        <ele>1001.8</ele>
        <time>2015-04-07T15:22:03.039Z</time>
      </trkpt>
      <trkpt lat="45.47377" lon="2.67691">
        <ele>1001.5</ele>
        <time>2015-04-07T15:22:04.038Z</time>
      </trkpt>
      <trkpt lat="45.47391" lon="2.67681">
        <ele>1001.6</ele>
        <time>2015-04-07T15:22:05.038Z</time>
      </trkpt>
      <trkpt lat="45.47405" lon="2.67673">
        <ele>1001.7</ele>
        <time>2015-04-07T15:22:06.038Z</time>
      </trkpt>
      <trkpt lat="45.4742" lon="2.67664">
        <ele>1001.7</ele>
        <time>2015-04-07T15:22:07.034Z</time>
      </trkpt>
      <trkpt lat="45.47434" lon="2.67656">
        <ele>1001.8</ele>
        <time>2015-04-07T15:22:08.049Z</time>
      </trkpt>
      <trkpt lat="45.47448" lon="2.67649">
        <ele>1001.9</ele>
        <time>2015-04-07T15:22:09.037Z</time>
      </trkpt>
      <trkpt lat="45.47462" lon="2.67642">
        <ele>1001.9</ele>
        <time>2015-04-07T15:22:10.036Z</time>
      </trkpt>
      <trkpt lat="45.47476" lon="2.67637">
        <ele>1001.9</ele>
        <time>2015-04-07T15:22:11.035Z</time>
      </trkpt>
      <trkpt lat="45.47492" lon="2.67635">
        <ele>1001.7</ele>
        <time>2015-04-07T15:22:12.039Z</time>
      </trkpt>
      <trkpt lat="45.47506" lon="2.67634">
        <ele>1001.5</ele>
        <time>2015-04-07T15:22:13.034Z</time>
      </trkpt>
      <trkpt lat="45.47518" lon="2.67633">
        <ele>1001.5</ele>
        <time>2015-04-07T15:22:14.038Z</time>
      </trkpt>
      <trkpt lat="45.47531" lon="2.67626">
        <ele>1001.4</ele>
        <time>2015-04-07T15:22:15.024Z</time>
      </trkpt>
      <trkpt lat="45.47544" lon="2.67618">
        <ele>1001.4</ele>
        <time>2015-04-07T15:22:16.045Z</time>
      </trkpt>
      <trkpt lat="45.47556" lon="2.67611">
        <ele>1001.5</ele>
        <time>2015-04-07T15:22:17.037Z</time>
      </trkpt>
      <trkpt lat="45.47569" lon="2.67603">
        <ele>1001.3</ele>
        <time>2015-04-07T15:22:18.037Z</time>
      </trkpt>
      <trkpt lat="45.47581" lon="2.67598">
        <ele>1001.4</ele>
        <time>2015-04-07T15:22:19.036Z</time>
      </trkpt>
      <trkpt lat="45.47592" lon="2.67593">
        <ele>1001.2</ele>
        <time>2015-04-07T15:22:20.021Z</time>
      </trkpt>
      <trkpt lat="45.47603" lon="2.67588">
        <ele>1001</ele>
        <time>2015-04-07T15:22:21.039Z</time>
      </trkpt>
      <trkpt lat="45.47612" lon="2.67578">
        <ele>1000.7</ele>
        <time>2015-04-07T15:22:22.031Z</time>
      </trkpt>
      <trkpt lat="45.47616" lon="2.67566">
        <ele>1000.3</ele>
        <time>2015-04-07T15:22:23.047Z</time>
      </trkpt>
      <trkpt lat="45.4762" lon="2.67551">
        <ele>999.7</ele>
        <time>2015-04-07T15:22:24.040Z</time>
      </trkpt>
      <trkpt lat="45.47622" lon="2.67533">
        <ele>998.8</ele>
        <time>2015-04-07T15:22:25.038Z</time>
      </trkpt>
      <trkpt lat="45.47624" lon="2.67514">
        <ele>998.1</ele>
        <time>2015-04-07T15:22:26.032Z</time>
      </trkpt>
      <trkpt lat="45.47626" lon="2.67494">
        <ele>997.7</ele>
        <time>2015-04-07T15:22:27.043Z</time>
      </trkpt>
      <trkpt lat="45.47628" lon="2.67474">
        <ele>997.5</ele>
        <time>2015-04-07T15:22:28.038Z</time>
      </trkpt>
      <trkpt lat="45.4763" lon="2.67454">
        <ele>997.4</ele>
        <time>2015-04-07T15:22:29.037Z</time>
      </trkpt>
      <trkpt lat="45.47631" lon="2.67432">
        <ele>997.4</ele>
        <time>2015-04-07T15:22:30.040Z</time>
      </trkpt>
      <trkpt lat="45.47632" lon="2.6741">
        <ele>997.5</ele>
        <time>2015-04-07T15:22:31.045Z</time>
      </trkpt>
      <trkpt lat="45.47633" lon="2.67389">
        <ele>997.4</ele>
        <time>2015-04-07T15:22:32.038Z</time>
      </trkpt>
      <trkpt lat="45.47634" lon="2.67368">
        <ele>997.5</ele>
        <time>2015-04-07T15:22:33.031Z</time>
      </trkpt>
      <trkpt lat="45.47639" lon="2.67347">
        <ele>997.6</ele>
        <time>2015-04-07T15:22:34.034Z</time>
      </trkpt>
      <trkpt lat="45.47644" lon="2.67327">
        <ele>997.8</ele>
        <time>2015-04-07T15:22:35.026Z</time>
      </trkpt>
      <trkpt lat="45.47649" lon="2.67308">
        <ele>997.7</ele>
        <time>2015-04-07T15:22:36.034Z</time>
      </trkpt>
      <trkpt lat="45.47655" lon="2.67288">
        <ele>997.5</ele>
        <time>2015-04-07T15:22:37.033Z</time>
      </trkpt>
      <trkpt lat="45.47661" lon="2.67268">
        <ele>997.3</ele>
        <time>2015-04-07T15:22:38.046Z</time>
      </trkpt>
      <trkpt lat="45.47667" lon="2.6725">
        <ele>997.1</ele>
        <time>2015-04-07T15:22:39.034Z</time>
      </trkpt>
      <trkpt lat="45.47674" lon="2.67233">
        <ele>997.2</ele>
        <time>2015-04-07T15:22:40.025Z</time>
      </trkpt>
      <trkpt lat="45.47682" lon="2.67215">
        <ele>997.5</ele>
        <time>2015-04-07T15:22:41.023Z</time>
      </trkpt>
      <trkpt lat="45.47691" lon="2.67197">
        <ele>997.8</ele>
        <time>2015-04-07T15:22:42.025Z</time>
      </trkpt>
      <trkpt lat="45.47701" lon="2.67181">
        <ele>997.7</ele>
        <time>2015-04-07T15:22:43.024Z</time>
      </trkpt>
      <trkpt lat="45.47711" lon="2.67166">
        <ele>997.1</ele>
        <time>2015-04-07T15:22:44.034Z</time>
      </trkpt>
      <trkpt lat="45.47721" lon="2.67151">
        <ele>996.5</ele>
        <time>2015-04-07T15:22:45.028Z</time>
      </trkpt>
      <trkpt lat="45.47729" lon="2.67135">
        <ele>996.3</ele>
        <time>2015-04-07T15:22:46.034Z</time>
      </trkpt>
      <trkpt lat="45.47736" lon="2.6712">
        <ele>996.4</ele>
        <time>2015-04-07T15:22:47.045Z</time>
      </trkpt>
      <trkpt lat="45.47745" lon="2.67109">
        <ele>996.3</ele>
        <time>2015-04-07T15:22:48.037Z</time>
      </trkpt>
      <trkpt lat="45.47757" lon="2.67102">
        <ele>996</ele>
        <time>2015-04-07T15:22:49.045Z</time>
      </trkpt>
      <trkpt lat="45.4777" lon="2.67096">
        <ele>995.7</ele>
        <time>2015-04-07T15:22:50.030Z</time>
      </trkpt>
      <trkpt lat="45.47784" lon="2.67092">
        <ele>995.3</ele>
        <time>2015-04-07T15:22:51.048Z</time>
      </trkpt>
      <trkpt lat="45.47798" lon="2.67089">
        <ele>994.8</ele>
        <time>2015-04-07T15:22:52.038Z</time>
      </trkpt>
      <trkpt lat="45.47811" lon="2.67086">
        <ele>993.8</ele>
        <time>2015-04-07T15:22:53.045Z</time>
      </trkpt>
      <trkpt lat="45.47823" lon="2.67083">
        <ele>992.9</ele>
        <time>2015-04-07T15:22:54.046Z</time>
      </trkpt>
      <trkpt lat="45.47837" lon="2.67079">
        <ele>991.8</ele>
        <time>2015-04-07T15:22:55.024Z</time>
      </trkpt>
      <trkpt lat="45.47849" lon="2.6707">
        <ele>991</ele>
        <time>2015-04-07T15:22:56.041Z</time>
      </trkpt>
      <trkpt lat="45.47863" lon="2.67059">
        <ele>990.5</ele>
        <time>2015-04-07T15:22:57.032Z</time>
      </trkpt>
      <trkpt lat="45.47876" lon="2.67049">
        <ele>989.7</ele>
        <time>2015-04-07T15:22:58.057Z</time>
      </trkpt>
      <trkpt lat="45.4789" lon="2.6704">
        <ele>988.8</ele>
        <time>2015-04-07T15:22:59.047Z</time>
      </trkpt>
      <trkpt lat="45.47903" lon="2.67032">
        <ele>988.7</ele>
        <time>2015-04-07T15:23:00.034Z</time>
      </trkpt>
      <trkpt lat="45.47915" lon="2.67025">
        <ele>989</ele>
        <time>2015-04-07T15:23:01.038Z</time>
      </trkpt>
      <trkpt lat="45.47927" lon="2.67017">
        <ele>989.2</ele>
        <time>2015-04-07T15:23:02.048Z</time>
      </trkpt>
      <trkpt lat="45.47937" lon="2.67004">
        <ele>989.6</ele>
        <time>2015-04-07T15:23:03.055Z</time>
      </trkpt>
      <trkpt lat="45.47944" lon="2.66988">
        <ele>989.9</ele>
        <time>2015-04-07T15:23:04.044Z</time>
      </trkpt>
      <trkpt lat="45.47949" lon="2.66971">
        <ele>990.1</ele>
        <time>2015-04-07T15:23:05.027Z</time>
      </trkpt>
      <trkpt lat="45.4795" lon="2.66952">
        <ele>989.9</ele>
        <time>2015-04-07T15:23:06.043Z</time>
      </trkpt>
      <trkpt lat="45.47951" lon="2.66932">
        <ele>989.6</ele>
        <time>2015-04-07T15:23:07.032Z</time>
      </trkpt>
      <trkpt lat="45.47953" lon="2.66912">
        <ele>989.3</ele>
        <time>2015-04-07T15:23:08.038Z</time>
      </trkpt>
      <trkpt lat="45.47955" lon="2.6689">
        <ele>989.4</ele>
        <time>2015-04-07T15:23:09.033Z</time>
      </trkpt>
      <trkpt lat="45.47958" lon="2.66867">
        <ele>989.4</ele>
        <time>2015-04-07T15:23:10.025Z</time>
      </trkpt>
      <trkpt lat="45.47962" lon="2.66844">
        <ele>989.5</ele>
        <time>2015-04-07T15:23:11.031Z</time>
      </trkpt>
      <trkpt lat="45.47967" lon="2.66822">
        <ele>989.3</ele>
        <time>2015-04-07T15:23:12.030Z</time>
      </trkpt>
      <trkpt lat="45.47972" lon="2.66801">
        <ele>989.3</ele>
        <time>2015-04-07T15:23:13.029Z</time>
      </trkpt>
      <trkpt lat="45.47977" lon="2.66781">
        <ele>989.3</ele>
        <time>2015-04-07T15:23:14.029Z</time>
      </trkpt>
      <trkpt lat="45.47981" lon="2.6676">
        <ele>988.9</ele>
        <time>2015-04-07T15:23:15.028Z</time>
      </trkpt>
      <trkpt lat="45.47984" lon="2.6674">
        <ele>988.2</ele>
        <time>2015-04-07T15:23:16.056Z</time>
      </trkpt>
      <trkpt lat="45.47984" lon="2.6672">
        <ele>987.7</ele>
        <time>2015-04-07T15:23:17.040Z</time>
      </trkpt>
      <trkpt lat="45.47984" lon="2.667">
        <ele>987.4</ele>
        <time>2015-04-07T15:23:18.045Z</time>
      </trkpt>
      <trkpt lat="45.47983" lon="2.66679">
        <ele>987.4</ele>
        <time>2015-04-07T15:23:19.035Z</time>
      </trkpt>
      <trkpt lat="45.47984" lon="2.66657">
        <ele>987.8</ele>
        <time>2015-04-07T15:23:20.024Z</time>
      </trkpt>
      <trkpt lat="45.47985" lon="2.66635">
        <ele>987.9</ele>
        <time>2015-04-07T15:23:21.046Z</time>
      </trkpt>
      <trkpt lat="45.47986" lon="2.66613">
        <ele>987.9</ele>
        <time>2015-04-07T15:23:22.050Z</time>
      </trkpt>
      <trkpt lat="45.47986" lon="2.66591">
        <ele>987.7</ele>
        <time>2015-04-07T15:23:23.034Z</time>
      </trkpt>
      <trkpt lat="45.4798" lon="2.6657">
        <ele>987.1</ele>
        <time>2015-04-07T15:23:24.041Z</time>
      </trkpt>
      <trkpt lat="45.47974" lon="2.6655">
        <ele>986.2</ele>
        <time>2015-04-07T15:23:25.033Z</time>
      </trkpt>
      <trkpt lat="45.47969" lon="2.66532">
        <ele>985.3</ele>
        <time>2015-04-07T15:23:26.050Z</time>
      </trkpt>
      <trkpt lat="45.47968" lon="2.66509">
        <ele>984.6</ele>
        <time>2015-04-07T15:23:27.045Z</time>
      </trkpt>
      <trkpt lat="45.47966" lon="2.66487">
        <ele>983.5</ele>
        <time>2015-04-07T15:23:28.038Z</time>
      </trkpt>
      <trkpt lat="45.47966" lon="2.66463">
        <ele>982.4</ele>
        <time>2015-04-07T15:23:29.025Z</time>
      </trkpt>
      <trkpt lat="45.47967" lon="2.66439">
        <ele>981.5</ele>
        <time>2015-04-07T15:23:30.033Z</time>
      </trkpt>
      <trkpt lat="45.47968" lon="2.66414">
        <ele>980.9</ele>
        <time>2015-04-07T15:23:31.052Z</time>
      </trkpt>
      <trkpt lat="45.47969" lon="2.6639">
        <ele>980.4</ele>
        <time>2015-04-07T15:23:32.043Z</time>
      </trkpt>
      <trkpt lat="45.47969" lon="2.66365">
        <ele>979.9</ele>
        <time>2015-04-07T15:23:33.053Z</time>
      </trkpt>
      <trkpt lat="45.47968" lon="2.66342">
        <ele>979.3</ele>
        <time>2015-04-07T15:23:34.024Z</time>
      </trkpt>
      <trkpt lat="45.47966" lon="2.66317">
        <ele>978.6</ele>
        <time>2015-04-07T15:23:35.030Z</time>
      </trkpt>
      <trkpt lat="45.47963" lon="2.66293">
        <ele>978.3</ele>
        <time>2015-04-07T15:23:36.054Z</time>
      </trkpt>
      <trkpt lat="45.47958" lon="2.6627">
        <ele>977.8</ele>
        <time>2015-04-07T15:23:37.046Z</time>
      </trkpt>
      <trkpt lat="45.47953" lon="2.66249">
        <ele>977</ele>
        <time>2015-04-07T15:23:38.032Z</time>
      </trkpt>
      <trkpt lat="45.47947" lon="2.66226">
        <ele>976.1</ele>
        <time>2015-04-07T15:23:39.023Z</time>
      </trkpt>
      <trkpt lat="45.4794" lon="2.66204">
        <ele>975.3</ele>
        <time>2015-04-07T15:23:40.023Z</time>
      </trkpt>
      <trkpt lat="45.47933" lon="2.66183">
        <ele>974.4</ele>
        <time>2015-04-07T15:23:41.037Z</time>
      </trkpt>
      <trkpt lat="45.47928" lon="2.66162">
        <ele>973.6</ele>
        <time>2015-04-07T15:23:42.025Z</time>
      </trkpt>
      <trkpt lat="45.47926" lon="2.66139">
        <ele>972.5</ele>
        <time>2015-04-07T15:23:43.023Z</time>
      </trkpt>
      <trkpt lat="45.47926" lon="2.66118">
        <ele>971.7</ele>
        <time>2015-04-07T15:23:44.045Z</time>
      </trkpt>
      <trkpt lat="45.4793" lon="2.66096">
        <ele>971.3</ele>
        <time>2015-04-07T15:23:45.044Z</time>
      </trkpt>
      <trkpt lat="45.47935" lon="2.66074">
        <ele>971.3</ele>
        <time>2015-04-07T15:23:46.037Z</time>
      </trkpt>
      <trkpt lat="45.47941" lon="2.66051">
        <ele>971.4</ele>
        <time>2015-04-07T15:23:47.047Z</time>
      </trkpt>
      <trkpt lat="45.47947" lon="2.66028">
        <ele>971.5</ele>
        <time>2015-04-07T15:23:48.033Z</time>
      </trkpt>
      <trkpt lat="45.47953" lon="2.66006">
        <ele>971.4</ele>
        <time>2015-04-07T15:23:49.034Z</time>
      </trkpt>
      <trkpt lat="45.47959" lon="2.65984">
        <ele>971.3</ele>
        <time>2015-04-07T15:23:50.024Z</time>
      </trkpt>
      <trkpt lat="45.47966" lon="2.65965">
        <ele>970.8</ele>
        <time>2015-04-07T15:23:51.039Z</time>
      </trkpt>
      <trkpt lat="45.47974" lon="2.65945">
        <ele>970.4</ele>
        <time>2015-04-07T15:23:52.046Z</time>
      </trkpt>
      <trkpt lat="45.47982" lon="2.65926">
        <ele>970</ele>
        <time>2015-04-07T15:23:53.047Z</time>
      </trkpt>
      <trkpt lat="45.47994" lon="2.6591">
        <ele>969.8</ele>
        <time>2015-04-07T15:23:54.037Z</time>
      </trkpt>
      <trkpt lat="45.48005" lon="2.65894">
        <ele>969.8</ele>
        <time>2015-04-07T15:23:55.021Z</time>
      </trkpt>
      <trkpt lat="45.48017" lon="2.65878">
        <ele>969.8</ele>
        <time>2015-04-07T15:23:56.049Z</time>
      </trkpt>
      <trkpt lat="45.48029" lon="2.65863">
        <ele>969.7</ele>
        <time>2015-04-07T15:23:57.032Z</time>
      </trkpt>
      <trkpt lat="45.4804" lon="2.65847">
        <ele>969.6</ele>
        <time>2015-04-07T15:23:58.038Z</time>
      </trkpt>
      <trkpt lat="45.48051" lon="2.6583">
        <ele>969.5</ele>
        <time>2015-04-07T15:23:59.037Z</time>
      </trkpt>
      <trkpt lat="45.48061" lon="2.65811">
        <ele>969.5</ele>
        <time>2015-04-07T15:24:00.023Z</time>
      </trkpt>
      <trkpt lat="45.48071" lon="2.65791">
        <ele>969.6</ele>
        <time>2015-04-07T15:24:01.031Z</time>
      </trkpt>
      <trkpt lat="45.48081" lon="2.65773">
        <ele>969.9</ele>
        <time>2015-04-07T15:24:02.038Z</time>
      </trkpt>
      <trkpt lat="45.4809" lon="2.65754">
        <ele>970.4</ele>
        <time>2015-04-07T15:24:03.047Z</time>
      </trkpt>
      <trkpt lat="45.48099" lon="2.65736">
        <ele>970.9</ele>
        <time>2015-04-07T15:24:04.037Z</time>
      </trkpt>
      <trkpt lat="45.48108" lon="2.65717">
        <ele>971.6</ele>
        <time>2015-04-07T15:24:05.029Z</time>
      </trkpt>
      <trkpt lat="45.48117" lon="2.65698">
        <ele>972.4</ele>
        <time>2015-04-07T15:24:06.036Z</time>
      </trkpt>
      <trkpt lat="45.48125" lon="2.6568">
        <ele>973.4</ele>
        <time>2015-04-07T15:24:07.038Z</time>
      </trkpt>
      <trkpt lat="45.48133" lon="2.65661">
        <ele>974</ele>
        <time>2015-04-07T15:24:08.035Z</time>
      </trkpt>
      <trkpt lat="45.48138" lon="2.65641">
        <ele>974.2</ele>
        <time>2015-04-07T15:24:09.032Z</time>
      </trkpt>
      <trkpt lat="45.48143" lon="2.65624">
        <ele>974.1</ele>
        <time>2015-04-07T15:24:10.020Z</time>
      </trkpt>
      <trkpt lat="45.48147" lon="2.65606">
        <ele>973.7</ele>
        <time>2015-04-07T15:24:11.038Z</time>
      </trkpt>
      <trkpt lat="45.48147" lon="2.65587">
        <ele>973.7</ele>
        <time>2015-04-07T15:24:12.030Z</time>
      </trkpt>
      <trkpt lat="45.48144" lon="2.65568">
        <ele>973.7</ele>
        <time>2015-04-07T15:24:13.037Z</time>
      </trkpt>
      <trkpt lat="45.4814" lon="2.65551">
        <ele>973.5</ele>
        <time>2015-04-07T15:24:14.033Z</time>
      </trkpt>
      <trkpt lat="45.48136" lon="2.65534">
        <ele>973.1</ele>
        <time>2015-04-07T15:24:15.027Z</time>
      </trkpt>
      <trkpt lat="45.48131" lon="2.65517">
        <ele>973</ele>
        <time>2015-04-07T15:24:16.039Z</time>
      </trkpt>
      <trkpt lat="45.48126" lon="2.65499">
        <ele>973</ele>
        <time>2015-04-07T15:24:17.038Z</time>
      </trkpt>
      <trkpt lat="45.48125" lon="2.65483">
        <ele>972.6</ele>
        <time>2015-04-07T15:24:18.028Z</time>
      </trkpt>
      <trkpt lat="45.48125" lon="2.65466">
        <ele>972.1</ele>
        <time>2015-04-07T15:24:19.046Z</time>
      </trkpt>
      <trkpt lat="45.48129" lon="2.65446">
        <ele>972.1</ele>
        <time>2015-04-07T15:24:20.028Z</time>
      </trkpt>
      <trkpt lat="45.48134" lon="2.65428">
        <ele>972.1</ele>
        <time>2015-04-07T15:24:21.038Z</time>
      </trkpt>
      <trkpt lat="45.48137" lon="2.65408">
        <ele>972.1</ele>
        <time>2015-04-07T15:24:22.036Z</time>
      </trkpt>
      <trkpt lat="45.48141" lon="2.6539">
        <ele>972</ele>
        <time>2015-04-07T15:24:23.034Z</time>
      </trkpt>
      <trkpt lat="45.48145" lon="2.65373">
        <ele>971.7</ele>
        <time>2015-04-07T15:24:24.042Z</time>
      </trkpt>
      <trkpt lat="45.4815" lon="2.65357">
        <ele>971.2</ele>
        <time>2015-04-07T15:24:25.032Z</time>
      </trkpt>
      <trkpt lat="45.48158" lon="2.65341">
        <ele>971.2</ele>
        <time>2015-04-07T15:24:26.024Z</time>
      </trkpt>
      <trkpt lat="45.48167" lon="2.65326">
        <ele>971.3</ele>
        <time>2015-04-07T15:24:27.048Z</time>
      </trkpt>
      <trkpt lat="45.48176" lon="2.65312">
        <ele>971.5</ele>
        <time>2015-04-07T15:24:28.035Z</time>
      </trkpt>
      <trkpt lat="45.48186" lon="2.65298">
        <ele>971.7</ele>
        <time>2015-04-07T15:24:29.036Z</time>
      </trkpt>
      <trkpt lat="45.48195" lon="2.65284">
        <ele>971.8</ele>
        <time>2015-04-07T15:24:30.030Z</time>
      </trkpt>
      <trkpt lat="45.48204" lon="2.6527">
        <ele>971.7</ele>
        <time>2015-04-07T15:24:31.033Z</time>
      </trkpt>
      <trkpt lat="45.48213" lon="2.65255">
        <ele>971.5</ele>
        <time>2015-04-07T15:24:32.040Z</time>
      </trkpt>
      <trkpt lat="45.48221" lon="2.65242">
        <ele>971.5</ele>
        <time>2015-04-07T15:24:33.047Z</time>
      </trkpt>
      <trkpt lat="45.48226" lon="2.65224">
        <ele>971.5</ele>
        <time>2015-04-07T15:24:34.049Z</time>
      </trkpt>
      <trkpt lat="45.48231" lon="2.65206">
        <ele>970.9</ele>
        <time>2015-04-07T15:24:35.036Z</time>
      </trkpt>
      <trkpt lat="45.48236" lon="2.65186">
        <ele>970.3</ele>
        <time>2015-04-07T15:24:36.034Z</time>
      </trkpt>
      <trkpt lat="45.48242" lon="2.65169">
        <ele>969.4</ele>
        <time>2015-04-07T15:24:37.036Z</time>
      </trkpt>
      <trkpt lat="45.4825" lon="2.65154">
        <ele>969</ele>
        <time>2015-04-07T15:24:38.035Z</time>
      </trkpt>
      <trkpt lat="45.48259" lon="2.65141">
        <ele>968.6</ele>
        <time>2015-04-07T15:24:39.024Z</time>
      </trkpt>
      <trkpt lat="45.4827" lon="2.65128">
        <ele>968.1</ele>
        <time>2015-04-07T15:24:40.025Z</time>
      </trkpt>
      <trkpt lat="45.48281" lon="2.65115">
        <ele>967.8</ele>
        <time>2015-04-07T15:24:41.023Z</time>
      </trkpt>
      <trkpt lat="45.48292" lon="2.65103">
        <ele>967.6</ele>
        <time>2015-04-07T15:24:42.023Z</time>
      </trkpt>
      <trkpt lat="45.48304" lon="2.6509">
        <ele>967.4</ele>
        <time>2015-04-07T15:24:43.037Z</time>
      </trkpt>
      <trkpt lat="45.48316" lon="2.65078">
        <ele>967.2</ele>
        <time>2015-04-07T15:24:44.055Z</time>
      </trkpt>
      <trkpt lat="45.48328" lon="2.65066">
        <ele>966.7</ele>
        <time>2015-04-07T15:24:45.037Z</time>
      </trkpt>
      <trkpt lat="45.48341" lon="2.65055">
        <ele>966.1</ele>
        <time>2015-04-07T15:24:46.051Z</time>
      </trkpt>
      <trkpt lat="45.48354" lon="2.65044">
        <ele>965.3</ele>
        <time>2015-04-07T15:24:47.045Z</time>
      </trkpt>
      <trkpt lat="45.48368" lon="2.65034">
        <ele>964.8</ele>
        <time>2015-04-07T15:24:48.029Z</time>
      </trkpt>
      <trkpt lat="45.48383" lon="2.65024">
        <ele>964.3</ele>
        <time>2015-04-07T15:24:49.034Z</time>
      </trkpt>
      <trkpt lat="45.48398" lon="2.65015">
        <ele>964</ele>
        <time>2015-04-07T15:24:50.033Z</time>
      </trkpt>
      <trkpt lat="45.48413" lon="2.65006">
        <ele>963.5</ele>
        <time>2015-04-07T15:24:51.040Z</time>
      </trkpt>
      <trkpt lat="45.48426" lon="2.65">
        <ele>962.9</ele>
        <time>2015-04-07T15:24:52.049Z</time>
      </trkpt>
      <trkpt lat="45.48439" lon="2.64998">
        <ele>961.9</ele>
        <time>2015-04-07T15:24:53.038Z</time>
      </trkpt>
      <trkpt lat="45.48453" lon="2.64996">
        <ele>960.8</ele>
        <time>2015-04-07T15:24:54.048Z</time>
      </trkpt>
      <trkpt lat="45.48468" lon="2.64993">
        <ele>959.9</ele>
        <time>2015-04-07T15:24:55.037Z</time>
      </trkpt>
      <trkpt lat="45.48483" lon="2.64988">
        <ele>959.2</ele>
        <time>2015-04-07T15:24:56.028Z</time>
      </trkpt>
      <trkpt lat="45.48498" lon="2.64983">
        <ele>958.7</ele>
        <time>2015-04-07T15:24:57.044Z</time>
      </trkpt>
      <trkpt lat="45.48513" lon="2.64977">
        <ele>958.3</ele>
        <time>2015-04-07T15:24:58.029Z</time>
      </trkpt>
      <trkpt lat="45.48527" lon="2.64971">
        <ele>958.1</ele>
        <time>2015-04-07T15:24:59.029Z</time>
      </trkpt>
      <trkpt lat="45.48541" lon="2.64965">
        <ele>957.9</ele>
        <time>2015-04-07T15:25:00.030Z</time>
      </trkpt>
      <trkpt lat="45.48555" lon="2.64957">
        <ele>958</ele>
        <time>2015-04-07T15:25:01.037Z</time>
      </trkpt>
      <trkpt lat="45.48567" lon="2.64946">
        <ele>958.5</ele>
        <time>2015-04-07T15:25:02.036Z</time>
      </trkpt>
      <trkpt lat="45.48578" lon="2.64933">
        <ele>958.9</ele>
        <time>2015-04-07T15:25:03.052Z</time>
      </trkpt>
      <trkpt lat="45.48586" lon="2.64918">
        <ele>959</ele>
        <time>2015-04-07T15:25:04.037Z</time>
      </trkpt>
      <trkpt lat="45.48595" lon="2.64901">
        <ele>959</ele>
        <time>2015-04-07T15:25:05.044Z</time>
      </trkpt>
      <trkpt lat="45.48603" lon="2.64883">
        <ele>958.9</ele>
        <time>2015-04-07T15:25:06.043Z</time>
      </trkpt>
      <trkpt lat="45.48611" lon="2.64865">
        <ele>958.8</ele>
        <time>2015-04-07T15:25:07.035Z</time>
      </trkpt>
      <trkpt lat="45.48619" lon="2.64847">
        <ele>958.6</ele>
        <time>2015-04-07T15:25:08.044Z</time>
      </trkpt>
      <trkpt lat="45.48629" lon="2.64831">
        <ele>957.8</ele>
        <time>2015-04-07T15:25:09.053Z</time>
      </trkpt>
      <trkpt lat="45.48639" lon="2.64815">
        <ele>957.1</ele>
        <time>2015-04-07T15:25:10.034Z</time>
      </trkpt>
      <trkpt lat="45.48649" lon="2.64799">
        <ele>956.4</ele>
        <time>2015-04-07T15:25:11.047Z</time>
      </trkpt>
      <trkpt lat="45.48659" lon="2.64783">
        <ele>956</ele>
        <time>2015-04-07T15:25:12.044Z</time>
      </trkpt>
      <trkpt lat="45.48664" lon="2.64764">
        <ele>955.7</ele>
        <time>2015-04-07T15:25:13.043Z</time>
      </trkpt>
      <trkpt lat="45.48668" lon="2.64747">
        <ele>955.4</ele>
        <time>2015-04-07T15:25:14.030Z</time>
      </trkpt>
      <trkpt lat="45.48673" lon="2.64727">
        <ele>955.3</ele>
        <time>2015-04-07T15:25:15.045Z</time>
      </trkpt>
      <trkpt lat="45.48676" lon="2.64707">
        <ele>955</ele>
        <time>2015-04-07T15:25:16.031Z</time>
      </trkpt>
      <trkpt lat="45.48679" lon="2.64685">
        <ele>954.7</ele>
        <time>2015-04-07T15:25:17.034Z</time>
      </trkpt>
      <trkpt lat="45.48681" lon="2.64665">
        <ele>954.4</ele>
        <time>2015-04-07T15:25:18.025Z</time>
      </trkpt>
      <trkpt lat="45.48685" lon="2.64644">
        <ele>954</ele>
        <time>2015-04-07T15:25:19.046Z</time>
      </trkpt>
      <trkpt lat="45.48691" lon="2.64626">
        <ele>953.5</ele>
        <time>2015-04-07T15:25:20.070Z</time>
      </trkpt>
      <trkpt lat="45.48697" lon="2.64608">
        <ele>953.3</ele>
        <time>2015-04-07T15:25:21.035Z</time>
      </trkpt>
      <trkpt lat="45.48705" lon="2.64591">
        <ele>953.2</ele>
        <time>2015-04-07T15:25:22.021Z</time>
      </trkpt>
      <trkpt lat="45.48715" lon="2.64579">
        <ele>952.7</ele>
        <time>2015-04-07T15:25:23.142Z</time>
      </trkpt>
      <trkpt lat="45.48727" lon="2.64567">
        <ele>952.2</ele>
        <time>2015-04-07T15:25:24.169Z</time>
      </trkpt>
      <trkpt lat="45.4874" lon="2.64564">
        <ele>951.6</ele>
        <time>2015-04-07T15:25:25.145Z</time>
      </trkpt>
      <trkpt lat="45.48754" lon="2.6456">
        <ele>951.5</ele>
        <time>2015-04-07T15:25:26.153Z</time>
      </trkpt>
      <trkpt lat="45.48768" lon="2.64556">
        <ele>951.5</ele>
        <time>2015-04-07T15:25:27.145Z</time>
      </trkpt>
      <trkpt lat="45.48779" lon="2.64548">
        <ele>951.6</ele>
        <time>2015-04-07T15:25:28.141Z</time>
      </trkpt>
      <trkpt lat="45.48791" lon="2.64539">
        <ele>951.6</ele>
        <time>2015-04-07T15:25:29.138Z</time>
      </trkpt>
      <trkpt lat="45.488" lon="2.6453">
        <ele>952.1</ele>
        <time>2015-04-07T15:25:30.140Z</time>
      </trkpt>
      <trkpt lat="45.4881" lon="2.6452">
        <ele>952.7</ele>
        <time>2015-04-07T15:25:31.138Z</time>
      </trkpt>
      <trkpt lat="45.4882" lon="2.64512">
        <ele>953.2</ele>
        <time>2015-04-07T15:25:32.172Z</time>
      </trkpt>
      <trkpt lat="45.48831" lon="2.64503">
        <ele>954.1</ele>
        <time>2015-04-07T15:25:33.170Z</time>
      </trkpt>
      <trkpt lat="45.48843" lon="2.64493">
        <ele>954.7</ele>
        <time>2015-04-07T15:25:34.161Z</time>
      </trkpt>
      <trkpt lat="45.48854" lon="2.64482">
        <ele>955.3</ele>
        <time>2015-04-07T15:25:35.146Z</time>
      </trkpt>
      <trkpt lat="45.48866" lon="2.64471">
        <ele>955.6</ele>
        <time>2015-04-07T15:25:36.164Z</time>
      </trkpt>
      <trkpt lat="45.48877" lon="2.64461">
        <ele>955.4</ele>
        <time>2015-04-07T15:25:37.165Z</time>
      </trkpt>
      <trkpt lat="45.48888" lon="2.64453">
        <ele>955.2</ele>
        <time>2015-04-07T15:25:38.159Z</time>
      </trkpt>
      <trkpt lat="45.48903" lon="2.64444">
        <ele>955</ele>
        <time>2015-04-07T15:25:39.147Z</time>
      </trkpt>
      <trkpt lat="45.48917" lon="2.64435">
        <ele>954.6</ele>
        <time>2015-04-07T15:25:40.148Z</time>
      </trkpt>
      <trkpt lat="45.48931" lon="2.64425">
        <ele>953.9</ele>
        <time>2015-04-07T15:25:41.148Z</time>
      </trkpt>
      <trkpt lat="45.48945" lon="2.64415">
        <ele>953.5</ele>
        <time>2015-04-07T15:25:42.166Z</time>
      </trkpt>
      <trkpt lat="45.4896" lon="2.64406">
        <ele>952.8</ele>
        <time>2015-04-07T15:25:43.165Z</time>
      </trkpt>
      <trkpt lat="45.48974" lon="2.64397">
        <ele>952.5</ele>
        <time>2015-04-07T15:25:44.167Z</time>
      </trkpt>
      <trkpt lat="45.48989" lon="2.64389">
        <ele>951.8</ele>
        <time>2015-04-07T15:25:45.170Z</time>
      </trkpt>
      <trkpt lat="45.49005" lon="2.6438">
        <ele>951.3</ele>
        <time>2015-04-07T15:25:46.161Z</time>
      </trkpt>
      <trkpt lat="45.49019" lon="2.64372">
        <ele>950.7</ele>
        <time>2015-04-07T15:25:47.161Z</time>
      </trkpt>
      <trkpt lat="45.49034" lon="2.64365">
        <ele>950</ele>
        <time>2015-04-07T15:25:48.159Z</time>
      </trkpt>
      <trkpt lat="45.4905" lon="2.64354">
        <ele>949.1</ele>
        <time>2015-04-07T15:25:49.164Z</time>
      </trkpt>
      <trkpt lat="45.49064" lon="2.64347">
        <ele>948.2</ele>
        <time>2015-04-07T15:25:50.170Z</time>
      </trkpt>
      <trkpt lat="45.49076" lon="2.64339">
        <ele>947.6</ele>
        <time>2015-04-07T15:25:51.165Z</time>
      </trkpt>
      <trkpt lat="45.49089" lon="2.64331">
        <ele>947</ele>
        <time>2015-04-07T15:25:52.173Z</time>
      </trkpt>
      <trkpt lat="45.49102" lon="2.64323">
        <ele>946.4</ele>
        <time>2015-04-07T15:25:53.170Z</time>
      </trkpt>
      <trkpt lat="45.49116" lon="2.64316">
        <ele>945.5</ele>
        <time>2015-04-07T15:25:54.167Z</time>
      </trkpt>
      <trkpt lat="45.49127" lon="2.64309">
        <ele>945</ele>
        <time>2015-04-07T15:25:55.169Z</time>
      </trkpt>
      <trkpt lat="45.49139" lon="2.64301">
        <ele>944.1</ele>
        <time>2015-04-07T15:25:56.158Z</time>
      </trkpt>
      <trkpt lat="45.49147" lon="2.64289">
        <ele>943.4</ele>
        <time>2015-04-07T15:25:57.159Z</time>
      </trkpt>
      <trkpt lat="45.49154" lon="2.64276">
        <ele>942.5</ele>
        <time>2015-04-07T15:25:58.160Z</time>
      </trkpt>
      <trkpt lat="45.49163" lon="2.64259">
        <ele>941.5</ele>
        <time>2015-04-07T15:25:59.158Z</time>
      </trkpt>
      <trkpt lat="45.49173" lon="2.64242">
        <ele>940.8</ele>
        <time>2015-04-07T15:26:00.148Z</time>
      </trkpt>
      <trkpt lat="45.49183" lon="2.64232">
        <ele>939.5</ele>
        <time>2015-04-07T15:26:01.175Z</time>
      </trkpt>
      <trkpt lat="45.49192" lon="2.64222">
        <ele>938.7</ele>
        <time>2015-04-07T15:26:02.169Z</time>
      </trkpt>
      <trkpt lat="45.49205" lon="2.64215">
        <ele>937.7</ele>
        <time>2015-04-07T15:26:03.163Z</time>
      </trkpt>
      <trkpt lat="45.49217" lon="2.64208">
        <ele>937.1</ele>
        <time>2015-04-07T15:26:04.169Z</time>
      </trkpt>
      <trkpt lat="45.49228" lon="2.64198">
        <ele>936.6</ele>
        <time>2015-04-07T15:26:05.157Z</time>
      </trkpt>
      <trkpt lat="45.4924" lon="2.64186">
        <ele>936.1</ele>
        <time>2015-04-07T15:26:06.155Z</time>
      </trkpt>
      <trkpt lat="45.49248" lon="2.64169">
        <ele>935.7</ele>
        <time>2015-04-07T15:26:07.168Z</time>
      </trkpt>
      <trkpt lat="45.49257" lon="2.64151">
        <ele>935.2</ele>
        <time>2015-04-07T15:26:08.156Z</time>
      </trkpt>
      <trkpt lat="45.49266" lon="2.64133">
        <ele>934.8</ele>
        <time>2015-04-07T15:26:09.159Z</time>
      </trkpt>
      <trkpt lat="45.49276" lon="2.64116">
        <ele>934.8</ele>
        <time>2015-04-07T15:26:10.177Z</time>
      </trkpt>
      <trkpt lat="45.49291" lon="2.641">
        <ele>934.6</ele>
        <time>2015-04-07T15:26:11.157Z</time>
      </trkpt>
      <trkpt lat="45.49304" lon="2.64086">
        <ele>934.2</ele>
        <time>2015-04-07T15:26:12.160Z</time>
      </trkpt>
      <trkpt lat="45.49318" lon="2.64071">
        <ele>933.6</ele>
        <time>2015-04-07T15:26:13.159Z</time>
      </trkpt>
      <trkpt lat="45.49333" lon="2.64057">
        <ele>932.9</ele>
        <time>2015-04-07T15:26:14.162Z</time>
      </trkpt>
      <trkpt lat="45.49347" lon="2.64043">
        <ele>932.3</ele>
        <time>2015-04-07T15:26:15.156Z</time>
      </trkpt>
      <trkpt lat="45.49362" lon="2.64029">
        <ele>931.9</ele>
        <time>2015-04-07T15:26:16.160Z</time>
      </trkpt>
      <trkpt lat="45.49377" lon="2.64016">
        <ele>931.4</ele>
        <time>2015-04-07T15:26:17.157Z</time>
      </trkpt>
      <trkpt lat="45.49391" lon="2.64003">
        <ele>931.2</ele>
        <time>2015-04-07T15:26:18.161Z</time>
      </trkpt>
      <trkpt lat="45.49406" lon="2.63989">
        <ele>931.1</ele>
        <time>2015-04-07T15:26:19.177Z</time>
      </trkpt>
      <trkpt lat="45.4942" lon="2.63976">
        <ele>931.3</ele>
        <time>2015-04-07T15:26:20.177Z</time>
      </trkpt>
      <trkpt lat="45.49434" lon="2.63962">
        <ele>931.2</ele>
        <time>2015-04-07T15:26:21.170Z</time>
      </trkpt>
      <trkpt lat="45.49448" lon="2.6395">
        <ele>931</ele>
        <time>2015-04-07T15:26:22.161Z</time>
      </trkpt>
      <trkpt lat="45.49462" lon="2.63938">
        <ele>930.5</ele>
        <time>2015-04-07T15:26:23.166Z</time>
      </trkpt>
      <trkpt lat="45.49475" lon="2.63925">
        <ele>930.1</ele>
        <time>2015-04-07T15:26:24.163Z</time>
      </trkpt>
      <trkpt lat="45.49488" lon="2.63912">
        <ele>929.6</ele>
        <time>2015-04-07T15:26:25.176Z</time>
      </trkpt>
      <trkpt lat="45.495" lon="2.63897">
        <ele>929.1</ele>
        <time>2015-04-07T15:26:26.162Z</time>
      </trkpt>
      <trkpt lat="45.49511" lon="2.63883">
        <ele>928.6</ele>
        <time>2015-04-07T15:26:27.158Z</time>
      </trkpt>
      <trkpt lat="45.49522" lon="2.63869">
        <ele>928.2</ele>
        <time>2015-04-07T15:26:28.170Z</time>
      </trkpt>
      <trkpt lat="45.49533" lon="2.63856">
        <ele>928</ele>
        <time>2015-04-07T15:26:29.172Z</time>
      </trkpt>
      <trkpt lat="45.49544" lon="2.63842">
        <ele>928</ele>
        <time>2015-04-07T15:26:30.149Z</time>
      </trkpt>
      <trkpt lat="45.49554" lon="2.63829">
        <ele>927.7</ele>
        <time>2015-04-07T15:26:31.161Z</time>
      </trkpt>
      <trkpt lat="45.49563" lon="2.63816">
        <ele>927.4</ele>
        <time>2015-04-07T15:26:32.184Z</time>
      </trkpt>
      <trkpt lat="45.49572" lon="2.63802">
        <ele>927.4</ele>
        <time>2015-04-07T15:26:33.161Z</time>
      </trkpt>
      <trkpt lat="45.49581" lon="2.63788">
        <ele>927.4</ele>
        <time>2015-04-07T15:26:34.177Z</time>
      </trkpt>
      <trkpt lat="45.4959" lon="2.63774">
        <ele>927.3</ele>
        <time>2015-04-07T15:26:35.159Z</time>
      </trkpt>
      <trkpt lat="45.496" lon="2.63762">
        <ele>927.4</ele>
        <time>2015-04-07T15:26:36.171Z</time>
      </trkpt>
      <trkpt lat="45.49609" lon="2.6375">
        <ele>927.7</ele>
        <time>2015-04-07T15:26:37.152Z</time>
      </trkpt>
      <trkpt lat="45.49619" lon="2.63737">
        <ele>928.4</ele>
        <time>2015-04-07T15:26:38.152Z</time>
      </trkpt>
      <trkpt lat="45.49627" lon="2.63726">
        <ele>928.8</ele>
        <time>2015-04-07T15:26:39.163Z</time>
      </trkpt>
      <trkpt lat="45.49636" lon="2.63716">
        <ele>929.1</ele>
        <time>2015-04-07T15:26:40.149Z</time>
      </trkpt>
      <trkpt lat="45.49644" lon="2.63706">
        <ele>929.2</ele>
        <time>2015-04-07T15:26:41.140Z</time>
      </trkpt>
      <trkpt lat="45.49652" lon="2.63698">
        <ele>929.6</ele>
        <time>2015-04-07T15:26:42.138Z</time>
      </trkpt>
      <trkpt lat="45.49662" lon="2.63693">
        <ele>929.7</ele>
        <time>2015-04-07T15:26:43.159Z</time>
      </trkpt>
      <trkpt lat="45.49672" lon="2.63692">
        <ele>929.7</ele>
        <time>2015-04-07T15:26:44.158Z</time>
      </trkpt>
      <trkpt lat="45.49683" lon="2.63692">
        <ele>930.1</ele>
        <time>2015-04-07T15:26:45.168Z</time>
      </trkpt>
      <trkpt lat="45.49694" lon="2.63692">
        <ele>930.2</ele>
        <time>2015-04-07T15:26:46.170Z</time>
      </trkpt>
      <trkpt lat="45.49704" lon="2.63693">
        <ele>929.7</ele>
        <time>2015-04-07T15:26:47.159Z</time>
      </trkpt>
      <trkpt lat="45.49715" lon="2.63693">
        <ele>929.1</ele>
        <time>2015-04-07T15:26:48.170Z</time>
      </trkpt>
      <trkpt lat="45.49727" lon="2.63693">
        <ele>928.4</ele>
        <time>2015-04-07T15:26:49.160Z</time>
      </trkpt>
      <trkpt lat="45.49737" lon="2.63688">
        <ele>927</ele>
        <time>2015-04-07T15:26:50.163Z</time>
      </trkpt>
      <trkpt lat="45.49746" lon="2.63682">
        <ele>925.4</ele>
        <time>2015-04-07T15:26:51.157Z</time>
      </trkpt>
      <trkpt lat="45.49754" lon="2.63677">
        <ele>924</ele>
        <time>2015-04-07T15:26:52.173Z</time>
      </trkpt>
      <trkpt lat="45.49762" lon="2.6367">
        <ele>922.7</ele>
        <time>2015-04-07T15:26:53.171Z</time>
      </trkpt>
      <trkpt lat="45.49768" lon="2.6366">
        <ele>921.7</ele>
        <time>2015-04-07T15:26:54.154Z</time>
      </trkpt>
      <trkpt lat="45.49769" lon="2.63649">
        <ele>920.7</ele>
        <time>2015-04-07T15:26:55.171Z</time>
      </trkpt>
      <trkpt lat="45.49768" lon="2.63635">
        <ele>919.8</ele>
        <time>2015-04-07T15:26:56.176Z</time>
      </trkpt>
      <trkpt lat="45.49765" lon="2.6362">
        <ele>918.8</ele>
        <time>2015-04-07T15:26:57.162Z</time>
      </trkpt>
      <trkpt lat="45.49763" lon="2.63606">
        <ele>918.1</ele>
        <time>2015-04-07T15:26:58.158Z</time>
      </trkpt>
      <trkpt lat="45.49759" lon="2.63593">
        <ele>917.2</ele>
        <time>2015-04-07T15:26:59.165Z</time>
      </trkpt>
      <trkpt lat="45.49757" lon="2.6358">
        <ele>916.4</ele>
        <time>2015-04-07T15:27:00.147Z</time>
      </trkpt>
      <trkpt lat="45.49758" lon="2.63566">
        <ele>915.5</ele>
        <time>2015-04-07T15:27:01.161Z</time>
      </trkpt>
      <trkpt lat="45.49761" lon="2.63555">
        <ele>914.8</ele>
        <time>2015-04-07T15:27:02.168Z</time>
      </trkpt>
      <trkpt lat="45.49766" lon="2.63541">
        <ele>914.5</ele>
        <time>2015-04-07T15:27:03.170Z</time>
      </trkpt>
      <trkpt lat="45.49772" lon="2.63527">
        <ele>914.1</ele>
        <time>2015-04-07T15:27:04.159Z</time>
      </trkpt>
      <trkpt lat="45.49777" lon="2.63514">
        <ele>913.9</ele>
        <time>2015-04-07T15:27:05.159Z</time>
      </trkpt>
      <trkpt lat="45.49783" lon="2.635">
        <ele>913.8</ele>
        <time>2015-04-07T15:27:06.156Z</time>
      </trkpt>
      <trkpt lat="45.49789" lon="2.63487">
        <ele>913.9</ele>
        <time>2015-04-07T15:27:07.162Z</time>
      </trkpt>
      <trkpt lat="45.49794" lon="2.63474">
        <ele>913.6</ele>
        <time>2015-04-07T15:27:08.169Z</time>
      </trkpt>
      <trkpt lat="45.49801" lon="2.63462">
        <ele>913.7</ele>
        <time>2015-04-07T15:27:09.155Z</time>
      </trkpt>
      <trkpt lat="45.49808" lon="2.63449">
        <ele>913.9</ele>
        <time>2015-04-07T15:27:10.168Z</time>
      </trkpt>
      <trkpt lat="45.49816" lon="2.63438">
        <ele>914.2</ele>
        <time>2015-04-07T15:27:11.154Z</time>
      </trkpt>
      <trkpt lat="45.49824" lon="2.63427">
        <ele>914.6</ele>
        <time>2015-04-07T15:27:12.151Z</time>
      </trkpt>
      <trkpt lat="45.49833" lon="2.63416">
        <ele>914.9</ele>
        <time>2015-04-07T15:27:13.171Z</time>
      </trkpt>
      <trkpt lat="45.49841" lon="2.63406">
        <ele>915.3</ele>
        <time>2015-04-07T15:27:14.174Z</time>
      </trkpt>
      <trkpt lat="45.49849" lon="2.63396">
        <ele>915.2</ele>
        <time>2015-04-07T15:27:15.182Z</time>
      </trkpt>
      <trkpt lat="45.49856" lon="2.63386">
        <ele>915</ele>
        <time>2015-04-07T15:27:16.161Z</time>
      </trkpt>
      <trkpt lat="45.49863" lon="2.63375">
        <ele>914.7</ele>
        <time>2015-04-07T15:27:17.170Z</time>
      </trkpt>
      <trkpt lat="45.4987" lon="2.63363">
        <ele>914.8</ele>
        <time>2015-04-07T15:27:18.162Z</time>
      </trkpt>
      <trkpt lat="45.49877" lon="2.6335">
        <ele>915.3</ele>
        <time>2015-04-07T15:27:19.169Z</time>
      </trkpt>
      <trkpt lat="45.49883" lon="2.63337">
        <ele>915.7</ele>
        <time>2015-04-07T15:27:20.177Z</time>
      </trkpt>
      <trkpt lat="45.49889" lon="2.63325">
        <ele>916.3</ele>
        <time>2015-04-07T15:27:21.169Z</time>
      </trkpt>
      <trkpt lat="45.49895" lon="2.63312">
        <ele>916.8</ele>
        <time>2015-04-07T15:27:22.166Z</time>
      </trkpt>
      <trkpt lat="45.499" lon="2.63301">
        <ele>917.2</ele>
        <time>2015-04-07T15:27:23.163Z</time>
      </trkpt>
      <trkpt lat="45.49905" lon="2.63291">
        <ele>917.5</ele>
        <time>2015-04-07T15:27:24.160Z</time>
      </trkpt>
      <trkpt lat="45.4991" lon="2.63281">
        <ele>917.9</ele>
        <time>2015-04-07T15:27:25.159Z</time>
      </trkpt>
      <trkpt lat="45.49914" lon="2.63271">
        <ele>918.1</ele>
        <time>2015-04-07T15:27:26.155Z</time>
      </trkpt>
      <trkpt lat="45.49916" lon="2.63262">
        <ele>918.3</ele>
        <time>2015-04-07T15:27:27.161Z</time>
      </trkpt>
      <trkpt lat="45.49917" lon="2.63252">
        <ele>918</ele>
        <time>2015-04-07T15:27:28.153Z</time>
      </trkpt>
      <trkpt lat="45.49916" lon="2.63243">
        <ele>917.6</ele>
        <time>2015-04-07T15:27:29.170Z</time>
      </trkpt>
      <trkpt lat="45.49916" lon="2.63235">
        <ele>917.5</ele>
        <time>2015-04-07T15:27:30.151Z</time>
      </trkpt>
      <trkpt lat="45.49916" lon="2.63226">
        <ele>917.1</ele>
        <time>2015-04-07T15:27:31.163Z</time>
      </trkpt>
      <trkpt lat="45.49916" lon="2.63217">
        <ele>916.5</ele>
        <time>2015-04-07T15:27:32.161Z</time>
      </trkpt>
      <trkpt lat="45.49915" lon="2.63209">
        <ele>915.7</ele>
        <time>2015-04-07T15:27:33.158Z</time>
      </trkpt>
      <trkpt lat="45.49916" lon="2.63197">
        <ele>915.9</ele>
        <time>2015-04-07T15:27:35.170Z</time>
      </trkpt>
      <trkpt lat="45.49917" lon="2.63188">
        <ele>916.4</ele>
        <time>2015-04-07T15:27:36.153Z</time>
      </trkpt>
      <trkpt lat="45.49923" lon="2.63184">
        <ele>917.3</ele>
        <time>2015-04-07T15:27:38.147Z</time>
      </trkpt>
      <trkpt lat="45.49928" lon="2.63183">
        <ele>917.8</ele>
        <time>2015-04-07T15:27:39.149Z</time>
      </trkpt>
      <trkpt lat="45.49934" lon="2.63183">
        <ele>918.7</ele>
        <time>2015-04-07T15:27:40.145Z</time>
      </trkpt>
      <trkpt lat="45.49941" lon="2.63183">
        <ele>919.3</ele>
        <time>2015-04-07T15:27:41.143Z</time>
      </trkpt>
      <trkpt lat="45.49949" lon="2.63181">
        <ele>919.6</ele>
        <time>2015-04-07T15:27:42.164Z</time>
      </trkpt>
      <trkpt lat="45.49958" lon="2.6318">
        <ele>919.8</ele>
        <time>2015-04-07T15:27:43.161Z</time>
      </trkpt>
      <trkpt lat="45.49968" lon="2.63179">
        <ele>919.6</ele>
        <time>2015-04-07T15:27:44.162Z</time>
      </trkpt>
      <trkpt lat="45.49978" lon="2.63178">
        <ele>919.3</ele>
        <time>2015-04-07T15:27:45.143Z</time>
      </trkpt>
      <trkpt lat="45.49988" lon="2.63178">
        <ele>918.8</ele>
        <time>2015-04-07T15:27:46.156Z</time>
      </trkpt>
      <trkpt lat="45.49999" lon="2.63178">
        <ele>918.5</ele>
        <time>2015-04-07T15:27:47.180Z</time>
      </trkpt>
      <trkpt lat="45.50009" lon="2.63181">
        <ele>918.6</ele>
        <time>2015-04-07T15:27:48.161Z</time>
      </trkpt>
      <trkpt lat="45.50018" lon="2.63188">
        <ele>918.6</ele>
        <time>2015-04-07T15:27:49.153Z</time>
      </trkpt>
      <trkpt lat="45.50027" lon="2.63197">
        <ele>918.8</ele>
        <time>2015-04-07T15:27:50.172Z</time>
      </trkpt>
      <trkpt lat="45.50035" lon="2.63209">
        <ele>918.7</ele>
        <time>2015-04-07T15:27:51.159Z</time>
      </trkpt>
      <trkpt lat="45.50044" lon="2.63221">
        <ele>918.7</ele>
        <time>2015-04-07T15:27:52.160Z</time>
      </trkpt>
      <trkpt lat="45.50053" lon="2.63235">
        <ele>919.1</ele>
        <time>2015-04-07T15:27:53.171Z</time>
      </trkpt>
      <trkpt lat="45.50061" lon="2.63249">
        <ele>919.5</ele>
        <time>2015-04-07T15:27:54.159Z</time>
      </trkpt>
      <trkpt lat="45.50069" lon="2.63263">
        <ele>919.7</ele>
        <time>2015-04-07T15:27:55.168Z</time>
      </trkpt>
      <trkpt lat="45.50077" lon="2.63276">
        <ele>920</ele>
        <time>2015-04-07T15:27:56.159Z</time>
      </trkpt>
      <trkpt lat="45.50086" lon="2.6329">
        <ele>920.5</ele>
        <time>2015-04-07T15:27:57.165Z</time>
      </trkpt>
      <trkpt lat="45.50093" lon="2.63305">
        <ele>921.3</ele>
        <time>2015-04-07T15:27:58.162Z</time>
      </trkpt>
      <trkpt lat="45.50098" lon="2.63322">
        <ele>922.6</ele>
        <time>2015-04-07T15:27:59.151Z</time>
      </trkpt>
      <trkpt lat="45.50101" lon="2.63338">
        <ele>923.4</ele>
        <time>2015-04-07T15:28:00.198Z</time>
      </trkpt>
      <trkpt lat="45.50105" lon="2.63357">
        <ele>924.2</ele>
        <time>2015-04-07T15:28:01.143Z</time>
      </trkpt>
      <trkpt lat="45.50108" lon="2.63375">
        <ele>925.3</ele>
        <time>2015-04-07T15:28:02.152Z</time>
      </trkpt>
      <trkpt lat="45.50112" lon="2.63394">
        <ele>925.9</ele>
        <time>2015-04-07T15:28:03.138Z</time>
      </trkpt>
      <trkpt lat="45.50116" lon="2.63415">
        <ele>927.4</ele>
        <time>2015-04-07T15:28:04.141Z</time>
      </trkpt>
      <trkpt lat="45.50124" lon="2.63434">
        <ele>929.4</ele>
        <time>2015-04-07T15:28:05.161Z</time>
      </trkpt>
      <trkpt lat="45.50133" lon="2.63453">
        <ele>931.1</ele>
        <time>2015-04-07T15:28:06.155Z</time>
      </trkpt>
      <trkpt lat="45.50141" lon="2.63471">
        <ele>932.6</ele>
        <time>2015-04-07T15:28:07.161Z</time>
      </trkpt>
      <trkpt lat="45.5015" lon="2.63488">
        <ele>933.9</ele>
        <time>2015-04-07T15:28:08.174Z</time>
      </trkpt>
      <trkpt lat="45.50157" lon="2.63504">
        <ele>935.1</ele>
        <time>2015-04-07T15:28:09.164Z</time>
      </trkpt>
      <trkpt lat="45.50159" lon="2.63523">
        <ele>935.7</ele>
        <time>2015-04-07T15:28:10.168Z</time>
      </trkpt>
      <trkpt lat="45.50161" lon="2.63542">
        <ele>935.9</ele>
        <time>2015-04-07T15:28:11.150Z</time>
      </trkpt>
      <trkpt lat="45.50162" lon="2.63561">
        <ele>936.2</ele>
        <time>2015-04-07T15:28:12.168Z</time>
      </trkpt>
      <trkpt lat="45.50164" lon="2.6358">
        <ele>937</ele>
        <time>2015-04-07T15:28:13.161Z</time>
      </trkpt>
      <trkpt lat="45.50165" lon="2.63599">
        <ele>937.5</ele>
        <time>2015-04-07T15:28:14.159Z</time>
      </trkpt>
      <trkpt lat="45.50166" lon="2.63618">
        <ele>938</ele>
        <time>2015-04-07T15:28:15.162Z</time>
      </trkpt>
      <trkpt lat="45.50169" lon="2.63638">
        <ele>938.5</ele>
        <time>2015-04-07T15:28:16.157Z</time>
      </trkpt>
      <trkpt lat="45.5017" lon="2.63656">
        <ele>939.1</ele>
        <time>2015-04-07T15:28:17.144Z</time>
      </trkpt>
      <trkpt lat="45.50167" lon="2.63674">
        <ele>939.8</ele>
        <time>2015-04-07T15:28:18.167Z</time>
      </trkpt>
      <trkpt lat="45.50164" lon="2.63692">
        <ele>940.5</ele>
        <time>2015-04-07T15:28:19.163Z</time>
      </trkpt>
      <trkpt lat="45.50161" lon="2.6371">
        <ele>941.5</ele>
        <time>2015-04-07T15:28:20.171Z</time>
      </trkpt>
      <trkpt lat="45.50162" lon="2.63729">
        <ele>942.5</ele>
        <time>2015-04-07T15:28:21.162Z</time>
      </trkpt>
      <trkpt lat="45.50164" lon="2.63749">
        <ele>943.3</ele>
        <time>2015-04-07T15:28:22.174Z</time>
      </trkpt>
      <trkpt lat="45.5017" lon="2.63769">
        <ele>944.3</ele>
        <time>2015-04-07T15:28:23.172Z</time>
      </trkpt>
      <trkpt lat="45.50175" lon="2.6379">
        <ele>945.5</ele>
        <time>2015-04-07T15:28:24.161Z</time>
      </trkpt>
      <trkpt lat="45.5018" lon="2.6381">
        <ele>946.8</ele>
        <time>2015-04-07T15:28:25.172Z</time>
      </trkpt>
      <trkpt lat="45.50183" lon="2.63828">
        <ele>947.7</ele>
        <time>2015-04-07T15:28:26.154Z</time>
      </trkpt>
      <trkpt lat="45.50183" lon="2.63849">
        <ele>948.5</ele>
        <time>2015-04-07T15:28:27.165Z</time>
      </trkpt>
      <trkpt lat="45.50183" lon="2.6387">
        <ele>949.3</ele>
        <time>2015-04-07T15:28:28.162Z</time>
      </trkpt>
      <trkpt lat="45.50179" lon="2.6389">
        <ele>949.8</ele>
        <time>2015-04-07T15:28:29.167Z</time>
      </trkpt>
      <trkpt lat="45.50174" lon="2.63911">
        <ele>950.4</ele>
        <time>2015-04-07T15:28:30.159Z</time>
      </trkpt>
      <trkpt lat="45.50169" lon="2.63933">
        <ele>951</ele>
        <time>2015-04-07T15:28:31.161Z</time>
      </trkpt>
      <trkpt lat="45.50165" lon="2.63955">
        <ele>951.7</ele>
        <time>2015-04-07T15:28:32.169Z</time>
      </trkpt>
      <trkpt lat="45.50161" lon="2.63978">
        <ele>951.8</ele>
        <time>2015-04-07T15:28:33.157Z</time>
      </trkpt>
      <trkpt lat="45.50159" lon="2.63999">
        <ele>951.1</ele>
        <time>2015-04-07T15:28:34.162Z</time>
      </trkpt>
      <trkpt lat="45.50158" lon="2.64022">
        <ele>950.7</ele>
        <time>2015-04-07T15:28:35.168Z</time>
      </trkpt>
      <trkpt lat="45.50158" lon="2.64044">
        <ele>951.2</ele>
        <time>2015-04-07T15:28:36.157Z</time>
      </trkpt>
      <trkpt lat="45.50158" lon="2.64067">
        <ele>952</ele>
        <time>2015-04-07T15:28:37.148Z</time>
      </trkpt>
      <trkpt lat="45.5016" lon="2.64089">
        <ele>952.4</ele>
        <time>2015-04-07T15:28:38.148Z</time>
      </trkpt>
      <trkpt lat="45.50161" lon="2.6411">
        <ele>953.3</ele>
        <time>2015-04-07T15:28:39.151Z</time>
      </trkpt>
      <trkpt lat="45.50163" lon="2.6413">
        <ele>954.5</ele>
        <time>2015-04-07T15:28:40.144Z</time>
      </trkpt>
      <trkpt lat="45.50166" lon="2.64152">
        <ele>955.7</ele>
        <time>2015-04-07T15:28:41.163Z</time>
      </trkpt>
      <trkpt lat="45.50173" lon="2.64174">
        <ele>956.6</ele>
        <time>2015-04-07T15:28:42.155Z</time>
      </trkpt>
      <trkpt lat="45.5018" lon="2.64195">
        <ele>957.6</ele>
        <time>2015-04-07T15:28:43.170Z</time>
      </trkpt>
      <trkpt lat="45.50187" lon="2.64218">
        <ele>958.8</ele>
        <time>2015-04-07T15:28:44.160Z</time>
      </trkpt>
      <trkpt lat="45.50192" lon="2.64239">
        <ele>960</ele>
        <time>2015-04-07T15:28:45.167Z</time>
      </trkpt>
      <trkpt lat="45.50194" lon="2.64259">
        <ele>960.9</ele>
        <time>2015-04-07T15:28:46.161Z</time>
      </trkpt>
      <trkpt lat="45.50195" lon="2.64279">
        <ele>961.5</ele>
        <time>2015-04-07T15:28:47.175Z</time>
      </trkpt>
      <trkpt lat="45.50196" lon="2.64298">
        <ele>962.1</ele>
        <time>2015-04-07T15:28:48.162Z</time>
      </trkpt>
      <trkpt lat="45.50198" lon="2.64318">
        <ele>962.4</ele>
        <time>2015-04-07T15:28:49.170Z</time>
      </trkpt>
      <trkpt lat="45.50203" lon="2.64338">
        <ele>962.5</ele>
        <time>2015-04-07T15:28:50.168Z</time>
      </trkpt>
      <trkpt lat="45.5021" lon="2.64355">
        <ele>962.5</ele>
        <time>2015-04-07T15:28:51.158Z</time>
      </trkpt>
      <trkpt lat="45.50219" lon="2.64369">
        <ele>962.7</ele>
        <time>2015-04-07T15:28:52.181Z</time>
      </trkpt>
      <trkpt lat="45.50229" lon="2.64383">
        <ele>963.2</ele>
        <time>2015-04-07T15:28:53.170Z</time>
      </trkpt>
      <trkpt lat="45.50239" lon="2.64394">
        <ele>963.8</ele>
        <time>2015-04-07T15:28:54.161Z</time>
      </trkpt>
      <trkpt lat="45.5025" lon="2.64405">
        <ele>964.1</ele>
        <time>2015-04-07T15:28:55.159Z</time>
      </trkpt>
      <trkpt lat="45.50262" lon="2.64415">
        <ele>964.1</ele>
        <time>2015-04-07T15:28:56.169Z</time>
      </trkpt>
      <trkpt lat="45.50275" lon="2.64426">
        <ele>964</ele>
        <time>2015-04-07T15:28:57.154Z</time>
      </trkpt>
      <trkpt lat="45.50288" lon="2.64437">
        <ele>964.1</ele>
        <time>2015-04-07T15:28:58.152Z</time>
      </trkpt>
      <trkpt lat="45.503" lon="2.64449">
        <ele>964.1</ele>
        <time>2015-04-07T15:28:59.174Z</time>
      </trkpt>
      <trkpt lat="45.50309" lon="2.64464">
        <ele>964.6</ele>
        <time>2015-04-07T15:29:00.161Z</time>
      </trkpt>
      <trkpt lat="45.50318" lon="2.64481">
        <ele>965.3</ele>
        <time>2015-04-07T15:29:01.157Z</time>
      </trkpt>
      <trkpt lat="45.50324" lon="2.64499">
        <ele>966.3</ele>
        <time>2015-04-07T15:29:02.166Z</time>
      </trkpt>
      <trkpt lat="45.50331" lon="2.64518">
        <ele>967.5</ele>
        <time>2015-04-07T15:29:03.161Z</time>
      </trkpt>
      <trkpt lat="45.50338" lon="2.64536">
        <ele>968.7</ele>
        <time>2015-04-07T15:29:04.172Z</time>
      </trkpt>
      <trkpt lat="45.50346" lon="2.64553">
        <ele>969.8</ele>
        <time>2015-04-07T15:29:05.159Z</time>
      </trkpt>
      <trkpt lat="45.50357" lon="2.64564">
        <ele>970.6</ele>
        <time>2015-04-07T15:29:06.155Z</time>
      </trkpt>
      <trkpt lat="45.5037" lon="2.64571">
        <ele>971.1</ele>
        <time>2015-04-07T15:29:07.158Z</time>
      </trkpt>
      <trkpt lat="45.50382" lon="2.64578">
        <ele>971.4</ele>
        <time>2015-04-07T15:29:08.165Z</time>
      </trkpt>
      <trkpt lat="45.50397" lon="2.64584">
        <ele>971.6</ele>
        <time>2015-04-07T15:29:09.171Z</time>
      </trkpt>
      <trkpt lat="45.50412" lon="2.6459">
        <ele>971.8</ele>
        <time>2015-04-07T15:29:10.160Z</time>
      </trkpt>
      <trkpt lat="45.50428" lon="2.64597">
        <ele>972</ele>
        <time>2015-04-07T15:29:11.159Z</time>
      </trkpt>
      <trkpt lat="45.50444" lon="2.64603">
        <ele>972.2</ele>
        <time>2015-04-07T15:29:12.178Z</time>
      </trkpt>
      <trkpt lat="45.50461" lon="2.6461">
        <ele>972.4</ele>
        <time>2015-04-07T15:29:13.182Z</time>
      </trkpt>
      <trkpt lat="45.50479" lon="2.64617">
        <ele>972.6</ele>
        <time>2015-04-07T15:29:14.177Z</time>
      </trkpt>
      <trkpt lat="45.50497" lon="2.64624">
        <ele>972.8</ele>
        <time>2015-04-07T15:29:15.157Z</time>
      </trkpt>
      <trkpt lat="45.50513" lon="2.64631">
        <ele>972.9</ele>
        <time>2015-04-07T15:29:16.168Z</time>
      </trkpt>
      <trkpt lat="45.50531" lon="2.64638">
        <ele>973.2</ele>
        <time>2015-04-07T15:29:17.165Z</time>
      </trkpt>
      <trkpt lat="45.5055" lon="2.64645">
        <ele>973.4</ele>
        <time>2015-04-07T15:29:18.163Z</time>
      </trkpt>
      <trkpt lat="45.50568" lon="2.64653">
        <ele>973.4</ele>
        <time>2015-04-07T15:29:19.171Z</time>
      </trkpt>
      <trkpt lat="45.50586" lon="2.6466">
        <ele>973.2</ele>
        <time>2015-04-07T15:29:20.161Z</time>
      </trkpt>
      <trkpt lat="45.50604" lon="2.64668">
        <ele>972.9</ele>
        <time>2015-04-07T15:29:21.170Z</time>
      </trkpt>
      <trkpt lat="45.50622" lon="2.64676">
        <ele>972.6</ele>
        <time>2015-04-07T15:29:22.187Z</time>
      </trkpt>
      <trkpt lat="45.5064" lon="2.64683">
        <ele>972.3</ele>
        <time>2015-04-07T15:29:23.159Z</time>
      </trkpt>
      <trkpt lat="45.50659" lon="2.6469">
        <ele>972.3</ele>
        <time>2015-04-07T15:29:24.164Z</time>
      </trkpt>
      <trkpt lat="45.50676" lon="2.64697">
        <ele>972</ele>
        <time>2015-04-07T15:29:25.162Z</time>
      </trkpt>
      <trkpt lat="45.50694" lon="2.64706">
        <ele>972</ele>
        <time>2015-04-07T15:29:26.175Z</time>
      </trkpt>
      <trkpt lat="45.5071" lon="2.64716">
        <ele>971.9</ele>
        <time>2015-04-07T15:29:27.163Z</time>
      </trkpt>
      <trkpt lat="45.50725" lon="2.64729">
        <ele>972</ele>
        <time>2015-04-07T15:29:28.163Z</time>
      </trkpt>
      <trkpt lat="45.5074" lon="2.64743">
        <ele>972.3</ele>
        <time>2015-04-07T15:29:29.171Z</time>
      </trkpt>
      <trkpt lat="45.50756" lon="2.64759">
        <ele>972.8</ele>
        <time>2015-04-07T15:29:30.150Z</time>
      </trkpt>
      <trkpt lat="45.5077" lon="2.64776">
        <ele>973.1</ele>
        <time>2015-04-07T15:29:31.147Z</time>
      </trkpt>
      <trkpt lat="45.50784" lon="2.64794">
        <ele>973.4</ele>
        <time>2015-04-07T15:29:32.157Z</time>
      </trkpt>
      <trkpt lat="45.50795" lon="2.64812">
        <ele>973.2</ele>
        <time>2015-04-07T15:29:33.177Z</time>
      </trkpt>
      <trkpt lat="45.50807" lon="2.6483">
        <ele>972.8</ele>
        <time>2015-04-07T15:29:34.174Z</time>
      </trkpt>
      <trkpt lat="45.5082" lon="2.64849">
        <ele>972.5</ele>
        <time>2015-04-07T15:29:35.174Z</time>
      </trkpt>
      <trkpt lat="45.50832" lon="2.64868">
        <ele>972.1</ele>
        <time>2015-04-07T15:29:36.171Z</time>
      </trkpt>
      <trkpt lat="45.50845" lon="2.64887">
        <ele>971.9</ele>
        <time>2015-04-07T15:29:37.149Z</time>
      </trkpt>
      <trkpt lat="45.50858" lon="2.64906">
        <ele>971.7</ele>
        <time>2015-04-07T15:29:38.151Z</time>
      </trkpt>
      <trkpt lat="45.5087" lon="2.64925">
        <ele>971.6</ele>
        <time>2015-04-07T15:29:39.148Z</time>
      </trkpt>
      <trkpt lat="45.50882" lon="2.64942">
        <ele>971.2</ele>
        <time>2015-04-07T15:29:40.161Z</time>
      </trkpt>
      <trkpt lat="45.50894" lon="2.64959">
        <ele>971</ele>
        <time>2015-04-07T15:29:41.168Z</time>
      </trkpt>
      <trkpt lat="45.50906" lon="2.64974">
        <ele>970.9</ele>
        <time>2015-04-07T15:29:42.169Z</time>
      </trkpt>
      <trkpt lat="45.5092" lon="2.64989">
        <ele>971</ele>
        <time>2015-04-07T15:29:43.160Z</time>
      </trkpt>
      <trkpt lat="45.50934" lon="2.65003">
        <ele>971.1</ele>
        <time>2015-04-07T15:29:44.170Z</time>
      </trkpt>
      <trkpt lat="45.50949" lon="2.65017">
        <ele>971.2</ele>
        <time>2015-04-07T15:29:45.159Z</time>
      </trkpt>
      <trkpt lat="45.50965" lon="2.6503">
        <ele>971.3</ele>
        <time>2015-04-07T15:29:46.162Z</time>
      </trkpt>
      <trkpt lat="45.5098" lon="2.65043">
        <ele>970.7</ele>
        <time>2015-04-07T15:29:47.162Z</time>
      </trkpt>
      <trkpt lat="45.50996" lon="2.65056">
        <ele>970</ele>
        <time>2015-04-07T15:29:48.149Z</time>
      </trkpt>
      <trkpt lat="45.51013" lon="2.65069">
        <ele>969.4</ele>
        <time>2015-04-07T15:29:49.170Z</time>
      </trkpt>
      <trkpt lat="45.5103" lon="2.65083">
        <ele>968.9</ele>
        <time>2015-04-07T15:29:50.181Z</time>
      </trkpt>
      <trkpt lat="45.51047" lon="2.65097">
        <ele>968.4</ele>
        <time>2015-04-07T15:29:51.158Z</time>
      </trkpt>
      <trkpt lat="45.51064" lon="2.6511">
        <ele>967.8</ele>
        <time>2015-04-07T15:29:52.151Z</time>
      </trkpt>
      <trkpt lat="45.51081" lon="2.65124">
        <ele>967.2</ele>
        <time>2015-04-07T15:29:53.179Z</time>
      </trkpt>
      <trkpt lat="45.51097" lon="2.65137">
        <ele>966.5</ele>
        <time>2015-04-07T15:29:54.137Z</time>
      </trkpt>
      <trkpt lat="45.51114" lon="2.65151">
        <ele>965.7</ele>
        <time>2015-04-07T15:29:55.163Z</time>
      </trkpt>
      <trkpt lat="45.51132" lon="2.65165">
        <ele>964.7</ele>
        <time>2015-04-07T15:29:56.171Z</time>
      </trkpt>
      <trkpt lat="45.5115" lon="2.65179">
        <ele>963.7</ele>
        <time>2015-04-07T15:29:57.157Z</time>
      </trkpt>
      <trkpt lat="45.51167" lon="2.65192">
        <ele>962.9</ele>
        <time>2015-04-07T15:29:58.159Z</time>
      </trkpt>
      <trkpt lat="45.51185" lon="2.65203">
        <ele>962.2</ele>
        <time>2015-04-07T15:29:59.160Z</time>
      </trkpt>
      <trkpt lat="45.51204" lon="2.65215">
        <ele>961.5</ele>
        <time>2015-04-07T15:30:00.150Z</time>
      </trkpt>
      <trkpt lat="45.51223" lon="2.65227">
        <ele>961.2</ele>
        <time>2015-04-07T15:30:01.158Z</time>
      </trkpt>
      <trkpt lat="45.51241" lon="2.65238">
        <ele>960.8</ele>
        <time>2015-04-07T15:30:02.171Z</time>
      </trkpt>
      <trkpt lat="45.5126" lon="2.65249">
        <ele>960.3</ele>
        <time>2015-04-07T15:30:03.153Z</time>
      </trkpt>
      <trkpt lat="45.51279" lon="2.6526">
        <ele>960.1</ele>
        <time>2015-04-07T15:30:04.172Z</time>
      </trkpt>
      <trkpt lat="45.51297" lon="2.6527">
        <ele>960.1</ele>
        <time>2015-04-07T15:30:05.171Z</time>
      </trkpt>
      <trkpt lat="45.51315" lon="2.65281">
        <ele>960.1</ele>
        <time>2015-04-07T15:30:06.156Z</time>
      </trkpt>
      <trkpt lat="45.51333" lon="2.65291">
        <ele>960</ele>
        <time>2015-04-07T15:30:07.182Z</time>
      </trkpt>
      <trkpt lat="45.51351" lon="2.65301">
        <ele>959.9</ele>
        <time>2015-04-07T15:30:08.170Z</time>
      </trkpt>
      <trkpt lat="45.51368" lon="2.65311">
        <ele>959.6</ele>
        <time>2015-04-07T15:30:09.159Z</time>
      </trkpt>
      <trkpt lat="45.51384" lon="2.65321">
        <ele>959.5</ele>
        <time>2015-04-07T15:30:10.168Z</time>
      </trkpt>
      <trkpt lat="45.514" lon="2.6533">
        <ele>959.6</ele>
        <time>2015-04-07T15:30:11.162Z</time>
      </trkpt>
      <trkpt lat="45.51416" lon="2.65339">
        <ele>959.8</ele>
        <time>2015-04-07T15:30:12.164Z</time>
      </trkpt>
      <trkpt lat="45.5143" lon="2.65348">
        <ele>960.3</ele>
        <time>2015-04-07T15:30:13.158Z</time>
      </trkpt>
      <trkpt lat="45.51444" lon="2.65358">
        <ele>960.7</ele>
        <time>2015-04-07T15:30:14.155Z</time>
      </trkpt>
      <trkpt lat="45.51459" lon="2.6537">
        <ele>961.2</ele>
        <time>2015-04-07T15:30:15.165Z</time>
      </trkpt>
      <trkpt lat="45.51474" lon="2.65382">
        <ele>961.4</ele>
        <time>2015-04-07T15:30:16.161Z</time>
      </trkpt>
      <trkpt lat="45.51487" lon="2.65395">
        <ele>961.4</ele>
        <time>2015-04-07T15:30:17.171Z</time>
      </trkpt>
      <trkpt lat="45.515" lon="2.65407">
        <ele>961.2</ele>
        <time>2015-04-07T15:30:18.162Z</time>
      </trkpt>
      <trkpt lat="45.51513" lon="2.65419">
        <ele>960.6</ele>
        <time>2015-04-07T15:30:19.155Z</time>
      </trkpt>
      <trkpt lat="45.51525" lon="2.65423">
        <ele>959.7</ele>
        <time>2015-04-07T15:30:20.168Z</time>
      </trkpt>
      <trkpt lat="45.51539" lon="2.65422">
        <ele>958.8</ele>
        <time>2015-04-07T15:30:21.162Z</time>
      </trkpt>
      <trkpt lat="45.5155" lon="2.65416">
        <ele>957.9</ele>
        <time>2015-04-07T15:30:22.170Z</time>
      </trkpt>
      <trkpt lat="45.5156" lon="2.65409">
        <ele>957.3</ele>
        <time>2015-04-07T15:30:23.158Z</time>
      </trkpt>
      <trkpt lat="45.51571" lon="2.654">
        <ele>956.9</ele>
        <time>2015-04-07T15:30:24.173Z</time>
      </trkpt>
      <trkpt lat="45.51582" lon="2.65392">
        <ele>957.1</ele>
        <time>2015-04-07T15:30:25.159Z</time>
      </trkpt>
      <trkpt lat="45.51597" lon="2.65388">
        <ele>957.1</ele>
        <time>2015-04-07T15:30:26.161Z</time>
      </trkpt>
      <trkpt lat="45.51611" lon="2.65386">
        <ele>957.1</ele>
        <time>2015-04-07T15:30:27.158Z</time>
      </trkpt>
      <trkpt lat="45.51626" lon="2.65384">
        <ele>957</ele>
        <time>2015-04-07T15:30:28.169Z</time>
      </trkpt>
      <trkpt lat="45.51641" lon="2.65384">
        <ele>957.1</ele>
        <time>2015-04-07T15:30:29.164Z</time>
      </trkpt>
      <trkpt lat="45.51654" lon="2.65384">
        <ele>956.9</ele>
        <time>2015-04-07T15:30:30.172Z</time>
      </trkpt>
      <trkpt lat="45.51666" lon="2.65389">
        <ele>956.5</ele>
        <time>2015-04-07T15:30:31.155Z</time>
      </trkpt>
      <trkpt lat="45.51677" lon="2.65396">
        <ele>956.1</ele>
        <time>2015-04-07T15:30:32.170Z</time>
      </trkpt>
      <trkpt lat="45.51687" lon="2.65408">
        <ele>955.6</ele>
        <time>2015-04-07T15:30:33.165Z</time>
      </trkpt>
      <trkpt lat="45.51694" lon="2.65422">
        <ele>955.8</ele>
        <time>2015-04-07T15:30:34.163Z</time>
      </trkpt>
      <trkpt lat="45.51698" lon="2.6544">
        <ele>955.8</ele>
        <time>2015-04-07T15:30:35.170Z</time>
      </trkpt>
      <trkpt lat="45.51701" lon="2.65458">
        <ele>955.2</ele>
        <time>2015-04-07T15:30:36.151Z</time>
      </trkpt>
      <trkpt lat="45.51698" lon="2.65475">
        <ele>954.7</ele>
        <time>2015-04-07T15:30:37.149Z</time>
      </trkpt>
      <trkpt lat="45.51691" lon="2.65492">
        <ele>953.7</ele>
        <time>2015-04-07T15:30:38.148Z</time>
      </trkpt>
      <trkpt lat="45.51682" lon="2.65505">
        <ele>952.6</ele>
        <time>2015-04-07T15:30:39.162Z</time>
      </trkpt>
      <trkpt lat="45.51672" lon="2.65516">
        <ele>951.5</ele>
        <time>2015-04-07T15:30:40.171Z</time>
      </trkpt>
      <trkpt lat="45.51663" lon="2.65527">
        <ele>950.8</ele>
        <time>2015-04-07T15:30:41.171Z</time>
      </trkpt>
      <trkpt lat="45.51654" lon="2.65536">
        <ele>950.7</ele>
        <time>2015-04-07T15:30:42.181Z</time>
      </trkpt>
      <trkpt lat="45.51645" lon="2.65547">
        <ele>950.2</ele>
        <time>2015-04-07T15:30:43.169Z</time>
      </trkpt>
      <trkpt lat="45.51636" lon="2.6556">
        <ele>949.8</ele>
        <time>2015-04-07T15:30:44.165Z</time>
      </trkpt>
      <trkpt lat="45.51628" lon="2.65573">
        <ele>949.6</ele>
        <time>2015-04-07T15:30:45.137Z</time>
      </trkpt>
      <trkpt lat="45.51621" lon="2.65587">
        <ele>949.2</ele>
        <time>2015-04-07T15:30:46.149Z</time>
      </trkpt>
      <trkpt lat="45.51618" lon="2.65607">
        <ele>948.8</ele>
        <time>2015-04-07T15:30:47.160Z</time>
      </trkpt>
      <trkpt lat="45.51615" lon="2.65626">
        <ele>948.9</ele>
        <time>2015-04-07T15:30:48.158Z</time>
      </trkpt>
      <trkpt lat="45.51613" lon="2.65645">
        <ele>948.7</ele>
        <time>2015-04-07T15:30:49.171Z</time>
      </trkpt>
      <trkpt lat="45.5161" lon="2.65666">
        <ele>948.6</ele>
        <time>2015-04-07T15:30:50.149Z</time>
      </trkpt>
      <trkpt lat="45.51607" lon="2.65688">
        <ele>948.5</ele>
        <time>2015-04-07T15:30:51.172Z</time>
      </trkpt>
      <trkpt lat="45.51604" lon="2.65711">
        <ele>948</ele>
        <time>2015-04-07T15:30:52.160Z</time>
      </trkpt>
      <trkpt lat="45.51601" lon="2.65735">
        <ele>947.2</ele>
        <time>2015-04-07T15:30:53.178Z</time>
      </trkpt>
      <trkpt lat="45.51598" lon="2.65758">
        <ele>946.4</ele>
        <time>2015-04-07T15:30:54.157Z</time>
      </trkpt>
      <trkpt lat="45.51595" lon="2.65783">
        <ele>945.3</ele>
        <time>2015-04-07T15:30:55.163Z</time>
      </trkpt>
      <trkpt lat="45.51592" lon="2.65808">
        <ele>944</ele>
        <time>2015-04-07T15:30:56.166Z</time>
      </trkpt>
      <trkpt lat="45.51588" lon="2.65831">
        <ele>942.2</ele>
        <time>2015-04-07T15:30:57.159Z</time>
      </trkpt>
      <trkpt lat="45.51585" lon="2.65854">
        <ele>940</ele>
        <time>2015-04-07T15:30:58.169Z</time>
      </trkpt>
      <trkpt lat="45.51581" lon="2.65875">
        <ele>938.2</ele>
        <time>2015-04-07T15:30:59.162Z</time>
      </trkpt>
      <trkpt lat="45.51578" lon="2.65897">
        <ele>936.4</ele>
        <time>2015-04-07T15:31:00.161Z</time>
      </trkpt>
      <trkpt lat="45.51575" lon="2.65919">
        <ele>934.6</ele>
        <time>2015-04-07T15:31:01.158Z</time>
      </trkpt>
      <trkpt lat="45.51571" lon="2.65942">
        <ele>932.6</ele>
        <time>2015-04-07T15:31:02.172Z</time>
      </trkpt>
      <trkpt lat="45.51568" lon="2.65964">
        <ele>930.9</ele>
        <time>2015-04-07T15:31:03.171Z</time>
      </trkpt>
      <trkpt lat="45.51565" lon="2.65987">
        <ele>929.3</ele>
        <time>2015-04-07T15:31:04.155Z</time>
      </trkpt>
      <trkpt lat="45.51563" lon="2.66009">
        <ele>927.9</ele>
        <time>2015-04-07T15:31:05.156Z</time>
      </trkpt>
      <trkpt lat="45.51566" lon="2.66033">
        <ele>926.7</ele>
        <time>2015-04-07T15:31:06.142Z</time>
      </trkpt>
      <trkpt lat="45.51572" lon="2.66055">
        <ele>925.4</ele>
        <time>2015-04-07T15:31:07.177Z</time>
      </trkpt>
      <trkpt lat="45.51579" lon="2.66075">
        <ele>924.2</ele>
        <time>2015-04-07T15:31:08.154Z</time>
      </trkpt>
      <trkpt lat="45.51591" lon="2.66091">
        <ele>923.6</ele>
        <time>2015-04-07T15:31:09.166Z</time>
      </trkpt>
      <trkpt lat="45.51606" lon="2.66103">
        <ele>923.3</ele>
        <time>2015-04-07T15:31:10.174Z</time>
      </trkpt>
      <trkpt lat="45.51621" lon="2.66115">
        <ele>923.4</ele>
        <time>2015-04-07T15:31:11.160Z</time>
      </trkpt>
      <trkpt lat="45.51637" lon="2.66125">
        <ele>923.6</ele>
        <time>2015-04-07T15:31:12.168Z</time>
      </trkpt>
      <trkpt lat="45.51654" lon="2.66134">
        <ele>923.4</ele>
        <time>2015-04-07T15:31:13.160Z</time>
      </trkpt>
      <trkpt lat="45.51672" lon="2.66142">
        <ele>923</ele>
        <time>2015-04-07T15:31:14.167Z</time>
      </trkpt>
      <trkpt lat="45.5169" lon="2.66151">
        <ele>922.5</ele>
        <time>2015-04-07T15:31:15.155Z</time>
      </trkpt>
      <trkpt lat="45.5171" lon="2.66159">
        <ele>922</ele>
        <time>2015-04-07T15:31:16.150Z</time>
      </trkpt>
      <trkpt lat="45.51729" lon="2.66167">
        <ele>921.5</ele>
        <time>2015-04-07T15:31:17.153Z</time>
      </trkpt>
      <trkpt lat="45.51747" lon="2.66176">
        <ele>921.1</ele>
        <time>2015-04-07T15:31:18.171Z</time>
      </trkpt>
      <trkpt lat="45.51766" lon="2.66185">
        <ele>921.2</ele>
        <time>2015-04-07T15:31:19.159Z</time>
      </trkpt>
      <trkpt lat="45.51785" lon="2.66193">
        <ele>921.7</ele>
        <time>2015-04-07T15:31:20.159Z</time>
      </trkpt>
      <trkpt lat="45.51805" lon="2.66202">
        <ele>921.8</ele>
        <time>2015-04-07T15:31:21.164Z</time>
      </trkpt>
      <trkpt lat="45.51824" lon="2.66211">
        <ele>922.2</ele>
        <time>2015-04-07T15:31:22.175Z</time>
      </trkpt>
      <trkpt lat="45.51842" lon="2.6622">
        <ele>922.5</ele>
        <time>2015-04-07T15:31:23.161Z</time>
      </trkpt>
      <trkpt lat="45.51863" lon="2.66229">
        <ele>922.8</ele>
        <time>2015-04-07T15:31:24.153Z</time>
      </trkpt>
      <trkpt lat="45.51884" lon="2.66238">
        <ele>923.3</ele>
        <time>2015-04-07T15:31:25.159Z</time>
      </trkpt>
      <trkpt lat="45.51905" lon="2.66247">
        <ele>923.9</ele>
        <time>2015-04-07T15:31:26.160Z</time>
      </trkpt>
      <trkpt lat="45.51925" lon="2.66255">
        <ele>924.6</ele>
        <time>2015-04-07T15:31:27.169Z</time>
      </trkpt>
      <trkpt lat="45.51946" lon="2.66264">
        <ele>925.6</ele>
        <time>2015-04-07T15:31:28.175Z</time>
      </trkpt>
      <trkpt lat="45.51965" lon="2.66273">
        <ele>926.9</ele>
        <time>2015-04-07T15:31:29.168Z</time>
      </trkpt>
      <trkpt lat="45.51984" lon="2.66281">
        <ele>927.7</ele>
        <time>2015-04-07T15:31:30.160Z</time>
      </trkpt>
      <trkpt lat="45.52002" lon="2.6629">
        <ele>928.4</ele>
        <time>2015-04-07T15:31:31.140Z</time>
      </trkpt>
      <trkpt lat="45.5202" lon="2.66299">
        <ele>929</ele>
        <time>2015-04-07T15:31:32.143Z</time>
      </trkpt>
      <trkpt lat="45.52036" lon="2.6631">
        <ele>929.6</ele>
        <time>2015-04-07T15:31:33.145Z</time>
      </trkpt>
      <trkpt lat="45.52052" lon="2.66324">
        <ele>930.5</ele>
        <time>2015-04-07T15:31:34.143Z</time>
      </trkpt>
      <trkpt lat="45.52067" lon="2.66338">
        <ele>931.3</ele>
        <time>2015-04-07T15:31:35.145Z</time>
      </trkpt>
      <trkpt lat="45.52083" lon="2.66356">
        <ele>932</ele>
        <time>2015-04-07T15:31:36.144Z</time>
      </trkpt>
      <trkpt lat="45.52096" lon="2.66374">
        <ele>932.2</ele>
        <time>2015-04-07T15:31:37.152Z</time>
      </trkpt>
      <trkpt lat="45.5211" lon="2.66394">
        <ele>932.3</ele>
        <time>2015-04-07T15:31:38.154Z</time>
      </trkpt>
      <trkpt lat="45.52122" lon="2.66416">
        <ele>932.4</ele>
        <time>2015-04-07T15:31:39.172Z</time>
      </trkpt>
      <trkpt lat="45.52135" lon="2.6644">
        <ele>932.6</ele>
        <time>2015-04-07T15:31:40.168Z</time>
      </trkpt>
      <trkpt lat="45.52145" lon="2.66465">
        <ele>932.7</ele>
        <time>2015-04-07T15:31:41.164Z</time>
      </trkpt>
      <trkpt lat="45.52156" lon="2.66492">
        <ele>932.6</ele>
        <time>2015-04-07T15:31:42.167Z</time>
      </trkpt>
      <trkpt lat="45.52166" lon="2.66518">
        <ele>932.7</ele>
        <time>2015-04-07T15:31:43.159Z</time>
      </trkpt>
      <trkpt lat="45.52176" lon="2.66546">
        <ele>932.4</ele>
        <time>2015-04-07T15:31:44.167Z</time>
      </trkpt>
      <trkpt lat="45.52186" lon="2.66573">
        <ele>932.3</ele>
        <time>2015-04-07T15:31:45.161Z</time>
      </trkpt>
      <trkpt lat="45.52194" lon="2.666">
        <ele>932.5</ele>
        <time>2015-04-07T15:31:46.155Z</time>
      </trkpt>
      <trkpt lat="45.52203" lon="2.66625">
        <ele>932.7</ele>
        <time>2015-04-07T15:31:47.175Z</time>
      </trkpt>
      <trkpt lat="45.52211" lon="2.66651">
        <ele>932.7</ele>
        <time>2015-04-07T15:31:48.187Z</time>
      </trkpt>
      <trkpt lat="45.52221" lon="2.66678">
        <ele>932.8</ele>
        <time>2015-04-07T15:31:49.156Z</time>
      </trkpt>
      <trkpt lat="45.52229" lon="2.66705">
        <ele>933.1</ele>
        <time>2015-04-07T15:31:50.159Z</time>
      </trkpt>
      <trkpt lat="45.52239" lon="2.66731">
        <ele>933.7</ele>
        <time>2015-04-07T15:31:51.158Z</time>
      </trkpt>
      <trkpt lat="45.52247" lon="2.66754">
        <ele>934.1</ele>
        <time>2015-04-07T15:31:52.153Z</time>
      </trkpt>
      <trkpt lat="45.52254" lon="2.66777">
        <ele>934.7</ele>
        <time>2015-04-07T15:31:53.157Z</time>
      </trkpt>
      <trkpt lat="45.52261" lon="2.668">
        <ele>935.5</ele>
        <time>2015-04-07T15:31:54.161Z</time>
      </trkpt>
      <trkpt lat="45.52267" lon="2.66822">
        <ele>936.2</ele>
        <time>2015-04-07T15:31:55.171Z</time>
      </trkpt>
      <trkpt lat="45.52272" lon="2.66845">
        <ele>936.9</ele>
        <time>2015-04-07T15:31:56.151Z</time>
      </trkpt>
      <trkpt lat="45.52272" lon="2.66868">
        <ele>937</ele>
        <time>2015-04-07T15:31:57.168Z</time>
      </trkpt>
      <trkpt lat="45.52272" lon="2.66889">
        <ele>936.6</ele>
        <time>2015-04-07T15:31:58.162Z</time>
      </trkpt>
      <trkpt lat="45.5227" lon="2.66911">
        <ele>936.4</ele>
        <time>2015-04-07T15:31:59.158Z</time>
      </trkpt>
      <trkpt lat="45.52269" lon="2.66932">
        <ele>935.7</ele>
        <time>2015-04-07T15:32:00.151Z</time>
      </trkpt>
      <trkpt lat="45.52268" lon="2.66953">
        <ele>934.9</ele>
        <time>2015-04-07T15:32:01.158Z</time>
      </trkpt>
      <trkpt lat="45.52267" lon="2.66976">
        <ele>933.9</ele>
        <time>2015-04-07T15:32:02.166Z</time>
      </trkpt>
      <trkpt lat="45.52267" lon="2.66999">
        <ele>933.1</ele>
        <time>2015-04-07T15:32:03.157Z</time>
      </trkpt>
      <trkpt lat="45.52268" lon="2.67019">
        <ele>933</ele>
        <time>2015-04-07T15:32:04.161Z</time>
      </trkpt>
      <trkpt lat="45.52271" lon="2.67041">
        <ele>932.8</ele>
        <time>2015-04-07T15:32:05.158Z</time>
      </trkpt>
      <trkpt lat="45.52275" lon="2.67062">
        <ele>932.8</ele>
        <time>2015-04-07T15:32:06.148Z</time>
      </trkpt>
      <trkpt lat="45.52279" lon="2.67083">
        <ele>932.6</ele>
        <time>2015-04-07T15:32:07.167Z</time>
      </trkpt>
      <trkpt lat="45.52285" lon="2.67106">
        <ele>932.1</ele>
        <time>2015-04-07T15:32:08.178Z</time>
      </trkpt>
      <trkpt lat="45.52296" lon="2.67126">
        <ele>931.7</ele>
        <time>2015-04-07T15:32:09.172Z</time>
      </trkpt>
      <trkpt lat="45.52307" lon="2.67147">
        <ele>931.5</ele>
        <time>2015-04-07T15:32:10.156Z</time>
      </trkpt>
      <trkpt lat="45.52318" lon="2.67164">
        <ele>931.2</ele>
        <time>2015-04-07T15:32:11.158Z</time>
      </trkpt>
      <trkpt lat="45.5233" lon="2.67181">
        <ele>931.3</ele>
        <time>2015-04-07T15:32:12.150Z</time>
      </trkpt>
      <trkpt lat="45.52341" lon="2.67193">
        <ele>931.4</ele>
        <time>2015-04-07T15:32:13.161Z</time>
      </trkpt>
      <trkpt lat="45.52351" lon="2.67205">
        <ele>931.8</ele>
        <time>2015-04-07T15:32:14.158Z</time>
      </trkpt>
      <trkpt lat="45.52361" lon="2.67216">
        <ele>932.5</ele>
        <time>2015-04-07T15:32:15.156Z</time>
      </trkpt>
      <trkpt lat="45.52374" lon="2.67223">
        <ele>932.9</ele>
        <time>2015-04-07T15:32:16.162Z</time>
      </trkpt>
      <trkpt lat="45.52391" lon="2.67225">
        <ele>933.1</ele>
        <time>2015-04-07T15:32:17.154Z</time>
      </trkpt>
      <trkpt lat="45.52405" lon="2.67221">
        <ele>933.1</ele>
        <time>2015-04-07T15:32:18.168Z</time>
      </trkpt>
      <trkpt lat="45.52418" lon="2.67216">
        <ele>932.6</ele>
        <time>2015-04-07T15:32:19.155Z</time>
      </trkpt>
      <trkpt lat="45.52432" lon="2.6721">
        <ele>932.1</ele>
        <time>2015-04-07T15:32:20.162Z</time>
      </trkpt>
      <trkpt lat="45.52446" lon="2.67203">
        <ele>931.5</ele>
        <time>2015-04-07T15:32:21.157Z</time>
      </trkpt>
      <trkpt lat="45.5246" lon="2.67199">
        <ele>930.9</ele>
        <time>2015-04-07T15:32:22.160Z</time>
      </trkpt>
      <trkpt lat="45.52476" lon="2.67199">
        <ele>930.6</ele>
        <time>2015-04-07T15:32:23.168Z</time>
      </trkpt>
      <trkpt lat="45.52491" lon="2.672">
        <ele>930.8</ele>
        <time>2015-04-07T15:32:24.161Z</time>
      </trkpt>
      <trkpt lat="45.52507" lon="2.67202">
        <ele>931.1</ele>
        <time>2015-04-07T15:32:25.163Z</time>
      </trkpt>
      <trkpt lat="45.52522" lon="2.67205">
        <ele>931.8</ele>
        <time>2015-04-07T15:32:26.159Z</time>
      </trkpt>
      <trkpt lat="45.52534" lon="2.67209">
        <ele>932</ele>
        <time>2015-04-07T15:32:27.179Z</time>
      </trkpt>
      <trkpt lat="45.52546" lon="2.67219">
        <ele>932.5</ele>
        <time>2015-04-07T15:32:28.179Z</time>
      </trkpt>
      <trkpt lat="45.52559" lon="2.67229">
        <ele>932.6</ele>
        <time>2015-04-07T15:32:29.161Z</time>
      </trkpt>
      <trkpt lat="45.52572" lon="2.6724">
        <ele>932.5</ele>
        <time>2015-04-07T15:32:30.157Z</time>
      </trkpt>
      <trkpt lat="45.52586" lon="2.67252">
        <ele>932.2</ele>
        <time>2015-04-07T15:32:31.148Z</time>
      </trkpt>
      <trkpt lat="45.52599" lon="2.67264">
        <ele>931.8</ele>
        <time>2015-04-07T15:32:32.157Z</time>
      </trkpt>
      <trkpt lat="45.52613" lon="2.67277">
        <ele>931.3</ele>
        <time>2015-04-07T15:32:33.174Z</time>
      </trkpt>
      <trkpt lat="45.52627" lon="2.6729">
        <ele>930.8</ele>
        <time>2015-04-07T15:32:34.148Z</time>
      </trkpt>
      <trkpt lat="45.52641" lon="2.67304">
        <ele>930.3</ele>
        <time>2015-04-07T15:32:35.147Z</time>
      </trkpt>
      <trkpt lat="45.52655" lon="2.67318">
        <ele>929.6</ele>
        <time>2015-04-07T15:32:36.143Z</time>
      </trkpt>
      <trkpt lat="45.52668" lon="2.67332">
        <ele>928.8</ele>
        <time>2015-04-07T15:32:37.146Z</time>
      </trkpt>
      <trkpt lat="45.52681" lon="2.67346">
        <ele>928.5</ele>
        <time>2015-04-07T15:32:38.172Z</time>
      </trkpt>
      <trkpt lat="45.52695" lon="2.6736">
        <ele>928.1</ele>
        <time>2015-04-07T15:32:39.168Z</time>
      </trkpt>
      <trkpt lat="45.52709" lon="2.67373">
        <ele>927.9</ele>
        <time>2015-04-07T15:32:40.161Z</time>
      </trkpt>
      <trkpt lat="45.52725" lon="2.67379">
        <ele>927.6</ele>
        <time>2015-04-07T15:32:41.155Z</time>
      </trkpt>
      <trkpt lat="45.52742" lon="2.67384">
        <ele>927.7</ele>
        <time>2015-04-07T15:32:42.158Z</time>
      </trkpt>
      <trkpt lat="45.5276" lon="2.67382">
        <ele>927.6</ele>
        <time>2015-04-07T15:32:43.167Z</time>
      </trkpt>
      <trkpt lat="45.52776" lon="2.67378">
        <ele>927.3</ele>
        <time>2015-04-07T15:32:44.173Z</time>
      </trkpt>
      <trkpt lat="45.52791" lon="2.67369">
        <ele>927.1</ele>
        <time>2015-04-07T15:32:45.155Z</time>
      </trkpt>
      <trkpt lat="45.52807" lon="2.6736">
        <ele>927.1</ele>
        <time>2015-04-07T15:32:46.152Z</time>
      </trkpt>
      <trkpt lat="45.52824" lon="2.67351">
        <ele>927.6</ele>
        <time>2015-04-07T15:32:47.171Z</time>
      </trkpt>
      <trkpt lat="45.52839" lon="2.67341">
        <ele>928.3</ele>
        <time>2015-04-07T15:32:48.159Z</time>
      </trkpt>
      <trkpt lat="45.52855" lon="2.67332">
        <ele>929.1</ele>
        <time>2015-04-07T15:32:49.167Z</time>
      </trkpt>
      <trkpt lat="45.52869" lon="2.67324">
        <ele>930.3</ele>
        <time>2015-04-07T15:32:50.158Z</time>
      </trkpt>
      <trkpt lat="45.52883" lon="2.67316">
        <ele>931.2</ele>
        <time>2015-04-07T15:32:51.163Z</time>
      </trkpt>
      <trkpt lat="45.52896" lon="2.67309">
        <ele>931.8</ele>
        <time>2015-04-07T15:32:52.158Z</time>
      </trkpt>
      <trkpt lat="45.52908" lon="2.67302">
        <ele>932.3</ele>
        <time>2015-04-07T15:32:53.161Z</time>
      </trkpt>
      <trkpt lat="45.52919" lon="2.67296">
        <ele>932.7</ele>
        <time>2015-04-07T15:32:54.158Z</time>
      </trkpt>
      <trkpt lat="45.52929" lon="2.67291">
        <ele>933.1</ele>
        <time>2015-04-07T15:32:55.161Z</time>
      </trkpt>
      <trkpt lat="45.5294" lon="2.67292">
        <ele>933.1</ele>
        <time>2015-04-07T15:32:56.167Z</time>
      </trkpt>
      <trkpt lat="45.5295" lon="2.67297">
        <ele>932.9</ele>
        <time>2015-04-07T15:32:57.147Z</time>
      </trkpt>
      <trkpt lat="45.52958" lon="2.67306">
        <ele>932.9</ele>
        <time>2015-04-07T15:32:58.154Z</time>
      </trkpt>
      <trkpt lat="45.52965" lon="2.67319">
        <ele>933</ele>
        <time>2015-04-07T15:32:59.174Z</time>
      </trkpt>
      <trkpt lat="45.52969" lon="2.67333">
        <ele>933.2</ele>
        <time>2015-04-07T15:33:00.152Z</time>
      </trkpt>
      <trkpt lat="45.52972" lon="2.67349">
        <ele>933.2</ele>
        <time>2015-04-07T15:33:01.160Z</time>
      </trkpt>
      <trkpt lat="45.52974" lon="2.67367">
        <ele>933.5</ele>
        <time>2015-04-07T15:33:02.161Z</time>
      </trkpt>
      <trkpt lat="45.52975" lon="2.67385">
        <ele>934.3</ele>
        <time>2015-04-07T15:33:03.168Z</time>
      </trkpt>
      <trkpt lat="45.52976" lon="2.67403">
        <ele>935.2</ele>
        <time>2015-04-07T15:33:04.158Z</time>
      </trkpt>
      <trkpt lat="45.52976" lon="2.67422">
        <ele>936</ele>
        <time>2015-04-07T15:33:05.162Z</time>
      </trkpt>
      <trkpt lat="45.52976" lon="2.67443">
        <ele>936.9</ele>
        <time>2015-04-07T15:33:06.169Z</time>
      </trkpt>
      <trkpt lat="45.52977" lon="2.67462">
        <ele>937.8</ele>
        <time>2015-04-07T15:33:07.166Z</time>
      </trkpt>
      <trkpt lat="45.52978" lon="2.67482">
        <ele>938.5</ele>
        <time>2015-04-07T15:33:08.157Z</time>
      </trkpt>
      <trkpt lat="45.52979" lon="2.67501">
        <ele>939.2</ele>
        <time>2015-04-07T15:33:09.168Z</time>
      </trkpt>
      <trkpt lat="45.52981" lon="2.67522">
        <ele>939.9</ele>
        <time>2015-04-07T15:33:10.152Z</time>
      </trkpt>
      <trkpt lat="45.52986" lon="2.67537">
        <ele>941.1</ele>
        <time>2015-04-07T15:33:11.159Z</time>
      </trkpt>
      <trkpt lat="45.52992" lon="2.67552">
        <ele>942.2</ele>
        <time>2015-04-07T15:33:12.169Z</time>
      </trkpt>
      <trkpt lat="45.53002" lon="2.67565">
        <ele>943.3</ele>
        <time>2015-04-07T15:33:13.162Z</time>
      </trkpt>
      <trkpt lat="45.53013" lon="2.67579">
        <ele>944.4</ele>
        <time>2015-04-07T15:33:14.160Z</time>
      </trkpt>
      <trkpt lat="45.53023" lon="2.67592">
        <ele>945.4</ele>
        <time>2015-04-07T15:33:15.169Z</time>
      </trkpt>
      <trkpt lat="45.5303" lon="2.6761">
        <ele>946</ele>
        <time>2015-04-07T15:33:16.159Z</time>
      </trkpt>
      <trkpt lat="45.53037" lon="2.67629">
        <ele>946.8</ele>
        <time>2015-04-07T15:33:17.157Z</time>
      </trkpt>
      <trkpt lat="45.53042" lon="2.67649">
        <ele>947.4</ele>
        <time>2015-04-07T15:33:18.158Z</time>
      </trkpt>
      <trkpt lat="45.53047" lon="2.6767">
        <ele>947.7</ele>
        <time>2015-04-07T15:33:19.158Z</time>
      </trkpt>
      <trkpt lat="45.53051" lon="2.67691">
        <ele>948</ele>
        <time>2015-04-07T15:33:20.153Z</time>
      </trkpt>
      <trkpt lat="45.53055" lon="2.67713">
        <ele>948.5</ele>
        <time>2015-04-07T15:33:21.152Z</time>
      </trkpt>
      <trkpt lat="45.53058" lon="2.67731">
        <ele>948.8</ele>
        <time>2015-04-07T15:33:22.161Z</time>
      </trkpt>
      <trkpt lat="45.53066" lon="2.67746">
        <ele>949.5</ele>
        <time>2015-04-07T15:33:23.160Z</time>
      </trkpt>
      <trkpt lat="45.53078" lon="2.67758">
        <ele>950.5</ele>
        <time>2015-04-07T15:33:24.168Z</time>
      </trkpt>
      <trkpt lat="45.5309" lon="2.6777">
        <ele>951.4</ele>
        <time>2015-04-07T15:33:25.159Z</time>
      </trkpt>
      <trkpt lat="45.53101" lon="2.67779">
        <ele>952.3</ele>
        <time>2015-04-07T15:33:26.160Z</time>
      </trkpt>
      <trkpt lat="45.53112" lon="2.6779">
        <ele>953.1</ele>
        <time>2015-04-07T15:33:27.179Z</time>
      </trkpt>
      <trkpt lat="45.53118" lon="2.67803">
        <ele>954</ele>
        <time>2015-04-07T15:33:28.157Z</time>
      </trkpt>
      <trkpt lat="45.53121" lon="2.67818">
        <ele>955</ele>
        <time>2015-04-07T15:33:29.153Z</time>
      </trkpt>
      <trkpt lat="45.53122" lon="2.67834">
        <ele>955.6</ele>
        <time>2015-04-07T15:33:30.147Z</time>
      </trkpt>
      <trkpt lat="45.53121" lon="2.67852">
        <ele>956.7</ele>
        <time>2015-04-07T15:33:31.147Z</time>
      </trkpt>
      <trkpt lat="45.53118" lon="2.67869">
        <ele>958.2</ele>
        <time>2015-04-07T15:33:32.157Z</time>
      </trkpt>
      <trkpt lat="45.53112" lon="2.67887">
        <ele>959.6</ele>
        <time>2015-04-07T15:33:33.169Z</time>
      </trkpt>
      <trkpt lat="45.53106" lon="2.67905">
        <ele>960.9</ele>
        <time>2015-04-07T15:33:34.155Z</time>
      </trkpt>
      <trkpt lat="45.531" lon="2.67923">
        <ele>961.8</ele>
        <time>2015-04-07T15:33:35.150Z</time>
      </trkpt>
      <trkpt lat="45.53094" lon="2.67941">
        <ele>962.3</ele>
        <time>2015-04-07T15:33:36.151Z</time>
      </trkpt>
      <trkpt lat="45.53091" lon="2.6796">
        <ele>962.7</ele>
        <time>2015-04-07T15:33:37.141Z</time>
      </trkpt>
      <trkpt lat="45.53089" lon="2.67981">
        <ele>963</ele>
        <time>2015-04-07T15:33:38.157Z</time>
      </trkpt>
      <trkpt lat="45.53091" lon="2.68001">
        <ele>963.4</ele>
        <time>2015-04-07T15:33:39.163Z</time>
      </trkpt>
      <trkpt lat="45.53094" lon="2.68023">
        <ele>963.9</ele>
        <time>2015-04-07T15:33:40.168Z</time>
      </trkpt>
      <trkpt lat="45.53097" lon="2.68044">
        <ele>964.4</ele>
        <time>2015-04-07T15:33:41.169Z</time>
      </trkpt>
      <trkpt lat="45.53102" lon="2.68065">
        <ele>964.8</ele>
        <time>2015-04-07T15:33:42.171Z</time>
      </trkpt>
      <trkpt lat="45.53106" lon="2.68084">
        <ele>965.5</ele>
        <time>2015-04-07T15:33:43.154Z</time>
      </trkpt>
      <trkpt lat="45.5311" lon="2.68103">
        <ele>966.4</ele>
        <time>2015-04-07T15:33:44.161Z</time>
      </trkpt>
      <trkpt lat="45.53115" lon="2.68124">
        <ele>967.2</ele>
        <time>2015-04-07T15:33:45.152Z</time>
      </trkpt>
      <trkpt lat="45.53118" lon="2.68145">
        <ele>968</ele>
        <time>2015-04-07T15:33:46.162Z</time>
      </trkpt>
      <trkpt lat="45.53121" lon="2.68166">
        <ele>968.7</ele>
        <time>2015-04-07T15:33:47.160Z</time>
      </trkpt>
      <trkpt lat="45.53123" lon="2.68186">
        <ele>969.1</ele>
        <time>2015-04-07T15:33:48.167Z</time>
      </trkpt>
      <trkpt lat="45.53126" lon="2.68206">
        <ele>969.5</ele>
        <time>2015-04-07T15:33:49.162Z</time>
      </trkpt>
      <trkpt lat="45.53128" lon="2.68227">
        <ele>969.9</ele>
        <time>2015-04-07T15:33:50.161Z</time>
      </trkpt>
      <trkpt lat="45.5313" lon="2.68247">
        <ele>970.4</ele>
        <time>2015-04-07T15:33:51.154Z</time>
      </trkpt>
      <trkpt lat="45.53132" lon="2.68267">
        <ele>971</ele>
        <time>2015-04-07T15:33:52.171Z</time>
      </trkpt>
      <trkpt lat="45.53134" lon="2.68287">
        <ele>971.5</ele>
        <time>2015-04-07T15:33:53.161Z</time>
      </trkpt>
      <trkpt lat="45.53135" lon="2.68307">
        <ele>972</ele>
        <time>2015-04-07T15:33:54.161Z</time>
      </trkpt>
      <trkpt lat="45.53137" lon="2.68328">
        <ele>972.4</ele>
        <time>2015-04-07T15:33:55.157Z</time>
      </trkpt>
      <trkpt lat="45.53138" lon="2.68349">
        <ele>973</ele>
        <time>2015-04-07T15:33:56.158Z</time>
      </trkpt>
      <trkpt lat="45.5314" lon="2.6837">
        <ele>973.5</ele>
        <time>2015-04-07T15:33:57.158Z</time>
      </trkpt>
      <trkpt lat="45.53142" lon="2.6839">
        <ele>974.1</ele>
        <time>2015-04-07T15:33:58.171Z</time>
      </trkpt>
      <trkpt lat="45.53144" lon="2.68411">
        <ele>974.6</ele>
        <time>2015-04-07T15:33:59.156Z</time>
      </trkpt>
      <trkpt lat="45.53147" lon="2.68432">
        <ele>975.2</ele>
        <time>2015-04-07T15:34:00.149Z</time>
      </trkpt>
      <trkpt lat="45.53149" lon="2.68454">
        <ele>976</ele>
        <time>2015-04-07T15:34:01.152Z</time>
      </trkpt>
      <trkpt lat="45.53152" lon="2.68474">
        <ele>976.7</ele>
        <time>2015-04-07T15:34:02.169Z</time>
      </trkpt>
      <trkpt lat="45.53155" lon="2.68494">
        <ele>977.5</ele>
        <time>2015-04-07T15:34:03.162Z</time>
      </trkpt>
      <trkpt lat="45.53158" lon="2.68512">
        <ele>978.6</ele>
        <time>2015-04-07T15:34:04.162Z</time>
      </trkpt>
      <trkpt lat="45.53161" lon="2.68528">
        <ele>979.8</ele>
        <time>2015-04-07T15:34:05.157Z</time>
      </trkpt>
      <trkpt lat="45.53165" lon="2.68546">
        <ele>981</ele>
        <time>2015-04-07T15:34:06.154Z</time>
      </trkpt>
      <trkpt lat="45.53169" lon="2.68563">
        <ele>982.5</ele>
        <time>2015-04-07T15:34:07.160Z</time>
      </trkpt>
      <trkpt lat="45.53172" lon="2.68581">
        <ele>983.7</ele>
        <time>2015-04-07T15:34:08.172Z</time>
      </trkpt>
      <trkpt lat="45.53176" lon="2.68597">
        <ele>984.7</ele>
        <time>2015-04-07T15:34:09.162Z</time>
      </trkpt>
      <trkpt lat="45.53179" lon="2.68611">
        <ele>985.6</ele>
        <time>2015-04-07T15:34:10.161Z</time>
      </trkpt>
      <trkpt lat="45.53183" lon="2.68626">
        <ele>986.6</ele>
        <time>2015-04-07T15:34:11.161Z</time>
      </trkpt>
      <trkpt lat="45.53186" lon="2.6864">
        <ele>987.8</ele>
        <time>2015-04-07T15:34:12.158Z</time>
      </trkpt>
      <trkpt lat="45.5319" lon="2.68651">
        <ele>988.2</ele>
        <time>2015-04-07T15:34:13.167Z</time>
      </trkpt>
      <trkpt lat="45.53192" lon="2.68662">
        <ele>988.8</ele>
        <time>2015-04-07T15:34:14.182Z</time>
      </trkpt>
      <trkpt lat="45.53192" lon="2.68674">
        <ele>989.2</ele>
        <time>2015-04-07T15:34:17.151Z</time>
      </trkpt>
      <trkpt lat="45.53193" lon="2.6868">
        <ele>989.3</ele>
        <time>2015-04-07T15:34:18.163Z</time>
      </trkpt>
      <trkpt lat="45.53193" lon="2.6868">
        <ele>989.6</ele>
        <time>2015-04-07T15:34:27.115Z</time>
      </trkpt>
    </trkseg>
  </trk>
</gpx>